[[{"header":{"parameterUnit":"m.s-1","parameterCategory":1,"la1":30.6,"la2":29.2853,"lo1":-89.7004,"lo2":-87.6739,"dy":0.0162,"dx":0.0183,"nx":112,"ny":82,"refTime":"2023-09-16T18:00:00:Z","depth":0,"parameterNumber":2,"parameterNumberName":"U-component_of_WINDS"},"data":[0.0,0.0,0.0,0.0,0.0,0.0,0.0,0.0,0.0,0.0,0.0,0.0,0.0,0.0,0.0,0.0,0.0,0.0,0.0,0.0,0.0,0.0,0.0,0.0,0.0,0.0,0.0,0.0,0.0,0.0,0.0,0.0,0.0,0.0,0.0,0.0,0.0,0.0,0.0,0.0,0.0,0.0,0.0,0.0,0.0,0.0,0.0,0.0,0.0,0.0,0.0,0.0,0.0,0.0,0.0,0.0,0.0,0.0,0.0,0.0,0.0,0.0,0.0,0.0,0.0,0.0,0.0,0.0,0.0,0.0,0.0,0.0,0.0,0.0,0.0,0.0,0.0,0.0,0.0,0.0,0.0,0.0,0.0,0.0,0.0,0.0,0.0,0.0,0.0,0.0,3.5946,3.7129,3.6855,3.6229,3.5366,3.4019,3.2575,3.1075,0.0,0.0,0.0,0.0,0.0,0.0,0.0,0.0,0.0,0.0,0.0,0.0,0.0,0.0,0.0,0.0,0.0,0.0,0.0,0.0,0.0,0.0,0.0,0.0,0.0,0.0,0.0,0.0,0.0,0.0,0.0,0.0,0.0,0.0,0.0,0.0,0.0,0.0,0.0,0.0,0.0,0.0,0.0,0.0,0.0,0.0,0.0,0.0,0.0,0.0,0.0,0.0,0.0,0.0,0.0,0.0,0.0,0.0,0.0,0.0,0.0,0.0,0.0,0.0,0.0,0.0,0.0,0.0,0.0,0.0,0.0,0.0,0.0,0.0,0.0,0.0,0.0,0.0,0.0,0.0,0.0,0.0,0.0,0.0,0.0,0.0,0.0,0.0,0.0,0.0,0.0,0.0,0.0,0.0,0.0,0.0,0.0,0.0,0.0,0.0,0.0,0.0,0.0,0.0,3.4207,3.5964,3.6073,3.5562,3.4484,3.3662,3.2661,3.14,0.0,0.0,0.0,0.0,0.0,0.0,0.0,0.0,0.0,0.0,0.0,0.0,0.0,0.0,0.0,0.0,0.0,0.0,0.0,0.0,0.0,0.0,0.0,0.0,0.0,0.0,0.0,0.0,0.0,0.0,0.0,0.0,0.0,0.0,0.0,0.0,0.0,0.0,0.0,0.0,0.0,0.0,0.0,0.0,0.0,0.0,0.0,0.0,0.0,0.0,0.0,0.0,0.0,0.0,0.0,0.0,0.0,0.0,0.0,0.0,0.0,0.0,0.0,0.0,0.0,0.0,0.0,0.0,0.0,0.0,0.0,0.0,0.0,0.0,0.0,0.0,0.0,0.0,0.0,0.0,0.0,0.0,0.0,0.0,0.0,0.0,0.0,0.0,0.0,0.0,0.0,0.0,0.0,0.0,0.0,0.0,0.0,0.0,0.0,0.0,0.0,0.0,0.0,3.4983,3.5401,3.6877,3.6368,3.5692,3.5165,3.3944,3.2785,3.1837,3.1572,0.0,0.0,0.0,0.0,0.0,0.0,0.0,0.0,0.0,0.0,0.0,0.0,0.0,0.0,0.0,0.0,0.0,0.0,0.0,0.0,0.0,0.0,0.0,0.0,0.0,0.0,0.0,0.0,0.0,0.0,0.0,0.0,0.0,0.0,0.0,0.0,0.0,0.0,0.0,0.0,0.0,0.0,0.0,0.0,0.0,0.0,0.0,0.0,0.0,0.0,0.0,0.0,0.0,0.0,0.0,0.0,0.0,0.0,0.0,0.0,0.0,0.0,0.0,0.0,0.0,0.0,0.0,0.0,0.0,0.0,0.0,0.0,0.0,0.0,0.0,0.0,0.0,0.0,0.0,0.0,0.0,0.0,0.0,0.0,0.0,0.0,0.0,0.0,0.0,0.0,0.0,0.0,0.0,0.0,0.0,0.0,0.0,0.0,0.0,0.0,0.0,0.0,3.673,3.6946,3.7896,3.6728,3.5809,3.562,3.4046,3.2806,3.2236,3.1809,0.0,0.0,0.0,0.0,0.0,0.0,0.0,0.0,0.0,0.0,0.0,0.0,0.0,0.0,0.0,0.0,0.0,0.0,0.0,0.0,0.0,0.0,0.0,0.0,0.0,0.0,0.0,0.0,0.0,0.0,0.0,0.0,0.0,0.0,0.0,0.0,0.0,0.0,0.0,0.0,0.0,0.0,0.0,0.0,0.0,0.0,0.0,0.0,0.0,0.0,0.0,0.0,0.0,0.0,0.0,0.0,0.0,0.0,0.0,0.0,0.0,0.0,0.0,0.0,0.0,0.0,0.0,0.0,0.0,0.0,0.0,0.0,0.0,0.0,0.0,0.0,0.0,0.0,0.0,0.0,0.0,0.0,0.0,0.0,0.0,0.0,0.0,0.0,0.0,0.0,0.0,0.0,0.0,0.0,0.0,0.0,0.0,0.0,0.0,0.0,0.0,0.0,3.7011,3.7577,3.7973,3.6728,3.5601,3.4845,3.3486,3.2617,3.2562,3.1151,0.0,0.0,0.0,0.0,0.0,0.0,0.0,0.0,0.0,0.0,0.0,0.0,0.0,0.0,0.0,0.0,0.0,0.0,0.0,0.0,0.0,0.0,0.0,0.0,0.0,0.0,0.0,0.0,0.0,0.0,0.0,0.0,0.0,0.0,0.0,0.0,0.0,0.0,0.0,0.0,0.0,0.0,0.0,0.0,0.0,0.0,0.0,0.0,0.0,0.0,0.0,0.0,0.0,0.0,0.0,0.0,0.0,0.0,0.0,0.0,0.0,0.0,0.0,0.0,0.0,0.0,0.0,0.0,0.0,0.0,0.0,0.0,0.0,0.0,0.0,0.0,0.0,0.0,0.0,0.0,0.0,0.0,0.0,0.0,0.0,0.0,0.0,0.0,0.0,0.0,0.0,0.0,0.0,0.0,0.0,0.0,0.0,0.0,0.0,0.0,0.0,0.0,3.5893,3.6046,0.0,3.5875,3.5015,3.4732,3.3857,3.3348,3.3348,0.0,0.0,0.0,0.0,0.0,0.0,0.0,0.0,0.0,0.0,0.0,0.0,0.0,0.0,0.0,0.0,0.0,0.0,0.0,0.0,0.0,0.0,0.0,0.0,0.0,0.0,0.0,0.0,0.0,0.0,0.0,0.0,0.0,0.0,0.0,0.0,0.0,0.0,0.0,0.0,0.0,0.0,0.0,0.0,0.0,0.0,0.0,0.0,0.0,0.0,0.0,0.0,0.0,0.0,0.0,0.0,0.0,0.0,0.0,0.0,0.0,0.0,0.0,0.0,0.0,0.0,0.0,0.0,0.0,0.0,0.0,0.0,0.0,0.0,0.0,0.0,0.0,0.0,0.0,0.0,0.0,0.0,0.0,0.0,0.0,0.0,0.0,0.0,0.0,0.0,0.0,0.0,0.0,0.0,0.0,0.0,0.0,0.0,0.0,0.0,0.0,0.0,3.6464,3.5929,3.5816,0.0,3.5553,3.4694,3.4694,3.3696,3.3256,3.377,0.0,0.0,0.0,0.0,0.0,0.0,0.0,0.0,0.0,0.0,0.0,0.0,0.0,0.0,0.0,0.0,0.0,0.0,0.0,0.0,0.0,0.0,0.0,0.0,0.0,0.0,0.0,0.0,0.0,0.0,0.0,0.0,0.0,0.0,0.0,0.0,0.0,0.0,0.0,0.0,0.0,0.0,0.0,0.0,0.0,0.0,0.0,0.0,0.0,0.0,0.0,0.0,0.0,0.0,0.0,0.0,0.0,0.0,0.0,0.0,0.0,0.0,0.0,0.0,0.0,0.0,0.0,0.0,0.0,0.0,0.0,0.0,0.0,0.0,0.0,0.0,0.0,0.0,0.0,0.0,0.0,0.0,0.0,0.0,0.0,0.0,0.0,0.0,0.0,0.0,0.0,0.0,0.0,0.0,0.0,0.0,0.0,0.0,0.0,0.0,0.0,0.0,3.789,3.7452,3.7315,3.7924,3.6024,3.4694,3.4694,3.2674,3.21,0.0,0.0,0.0,0.0,0.0,0.0,0.0,0.0,0.0,0.0,0.0,0.0,0.0,0.0,0.0,0.0,0.0,0.0,0.0,0.0,0.0,0.0,0.0,0.0,0.0,0.0,0.0,0.0,0.0,0.0,0.0,0.0,0.0,0.0,0.0,0.0,0.0,0.0,0.0,0.0,0.0,0.0,0.0,0.0,0.0,0.0,0.0,0.0,0.0,0.0,0.0,0.0,0.0,0.0,0.0,0.0,0.0,0.0,0.0,0.0,0.0,0.0,0.0,0.0,0.0,0.0,0.0,0.0,0.0,0.0,0.0,0.0,0.0,0.0,0.0,0.0,0.0,0.0,0.0,0.0,0.0,0.0,0.0,0.0,0.0,0.0,0.0,0.0,0.0,0.0,0.0,0.0,0.0,0.0,0.0,0.0,0.0,0.0,0.0,0.0,0.0,0.0,0.0,3.6719,3.6156,3.5987,3.6719,3.5534,3.4694,3.4694,3.3194,3.2687,3.3733,0.0,0.0,0.0,0.0,0.0,0.0,0.0,0.0,0.0,0.0,0.0,0.0,0.0,0.0,0.0,0.0,0.0,0.0,0.0,0.0,0.0,0.0,0.0,0.0,0.0,0.0,0.0,0.0,0.0,0.0,0.0,0.0,0.0,0.0,0.0,0.0,0.0,0.0,0.0,0.0,0.0,0.0,0.0,0.0,0.0,0.0,0.0,0.0,0.0,0.0,0.0,0.0,0.0,0.0,0.0,0.0,0.0,0.0,0.0,0.0,0.0,0.0,0.0,0.0,0.0,0.0,0.0,0.0,0.0,0.0,0.0,0.0,0.0,0.0,0.0,0.0,0.0,0.0,0.0,0.0,0.0,0.0,0.0,0.0,0.0,0.0,0.0,0.0,0.0,0.0,0.0,0.0,0.0,0.0,0.0,0.0,0.0,0.0,0.0,0.0,0.0,0.0,3.637,3.594,3.5755,3.625,3.5344,3.4653,3.4508,3.3049,3.2467,3.3275,0.0,0.0,0.0,0.0,0.0,0.0,0.0,0.0,0.0,0.0,0.0,0.0,0.0,0.0,0.0,0.0,0.0,0.0,0.0,0.0,0.0,0.0,0.0,0.0,0.0,0.0,0.0,0.0,0.0,0.0,0.0,0.0,0.0,0.0,0.0,0.0,0.0,0.0,0.0,0.0,0.0,0.0,0.0,0.0,0.0,0.0,0.0,0.0,0.0,0.0,0.0,0.0,0.0,0.0,0.0,0.0,0.0,0.0,0.0,0.0,0.0,0.0,0.0,0.0,0.0,0.0,0.0,0.0,0.0,0.0,0.0,0.0,0.0,0.0,0.0,0.0,0.0,0.0,0.0,0.0,0.0,0.0,0.0,0.0,0.0,0.0,0.0,0.0,0.0,0.0,0.0,0.0,0.0,0.0,0.0,0.0,0.0,0.0,0.0,0.0,0.0,0.0,3.6555,3.6383,3.6228,3.6226,3.5306,3.4572,3.4269,3.2508,3.1733,3.2559,0.0,0.0,0.0,0.0,0.0,0.0,0.0,0.0,0.0,0.0,0.0,0.0,0.0,0.0,0.0,0.0,0.0,0.0,0.0,0.0,0.0,0.0,0.0,0.0,0.0,0.0,0.0,0.0,0.0,0.0,0.0,0.0,0.0,0.0,0.0,0.0,0.0,0.0,0.0,0.0,0.0,0.0,0.0,0.0,0.0,0.0,0.0,0.0,0.0,0.0,0.0,0.0,0.0,0.0,0.0,0.0,0.0,0.0,0.0,0.0,4.0719,0.0,0.0,0.0,0.0,0.0,0.0,0.0,0.0,0.0,0.0,0.0,0.0,0.0,0.0,0.0,0.0,0.0,0.0,0.0,0.0,0.0,0.0,0.0,0.0,0.0,0.0,0.0,0.0,0.0,0.0,0.0,0.0,0.0,0.0,0.0,0.0,0.0,0.0,0.0,0.0,0.0,3.5743,3.5715,3.5667,3.5667,3.5095,3.4674,3.4593,3.2632,3.1733,3.2559,2.9863,0.0,0.0,0.0,0.0,0.0,0.0,0.0,0.0,0.0,0.0,0.0,0.0,0.0,0.0,0.0,0.0,0.0,0.0,0.0,0.0,0.0,0.0,0.0,0.0,0.0,0.0,0.0,0.0,0.0,0.0,0.0,0.0,0.0,0.0,0.0,0.0,0.0,0.0,0.0,0.0,0.0,0.0,0.0,0.0,0.0,0.0,0.0,0.0,0.0,0.0,0.0,0.0,0.0,0.0,0.0,0.0,0.0,0.0,0.0,0.0,4.1123,0.0,0.0,0.0,0.0,0.0,0.0,0.0,0.0,0.0,0.0,0.0,0.0,0.0,0.0,0.0,0.0,0.0,0.0,0.0,0.0,0.0,0.0,0.0,0.0,0.0,0.0,0.0,0.0,0.0,0.0,0.0,0.0,0.0,0.0,0.0,0.0,0.0,0.0,0.0,0.0,3.6084,3.6084,3.6022,3.5895,3.5172,3.4632,3.4467,3.2932,3.199,3.2027,3.0104,0.0,0.0,0.0,0.0,0.0,0.0,0.0,0.0,0.0,0.0,0.0,0.0,0.0,0.0,0.0,0.0,0.0,0.0,0.0,0.0,0.0,0.0,0.0,0.0,0.0,0.0,0.0,0.0,0.0,0.0,0.0,0.0,0.0,0.0,0.0,0.0,0.0,0.0,0.0,0.0,0.0,0.0,0.0,0.0,0.0,0.0,0.0,0.0,0.0,0.0,0.0,0.0,0.0,4.3393,4.3451,4.3316,4.3316,4.3393,4.3489,4.2604,4.2162,4.2008,4.1786,0.0,0.0,0.0,0.0,0.0,0.0,0.0,0.0,0.0,0.0,0.0,0.0,0.0,0.0,0.0,0.0,0.0,0.0,0.0,0.0,0.0,0.0,0.0,0.0,3.4585,3.4431,3.4166,0.0,0.0,0.0,0.0,0.0,0.0,0.0,0.0,0.0,0.0,0.0,3.6719,3.6699,3.6622,3.6392,3.5382,3.4572,3.4311,3.3247,3.232,3.1641,3.0733,2.9703,0.0,0.0,0.0,0.0,0.0,0.0,0.0,0.0,0.0,0.0,0.0,0.0,0.0,0.0,0.0,0.0,0.0,0.0,0.0,0.0,0.0,0.0,0.0,0.0,0.0,0.0,0.0,0.0,0.0,0.0,0.0,0.0,4.0347,4.035,0.0,0.0,0.0,0.0,0.0,0.0,0.0,0.0,0.0,0.0,0.0,0.0,0.0,4.2931,4.2931,4.3739,4.3797,4.3124,4.4566,4.4874,4.4143,4.4143,4.4547,4.522,4.4355,0.0,4.2857,4.18,0.0,0.0,0.0,0.0,0.0,0.0,0.0,0.0,0.0,0.0,0.0,0.0,0.0,0.0,0.0,0.0,0.0,0.0,0.0,0.0,0.0,0.0,3.6978,3.6213,3.5686,3.5335,0.0,3.4427,3.3845,3.4359,3.3981,0.0,0.0,0.0,0.0,0.0,0.0,0.0,3.6796,3.6699,3.6685,3.6637,3.5474,3.4674,3.4632,3.3369,3.2559,3.2467,3.1038,3.0411,3.084,3.0195,0.0,0.0,0.0,0.0,0.0,0.0,0.0,0.0,0.0,0.0,0.0,0.0,0.0,0.0,0.0,0.0,0.0,0.0,0.0,0.0,0.0,0.0,0.0,0.0,0.0,0.0,0.0,0.0,0.0,4.041,4.0881,3.9931,4.0992,4.1463,0.0,0.0,0.0,0.0,0.0,0.0,0.0,0.0,0.0,4.3085,4.3547,4.3778,4.3778,4.4605,4.4855,4.4509,4.524,4.5393,4.5028,4.5028,4.524,4.5566,4.5201,4.4727,4.4152,4.3115,4.2614,4.2379,0.0,0.0,0.0,0.0,4.182,4.2121,4.2882,4.2709,4.2215,4.256,0.0,0.0,0.0,0.0,0.0,0.0,0.0,0.0,0.0,0.0,3.8551,3.746,3.7021,3.67,3.6146,3.5214,3.4565,0.0,3.5038,3.5395,3.5634,0.0,0.0,0.0,0.0,3.7873,3.8137,3.8161,3.7969,3.7488,3.6195,3.5205,3.4732,3.382,3.3091,3.2632,3.1505,3.08,3.068,3.0332,3.0108,0.0,0.0,0.0,0.0,0.0,0.0,0.0,0.0,0.0,0.0,0.0,0.0,0.0,0.0,0.0,0.0,0.0,0.0,0.0,0.0,0.0,0.0,0.0,0.0,0.0,0.0,0.0,0.0,4.0877,4.1242,3.9787,4.1283,4.2017,0.0,0.0,0.0,0.0,0.0,0.0,4.3355,4.3412,4.3508,4.372,4.4316,4.4624,4.4624,4.5278,4.5586,4.5586,4.5586,4.5586,4.5586,4.5586,4.5586,4.5586,4.5586,4.5362,4.4906,4.4026,4.325,4.2624,4.201,4.2077,4.2524,4.2677,4.2604,4.2555,4.3741,4.3557,4.2827,4.3042,4.2344,4.1342,4.0928,0.0,0.0,0.0,0.0,4.0603,4.0528,4.0365,3.997,3.8961,3.8464,3.798,3.7123,3.6225,3.5423,0.0,3.5472,3.5987,3.5826,0.0,0.0,0.0,0.0,3.8503,3.9196,3.9311,3.9046,3.8392,3.6862,3.5734,3.5354,3.4563,3.3862,3.3256,3.2451,3.1629,3.0836,3.0539,3.0378,3.0378,0.0,0.0,0.0,0.0,0.0,0.0,0.0,0.0,0.0,0.0,0.0,0.0,0.0,0.0,0.0,0.0,0.0,0.0,0.0,0.0,0.0,0.0,0.0,0.0,0.0,0.0,0.0,0.0,0.0,4.055,4.2659,0.0,0.0,0.0,0.0,4.3028,4.3028,4.3393,4.4201,4.4239,4.4624,4.5451,4.5509,4.5528,4.5528,4.5566,4.5586,4.5586,4.5586,4.5586,4.5586,4.5586,4.5586,4.5586,4.5586,4.5222,4.4574,4.3674,4.3782,4.4263,4.2026,4.2279,4.3669,4.1889,4.2169,4.3364,4.3008,4.2864,4.291,4.3671,4.3158,4.2218,4.2199,4.1884,0.0,0.0,4.1278,4.1466,4.1145,4.1051,4.1015,4.0972,3.9964,3.8909,3.8418,3.727,3.6129,0.0,3.4678,3.4758,3.6381,0.0,3.7386,3.8116,3.9239,3.9815,3.935,3.9311,3.9277,3.9238,3.7242,3.6187,3.6923,3.5713,3.4917,3.488,3.4056,3.3224,3.2429,3.1588,3.114,3.114,3.0575,0.0,0.0,0.0,0.0,0.0,0.0,0.0,0.0,0.0,0.0,0.0,0.0,0.0,0.0,0.0,0.0,0.0,0.0,0.0,0.0,0.0,0.0,0.0,0.0,0.0,0.0,0.0,0.0,4.227,4.3417,0.0,4.2742,4.2915,4.3316,4.3835,4.3874,4.4239,4.5086,4.5143,4.5278,4.5586,4.6142,4.6161,4.5605,4.6161,4.6161,4.5586,4.5586,4.5586,4.5586,4.5586,4.5586,4.5586,4.5586,4.522,4.4574,4.4243,4.4027,4.3812,4.2971,4.3067,4.3605,4.2904,4.3002,4.3461,4.3311,4.3256,4.3206,4.3004,4.2635,4.2206,4.168,4.1409,4.1372,4.1754,4.1946,4.2151,4.2548,4.2647,4.2515,4.2007,4.1119,4.0262,3.9724,3.8209,3.7007,3.737,3.6429,3.5888,3.6853,3.6932,3.7386,3.8912,3.9541,3.9903,4.0046,4.0546,4.0508,3.9411,3.8233,3.7395,3.7109,3.5806,3.499,3.499,3.3696,3.28,3.2517,3.1657,3.119,3.119,3.0135,2.9568,0.0,0.0,0.0,0.0,0.0,0.0,0.0,0.0,0.0,0.0,0.0,0.0,0.0,0.0,0.0,0.0,0.0,0.0,0.0,0.0,0.0,0.0,0.0,0.0,0.0,0.0,4.41,4.3573,4.4243,4.4414,4.3588,4.3761,4.4162,4.4701,4.4739,4.4989,4.5566,4.5586,4.5738,4.6026,4.6602,4.6621,4.6047,4.6872,4.6889,4.6046,4.6313,4.6448,4.6429,4.6161,4.6046,4.6046,4.6046,4.5643,4.5015,4.5298,4.4828,4.3897,4.3734,4.3605,4.3497,4.3642,4.3605,4.3497,4.3497,4.3497,4.3406,4.2878,4.2713,4.2606,4.2061,4.1915,4.2006,4.2551,4.2717,4.283,4.3364,4.3497,4.3369,4.2823,4.2079,4.1348,4.0809,3.9408,3.8402,3.8903,3.7579,3.6748,3.7784,3.747,3.7829,3.994,4.0196,4.027,4.0706,4.1366,4.1258,3.9854,3.8918,3.8282,3.7958,3.6883,3.6028,3.5477,3.4343,3.3332,3.2553,3.1898,3.1562,3.1562,3.0071,2.9318,2.939,0.0,0.0,0.0,0.0,0.0,0.0,0.0,0.0,0.0,0.0,0.0,0.0,0.0,0.0,0.0,0.0,0.0,0.0,0.0,0.0,0.0,0.0,0.0,4.4301,4.4359,4.4378,4.4378,4.5126,4.5316,4.4455,4.5124,4.5586,4.5586,4.5586,4.5586,4.5586,4.5624,4.6026,4.687,4.6947,4.695,4.6934,4.7738,4.7735,4.6949,4.7735,4.8101,4.8062,4.7293,4.691,4.6908,4.6928,4.6506,4.5878,4.6641,4.6075,4.4683,4.4207,4.3805,4.3529,4.386,4.3771,4.3497,4.3497,4.3497,4.3497,4.3497,4.3497,4.3497,4.3497,4.3497,4.3497,4.3497,4.3497,4.3497,4.3497,4.3497,4.3497,4.3497,4.2878,4.2166,4.1662,4.0909,4.0184,3.9733,3.7969,3.7171,3.9166,3.8674,3.881,4.1217,4.1215,0.0,4.1266,4.1589,4.1489,4.0623,3.9299,3.8792,3.9561,3.9036,3.7991,3.6395,3.6098,3.4924,3.2606,3.2345,3.2239,3.2198,3.0408,2.8888,2.7625,0.0,0.0,0.0,0.0,0.0,0.0,0.0,0.0,0.0,0.0,0.0,0.0,0.0,0.0,0.0,0.0,0.0,0.0,0.0,0.0,0.0,0.0,4.5016,4.4397,4.5379,4.6186,4.6204,4.6395,4.6451,4.6203,4.5836,4.5586,4.5586,4.5586,4.5586,4.5586,4.62,4.6641,4.6889,4.8081,4.841,4.778,4.8622,4.8603,4.778,4.7991,4.8087,4.8087,4.7876,4.7451,4.6928,4.7523,4.7162,4.6167,4.6132,4.5736,4.5113,4.4671,4.4098,4.3502,4.3608,4.3587,4.3497,4.3497,4.3497,4.3497,4.3497,4.3497,4.3497,4.3497,4.3497,4.3534,4.3789,4.3697,4.3569,4.3789,4.3679,4.3497,4.3497,4.2878,4.2422,4.2855,4.1533,4.0413,4.083,4.0005,3.9414,3.9999,3.9841,4.0097,4.1401,4.1707,0.0,4.1335,4.1587,4.172,4.147,4.0648,4.0259,4.0509,3.8887,3.7386,3.6358,3.4537,3.3172,3.2553,3.1863,3.1082,3.0228,2.9681,2.881,0.0,0.0,0.0,0.0,0.0,0.0,0.0,0.0,0.0,0.0,0.0,0.0,0.0,0.0,0.0,0.0,0.0,0.0,0.0,0.0,0.0,0.0,4.5573,4.6091,4.5916,4.6762,4.7549,4.7895,4.7625,4.7413,4.7413,4.6932,4.6644,4.6644,4.6644,4.6644,4.6642,4.7122,4.758,4.7927,4.9256,4.9528,4.8644,4.9836,4.9836,4.8644,4.901,4.9183,4.9183,4.8798,4.8375,4.797,4.8447,4.8143,4.7317,4.6976,4.6438,0.0,0.0,0.0,0.0,0.0,4.3497,4.3497,4.3497,4.3497,4.3497,4.3497,4.3497,4.3497,4.3497,4.3497,4.3516,4.3734,4.3664,4.3541,4.3747,4.366,4.3497,4.3497,4.3133,4.2915,4.3406,4.2514,4.1659,4.1772,4.1721,0.0,4.1192,4.0836,4.1046,4.2218,4.2389,4.2184,4.1654,4.1895,4.1871,4.1319,4.0667,4.0316,4.0358,3.9212,0.0,0.0,0.0,3.353,3.2454,3.191,0.0,0.0,0.0,2.9234,2.8008,0.0,0.0,0.0,2.81,2.795,0.0,0.0,0.0,0.0,0.0,0.0,0.0,0.0,0.0,0.0,0.0,0.0,0.0,0.0,0.0,0.0,4.655,4.7492,4.8394,4.8452,4.8625,4.9336,4.8721,4.8259,4.8259,4.8163,4.8105,4.8105,4.8105,4.8086,4.8103,0.0,0.0,0.0,0.0,5.051,4.9836,5.1299,5.1299,4.9836,5.051,5.0856,5.0818,4.9933,4.949,4.9413,4.9507,4.9296,4.8837,4.8472,4.7562,4.6258,4.461,4.3752,4.3497,4.3497,4.3497,4.3497,4.3497,0.0,0.0,4.3497,4.3497,4.3497,4.3497,4.3497,4.3497,4.3534,4.3532,4.352,4.3542,4.3516,4.3497,4.3497,4.3497,4.3497,4.3497,4.3497,4.3259,4.2451,4.2947,4.3222,4.2433,4.1791,4.1864,4.3277,4.31,4.2623,4.2145,4.2299,4.1989,4.0814,0.0,0.0,3.9703,3.9731,3.8799,3.6578,3.6134,3.4861,3.2405,3.2313,3.1959,3.1275,3.0684,2.9737,2.8511,2.7894,2.7521,2.7342,2.744,2.719,0.0,0.0,0.0,0.0,0.0,0.0,0.0,0.0,0.0,0.0,0.0,0.0,0.0,0.0,0.0,4.649,4.7914,4.9452,5.0952,5.0625,5.001,4.9452,4.926,4.9144,4.9144,4.8509,4.8105,4.8105,4.8105,4.8086,4.8103,4.8758,4.9545,5.0426,5.1241,5.1914,5.2468,5.278,5.2781,5.2454,0.0,0.0,5.1645,5.0837,5.0048,4.9433,5.0144,5.001,4.9221,4.8568,4.741,4.5854,4.4244,4.3569,4.3497,4.3497,4.3497,4.3497,4.3497,4.3497,4.3497,4.3497,4.3497,4.3497,4.3497,4.3497,0.0,4.3807,4.371,4.3575,4.3823,4.3697,4.3497,4.3497,4.3497,4.3497,4.3497,4.3497,4.3259,4.2451,4.2947,4.3222,4.2433,4.2708,4.313,4.3442,4.3106,4.2757,4.2648,4.2307,4.2011,4.1821,4.1443,4.0933,4.0296,3.9449,3.845,3.7331,3.5867,3.4209,3.2388,3.2313,3.1724,3.0523,2.9911,2.9231,2.8511,2.7894,2.7584,2.7535,2.6989,2.6857,0.0,0.0,0.0,0.0,0.0,0.0,0.0,0.0,0.0,0.0,0.0,4.3833,0.0,0.0,4.6815,4.8509,4.949,5.0645,5.2319,5.2202,5.1625,5.074,5.0298,5.0048,5.0048,4.9663,4.9567,4.9971,4.9625,4.9779,5.0605,5.0644,5.1048,5.1914,5.2762,5.3201,5.3217,5.3645,5.3627,5.3183,5.2317,5.1914,5.1876,5.1068,5.0452,5.0067,5.051,5.0452,4.9951,4.8787,4.7354,4.5828,4.5004,4.4471,4.4044,4.366,4.3497,4.3497,4.3497,4.3497,4.3497,4.3497,4.3497,4.3497,4.3497,4.3497,4.3516,4.3697,4.3642,4.3516,4.3716,4.3642,4.3497,4.3497,4.3497,4.3497,4.3497,4.3497,4.3259,4.2451,4.2947,4.3222,4.2433,4.2965,4.3497,4.3497,4.3299,4.3069,4.2828,4.2585,4.2302,4.2077,4.1397,4.0784,4.0384,3.8966,3.771,3.6823,3.5525,3.4207,3.2889,3.2476,3.1965,3.1332,3.0691,2.9923,2.8966,2.903,2.8529,2.7436,2.7132,2.736,0.0,0.0,0.0,0.0,0.0,0.0,0.0,0.0,4.3891,4.4045,4.46,4.5293,4.6182,4.7064,4.8354,5.0587,5.1087,5.1722,5.3243,5.33,5.2991,5.2451,5.1664,5.1183,5.1183,5.1183,5.1433,5.2088,5.1549,5.178,5.3128,5.2531,5.255,5.3436,5.4126,5.4237,5.3678,5.4372,5.4372,5.3678,5.2831,5.2315,5.2107,5.1299,5.0933,5.0933,5.0933,5.076,5.0372,4.9057,4.7587,4.6116,4.6043,4.5516,4.4689,4.3991,4.3642,4.3497,4.3497,4.3497,4.3497,4.3497,4.3497,4.3497,4.3497,4.3497,4.3497,4.3497,4.3497,4.3497,4.3497,4.3497,4.3497,4.3497,4.3497,4.3497,4.3497,4.3497,4.3296,4.2653,4.3057,4.3277,4.2635,4.3057,4.3497,4.3497,4.3497,4.3376,4.2965,4.2922,4.269,4.2125,4.1232,4.0558,4.0243,3.8833,3.7467,3.6327,3.5633,3.4766,3.3651,3.3034,3.2645,3.251,3.1941,3.1001,2.9806,3.0239,2.9462,2.7755,2.7592,2.7832,4.2535,4.2672,0.0,4.5898,4.5379,4.5068,0.0,0.0,4.6677,4.7388,4.76,4.7948,4.8798,4.9682,5.0605,5.1606,5.2415,5.3261,5.4225,5.3686,5.3435,5.4124,5.3455,5.2936,5.2936,5.2936,5.2974,5.3051,5.2954,5.2992,5.3186,5.3109,5.3435,5.4336,5.4451,5.4797,5.5415,5.553,5.553,5.5415,5.4605,5.3799,5.3032,5.2165,5.178,5.178,5.178,5.0952,4.9623,4.9426,4.8416,4.6943,4.6501,4.586,4.5093,4.4726,4.4099,4.3497,4.3497,4.3497,4.3497,4.3497,4.3497,4.3497,4.3497,4.3497,4.3497,4.3497,4.3497,4.3497,4.3497,4.3497,4.3497,4.3497,4.3497,4.3497,4.3497,4.3497,4.3461,4.3369,4.3424,4.3461,4.3369,4.3424,4.3497,4.3497,4.3497,4.3495,4.3437,4.3419,4.3122,4.2345,4.2165,4.1489,4.0055,3.9748,3.8904,3.7159,3.696,3.6147,3.443,3.4286,3.3947,3.3288,3.2663,3.1998,3.123,3.0207,2.9603,2.9307,2.8129,2.755,4.4212,0.0,0.0,0.0,4.7817,4.8394,4.9817,4.9605,4.9201,4.9547,4.9989,5.0432,5.0798,5.1568,5.2414,0.0,5.3706,5.4264,5.507,5.4878,5.4782,5.5164,5.4878,5.4262,5.3299,5.3203,5.3415,5.3918,5.3492,5.3624,5.461,5.4204,5.4337,5.5162,5.5182,5.5376,5.5703,5.5703,5.5703,5.5684,5.4874,5.4297,5.3935,5.3031,5.2376,5.1912,5.1895,5.1126,4.9795,4.9075,4.8379,4.7642,4.6765,4.6039,4.5458,4.4615,4.4062,4.3752,4.3587,4.3497,4.3497,4.3497,4.3497,4.3497,4.3497,4.3497,4.3497,4.3497,4.3497,4.3497,4.3497,4.3497,4.3497,4.3497,4.3497,4.3497,4.3497,4.3497,4.3497,4.3497,4.3497,4.3497,4.3497,4.3497,4.3497,4.3497,4.3497,4.3497,4.3497,4.3497,4.3185,4.2396,4.2304,4.1644,4.0029,4.0322,3.9831,3.7955,3.7863,3.7288,3.5915,3.4962,3.4336,3.4049,3.3799,3.315,3.2052,3.1965,3.1315,3.0179,2.9192,2.8702,4.5629,0.0,0.0,4.8545,4.9933,5.1086,5.1336,5.1394,5.1394,5.1394,5.1856,5.2338,5.2569,5.3317,5.4161,5.5051,5.5401,5.5748,5.6342,5.6205,5.6071,5.6071,5.5838,5.5201,5.4007,5.3891,5.4143,5.4785,5.4241,5.441,5.5645,5.5143,5.5085,5.5684,5.5703,5.5703,5.5703,5.5703,5.5703,5.5684,5.5105,5.472,5.4489,5.3608,5.2721,5.1907,5.1895,5.1222,5.0008,4.8907,4.8227,4.7758,4.6762,4.6196,4.5783,4.4595,4.4109,4.3952,4.3624,4.3497,4.3497,4.3497,4.3497,4.3497,4.3497,4.3497,4.3497,4.3497,4.3497,4.3497,4.3497,4.3497,4.3497,4.3497,4.3497,4.3497,4.3497,4.3497,4.3497,4.3497,4.3497,4.3497,4.3497,4.3497,4.3497,4.3497,4.3497,4.3497,4.3497,4.3497,4.3277,4.269,4.2635,4.2066,4.0671,4.1111,4.0615,3.8752,3.8677,3.8233,3.714,3.6028,3.5334,3.5131,3.5115,3.446,3.309,3.3437,3.2777,3.1135,3.0273,2.9961,0.0,0.0,4.8486,5.0183,5.1238,5.208,5.2927,5.3121,5.3121,5.3121,5.314,5.3409,5.4257,5.5066,5.5895,5.6785,5.7634,5.8195,5.8233,5.7499,5.6958,5.6958,5.6205,5.5684,0.0,5.5626,5.5645,5.5645,5.5645,5.5645,5.5703,5.5684,5.5665,5.5703,5.5703,5.5703,5.5703,5.5703,5.5703,5.5703,5.5684,5.5261,5.4468,5.3601,5.2715,5.1907,5.1895,5.1222,5.0029,4.9143,4.8093,4.6981,4.6511,4.6297,4.6142,4.5012,4.4323,4.3952,4.3624,4.3497,4.3497,4.3497,4.3497,4.3497,4.3497,4.3497,4.3497,4.3497,4.3497,4.3497,4.3497,4.3497,4.3497,4.3497,4.3497,4.3497,4.3497,4.3497,4.3497,4.3497,4.3497,4.3497,4.3497,4.3497,4.3497,4.3497,4.3497,4.3497,4.3497,4.3497,4.3479,4.3461,4.3442,4.313,4.2304,4.2249,4.1468,3.9589,3.9456,3.8978,3.7919,3.7821,3.7466,3.6721,3.6705,3.6004,3.451,3.3898,3.3242,3.2493,3.1197,3.0884,4.6564,0.0,5.0086,5.1219,5.2583,5.3832,5.4682,5.4855,5.4855,5.4855,5.3968,5.3294,5.3582,5.3872,5.4331,5.5189,5.6521,5.7447,5.7447,5.7678,5.7431,5.6282,5.6379,0.0,0.0,0.0,0.0,5.5703,5.5703,5.5703,5.5703,5.5703,5.5703,5.5703,5.5703,5.5703,5.5703,5.5703,5.5703,5.5703,5.5703,5.528,5.4487,5.4199,5.3257,5.1914,5.1895,5.1356,5.0375,4.8683,4.7909,4.7579,4.609,4.5624,4.574,4.4919,4.4525,4.4318,4.3716,4.3497,4.3497,4.3497,4.3497,4.3497,4.3497,4.3497,4.3497,4.3497,4.3497,4.3497,4.3497,4.3497,4.3497,4.3497,4.3497,4.3497,4.3497,4.3497,4.3497,4.3497,4.3497,4.3497,4.3497,4.3497,4.3497,4.3497,4.3497,4.3497,4.3497,4.3497,4.3497,4.3497,4.302,4.2598,4.2323,4.2304,4.1705,4.0329,4.0253,3.9808,3.8664,3.8159,3.7787,3.7533,3.7043,3.6544,3.6071,3.4847,3.4153,3.3905,3.2572,3.2055,4.7412,4.9432,5.1337,5.2158,5.3659,5.5047,5.5588,5.5703,5.5703,5.5703,5.4372,5.32,5.3204,5.3205,5.3376,5.3939,5.5455,5.6764,5.7359,5.7405,5.7274,5.7066,5.7014,5.6785,0.0,0.0,0.0,5.5722,5.5703,5.5703,5.5703,5.5703,5.5703,5.5703,5.5703,5.5703,5.5703,5.5703,5.5568,5.528,5.528,5.4836,5.4026,5.3701,5.2973,5.1876,5.1607,5.101,5.0106,4.8472,4.7741,4.7523,4.5911,4.5586,4.5969,4.5092,4.489,4.4884,4.3879,4.3497,4.3497,4.3497,4.3497,4.3497,4.3497,4.3497,4.3497,4.3497,4.3497,4.3497,4.3497,4.3497,4.3497,4.3497,4.3497,4.3497,4.3497,4.3497,4.3497,4.3497,4.3497,4.3497,4.3497,4.3497,4.3497,4.3497,4.3497,4.3497,4.3497,4.3497,4.3497,4.3497,4.3039,4.2727,4.2727,4.2727,4.2232,4.1109,4.1049,4.0596,3.9427,3.8937,3.8565,3.8311,3.7821,3.7313,3.6772,3.586,3.5112,3.4576,3.3714,3.3064,4.8971,5.0606,5.2107,5.2967,5.443,5.5645,5.5684,5.5665,5.5626,5.5588,5.4199,5.3009,0.0,0.0,5.3107,5.3259,5.471,5.6418,5.8116,5.697,5.6838,0.0,0.0,0.0,0.0,0.0,0.0,5.5818,0.0,5.5761,5.5761,5.5761,5.5742,5.5703,5.5703,5.5703,5.5703,5.5703,5.5318,5.4566,5.4566,5.4084,5.3178,5.2357,5.1915,5.1799,5.1029,5.0221,4.9317,4.8452,4.7625,4.6795,4.595,4.6103,4.6679,4.5528,4.538,4.5534,4.406,4.3497,4.3497,4.3497,4.3497,4.3497,4.3497,4.3497,4.3516,4.3497,4.3497,4.3516,4.3497,4.3497,4.3497,4.3497,4.3497,4.3497,4.3497,4.3497,4.3497,4.3497,4.3497,4.3497,4.3497,4.3497,4.3497,4.3497,4.3497,4.3497,4.3497,4.3497,4.3497,4.3497,4.3442,4.3442,4.3497,4.3442,4.2978,4.1877,4.181,4.1286,4.0171,4.007,3.9749,3.9056,3.9005,3.8294,3.6891,3.6823,3.6071,3.469,3.4657,3.3937,4.9279,5.0606,5.2107,5.2967,5.4007,5.4951,5.5568,5.5241,5.4624,5.3968,5.2003,5.0371,0.0,0.0,0.0,5.386,5.6115,0.0,5.9049,5.9389,0.0,5.8671,0.0,5.7716,5.7059,5.6412,0.0,0.0,5.6689,5.6689,5.6689,5.6689,5.6359,5.5722,5.5703,5.5703,5.5703,5.5703,5.5607,5.5395,5.5381,5.4612,5.3185,5.2974,5.2204,5.0991,5.0779,5.0221,4.9317,4.8451,4.7622,4.6795,4.595,4.5738,4.5853,4.5316,4.517,4.5137,4.4196,4.3716,4.3497,4.3497,4.3497,4.3497,4.3497,4.3679,4.3807,4.3587,4.3679,4.3789,4.3569,4.3497,4.3497,4.3497,4.3497,4.3497,4.3497,4.3497,4.3497,4.3497,4.3497,4.3497,4.3497,4.3497,4.3497,4.3497,4.3497,4.3497,4.3497,4.3497,4.3497,4.3497,4.2947,4.2837,4.3442,4.2947,4.2359,4.1842,4.181,4.1286,4.0171,4.007,3.9986,3.98,3.9276,3.8802,3.843,3.733,3.6624,3.6202,3.5631,3.4894,4.9875,5.1183,5.2589,5.3068,5.4105,5.4951,5.4682,5.4257,5.3584,5.2354,5.0663,0.0,0.0,0.0,0.0,0.0,0.0,0.0,5.8794,5.9072,5.92,0.0,5.8758,0.0,5.8104,5.7341,5.7189,0.0,5.7437,5.7008,5.7008,5.6994,5.659,5.5722,5.5703,5.5703,5.5703,5.5703,5.553,5.5162,5.4802,5.3917,5.2626,5.2261,5.1588,5.0702,0.0,5.0221,4.9337,4.8468,4.7831,4.7293,4.6084,4.5834,4.6103,4.5528,4.524,4.5035,4.4638,4.4147,4.3697,4.3534,4.3497,4.3516,4.3679,4.3826,4.3977,4.3989,4.3974,4.397,4.3771,4.3624,4.3497,4.3497,4.3754,4.392,4.3571,4.3773,4.392,4.3552,4.3497,4.3497,4.3497,4.3497,4.3497,4.3497,4.3497,4.3497,4.3497,4.3497,4.3497,4.3497,4.2902,4.265,4.3105,4.2504,4.188,4.1411,4.1402,4.1013,4.0121,4.007,4.007,4.007,3.936,3.8988,3.8988,3.7499,3.6772,3.6755,3.5977,3.5253,5.0837,5.2088,5.3225,5.334,5.4377,5.4989,5.3524,5.3025,5.2394,5.0683,0.0,4.8831,4.8064,4.9931,5.1491,5.1231,0.0,5.651,5.8366,5.7977,5.8327,6.055,5.9407,5.8719,5.943,5.8772,5.8635,5.9427,5.8162,5.732,5.732,5.7126,5.659,5.5722,5.5703,5.5703,5.5703,5.5703,5.5357,5.4662,5.3891,5.3025,5.2043,5.1336,5.0914,5.0702,5.0702,5.0221,4.9356,4.8585,4.8139,4.7792,4.6334,4.6161,4.6641,4.5873,4.5413,4.5163,4.5124,4.4651,4.4026,4.3679,4.3516,4.3534,4.3826,4.3977,4.414,4.4382,4.4278,4.4054,4.3984,4.3807,4.3644,4.3516,4.4103,4.4488,4.3663,4.4048,4.4342,4.3626,4.3497,4.3497,4.3497,4.3497,4.3497,4.3497,4.3497,4.3497,4.3497,4.3497,4.3497,4.3497,4.3087,4.2788,4.2711,4.2203,4.1621,4.0949,4.0903,4.0655,4.0121,4.007,4.007,4.007,3.9462,3.9089,3.8988,3.7601,3.6874,3.6755,3.5977,3.5316,5.2724,5.2993,5.3359,5.4087,5.3949,5.3563,5.3275,5.2126,0.0,0.0,4.789,4.7295,4.7146,4.8586,0.0,5.3398,0.0,0.0,0.0,0.0,6.0319,0.0,0.0,0.0,0.0,0.0,0.0,0.0,0.0,5.9081,5.9081,5.7742,5.659,5.5722,5.5703,5.5703,5.5703,5.5703,5.5626,5.5491,5.5338,5.4474,5.2954,5.282,5.2011,5.0702,5.0702,0.0,4.9375,4.924,4.8374,4.7064,4.6781,4.632,4.5815,4.5643,4.5547,4.547,4.5201,4.4846,4.441,4.4044,4.3734,4.3497,4.3587,4.399,4.4383,4.3844,4.4078,4.4357,4.3749,4.405,4.4308,4.3663,4.4103,4.4488,4.3663,4.3608,4.3663,4.3516,4.3497,4.3497,4.3497,4.3497,4.3497,4.3497,4.3497,4.3497,4.3497,4.3497,4.3497,4.3497,4.341,4.3178,4.275,4.2616,4.2062,4.0949,4.0903,4.0655,4.0121,4.007,4.007,4.007,3.9952,3.9597,3.8988,3.8125,3.7398,3.6755,3.5977,3.5532,5.3203,5.3531,5.3993,5.4393,5.4199,5.3546,5.22,0.0,0.0,0.0,4.6833,4.6758,4.6319,0.0,0.0,0.0,0.0,0.0,0.0,0.0,0.0,0.0,0.0,0.0,0.0,0.0,0.0,0.0,0.0,5.9315,5.8899,5.7244,5.6128,5.5703,5.5703,5.5703,5.5703,5.5703,5.5703,5.5684,5.4816,5.399,5.3164,5.23,5.1472,5.0702,5.0702,0.0,5.0029,4.9606,4.8933,4.8105,4.7241,4.6644,4.6219,4.5776,4.5892,4.6238,4.6084,4.5673,4.5234,4.5195,4.4434,4.3516,4.3716,4.3992,4.4266,4.4116,4.4176,4.4299,4.4375,4.4529,4.4729,4.4729,4.5022,4.5223,4.4819,4.4415,4.3993,4.3571,4.3497,4.3497,4.3497,4.3497,4.3497,4.3497,4.3497,4.3497,4.3497,4.3497,4.3497,4.3497,4.2977,4.2523,4.2244,4.17,4.1076,4.0546,4.0497,4.0368,4.0121,4.007,4.007,4.007,3.9698,3.9529,3.9546,3.8058,3.733,3.733,3.6163,3.5622,5.3736,5.4237,5.4759,5.4759,5.4487,5.3584,5.1241,4.9874,0.0,0.0,4.6142,4.641,4.5738,0.0,0.0,0.0,0.0,0.0,0.0,0.0,0.0,0.0,0.0,0.0,0.0,0.0,0.0,0.0,0.0,0.0,5.8327,5.6997,5.6167,5.5994,5.5799,5.5703,5.5703,5.5703,5.5703,5.5684,5.4353,5.3565,5.3161,5.1837,5.1049,5.0702,5.0702,0.0,0.0,4.9952,4.9587,4.9279,4.795,4.7313,4.7082,4.639,4.6564,4.7139,4.695,4.6411,4.5821,4.5922,4.4831,4.3569,4.3915,4.4007,4.4054,4.4298,4.4177,4.4158,4.4911,4.504,4.5169,4.5975,4.603,4.5902,4.5902,4.5278,4.4525,4.3883,4.3608,4.3497,4.3497,4.3497,4.3497,4.3497,4.3497,4.3497,4.3497,4.3497,4.3444,4.3339,4.2541,4.1895,4.1621,4.0814,4.0204,4.0121,4.007,4.007,4.007,4.007,4.007,4.007,3.9512,3.9428,3.9834,3.8108,3.7483,3.7872,3.6671,3.6028,5.5472,5.553,5.5588,5.5588,5.4449,5.2852,5.1106,0.0,0.0,4.5969,4.5643,4.5699,4.5605,0.0,0.0,0.0,0.0,0.0,0.0,0.0,0.0,0.0,0.0,0.0,0.0,0.0,0.0,0.0,0.0,0.0,5.8327,5.8135,5.7711,5.692,5.6109,5.5703,5.5703,5.5703,5.5703,5.5703,5.5549,5.4666,5.3186,5.3051,5.2146,5.0702,5.0702,0.0,0.0,5.0606,5.0106,4.9375,4.9237,4.8677,4.7966,4.7889,4.7908,4.789,4.7146,4.6416,4.5676,4.4995,4.418,4.3569,4.3915,4.4007,4.395,4.3664,4.3796,4.412,4.4638,4.526,4.6012,4.68,4.6434,4.5902,4.5902,4.5278,4.469,4.4617,4.3993,4.3497,4.3497,4.3497,4.3497,4.3497,4.3497,4.3497,4.3497,4.3497,4.3321,4.2826,4.2693,4.2162,4.1087,4.092,4.0607,4.0121,4.007,4.007,4.007,4.007,4.007,4.007,4.0003,3.9681,3.9089,3.8886,3.8481,3.7905,3.7753,3.733,5.5703,5.6456,5.7131,5.6609,5.4836,5.289,5.1703,0.0,4.7043,4.5853,4.5586,4.5757,4.6294,0.0,0.0,0.0,0.0,0.0,0.0,0.0,0.0,0.0,0.0,0.0,0.0,0.0,0.0,0.0,0.0,0.0,5.905,5.8066,5.7124,5.6244,5.5876,5.5703,5.5703,5.5703,5.5703,5.5684,5.4682,5.4124,5.3954,5.2897,5.2339,5.2184,5.1645,0.0,0.0,5.0914,5.0202,4.9413,4.9413,4.8874,4.8087,4.8087,4.8432,4.8759,4.7913,4.7645,4.7433,4.607,4.5167,4.4471,4.3892,4.3697,4.3679,4.3516,4.3921,4.4564,4.5242,4.6378,4.7424,4.7774,4.759,4.7223,4.6746,4.6379,4.5865,4.4892,4.4452,4.4066,4.3571,4.3497,4.3497,4.3497,4.3497,4.3497,4.3497,4.3497,4.316,4.2244,4.2162,4.181,4.0949,4.0625,4.0336,4.0121,4.007,4.007,4.007,4.007,4.007,4.007,4.007,3.9935,3.9648,3.9208,3.8853,3.8548,3.8108,3.7499,5.5275,5.6415,5.7382,5.678,5.4715,5.2579,0.0,0.0,4.6641,4.5776,4.5815,4.6161,4.6775,4.7775,0.0,0.0,0.0,0.0,0.0,0.0,0.0,0.0,0.0,0.0,0.0,0.0,0.0,0.0,0.0,0.0,5.9565,5.8389,5.7236,5.6128,5.5818,5.5703,5.5703,5.5703,5.5703,5.5684,5.4487,5.4143,5.4474,5.3223,5.2857,5.3147,5.2279,0.0,0.0,5.1029,5.0337,4.9779,4.9779,4.9413,4.8856,4.8856,4.9087,4.9278,4.841,4.8277,4.8241,4.6678,4.5781,4.5115,4.4147,4.3681,4.3497,4.3497,4.4251,4.5169,4.5755,4.7094,4.8306,4.8306,4.8306,4.8141,4.759,4.7297,4.6783,4.5645,4.5223,4.4874,4.4305,4.4011,4.3846,4.3846,4.3644,4.3497,4.3497,4.3375,4.2865,4.1877,4.1621,4.1313,4.0703,4.0336,4.007,4.007,4.007,4.007,4.007,4.007,4.007,4.007,4.007,4.007,4.007,3.9563,3.9326,3.9292,3.8785,3.8046,5.4277,5.5116,5.572,5.5704,5.379,5.1705,0.0,0.0,4.6641,4.5776,4.6294,4.6889,4.6908,4.8259,4.9375,0.0,0.0,0.0,0.0,0.0,0.0,0.0,0.0,0.0,0.0,0.0,0.0,0.0,0.0,0.0,5.9565,5.9473,5.8729,5.7035,5.6148,5.5703,5.5703,5.5703,5.5703,5.5703,5.5684,5.5264,5.4516,5.4493,5.4007,5.3138,0.0,0.0,0.0,5.1029,5.0683,5.0683,5.0683,5.0683,5.0664,5.0664,5.0124,4.9292,4.8393,4.7894,4.7414,4.6204,4.5589,4.5238,4.481,4.4121,4.3497,4.3497,4.4635,4.5883,4.5902,4.7095,4.8306,4.8306,4.8306,4.8306,4.8306,4.7682,4.7113,4.7095,4.6434,4.5883,4.5883,4.5223,4.469,4.469,4.4011,4.3497,4.3497,4.3014,4.248,4.1853,4.1268,4.0703,4.0171,4.0121,4.007,4.007,4.007,4.007,4.007,4.007,4.007,4.007,4.007,4.007,4.007,4.007,4.007,4.007,4.0054,3.9328,5.2644,5.3781,5.459,5.3407,5.165,5.0117,4.9873,0.0,4.593,4.5643,4.6294,4.6892,4.6896,4.8279,4.9606,0.0,0.0,0.0,0.0,0.0,0.0,0.0,0.0,0.0,0.0,0.0,0.0,0.0,0.0,0.0,5.9565,5.9508,5.9011,5.7915,5.7033,5.659,5.659,5.6013,5.5703,5.5684,5.5124,5.503,5.5283,5.4143,5.3774,0.0,0.0,0.0,0.0,5.1029,5.0702,5.0702,5.0702,5.0702,5.0702,5.0702,5.0529,5.0163,4.9298,4.9298,4.9432,4.7619,4.7378,4.7446,4.5643,4.4358,4.3718,4.4819,4.5498,4.614,4.726,4.7921,4.8306,4.8306,4.8306,4.8306,4.8306,4.8104,4.7774,4.7223,4.6911,4.6379,4.5278,4.4874,4.4525,4.3956,4.3644,4.3497,4.3497,4.3014,4.248,4.1853,4.1268,4.0703,4.0171,4.007,4.007,4.007,4.007,4.007,4.007,4.007,4.007,4.007,4.007,4.007,4.007,4.007,4.007,4.0054,3.8989,3.8015,0.0,5.1992,5.282,5.1722,5.0182,0.0,0.0,0.0,4.5586,4.5586,4.6294,4.6912,4.6897,4.826,4.9586,0.0,0.0,0.0,0.0,0.0,0.0,0.0,0.0,0.0,0.0,0.0,0.0,0.0,0.0,0.0,6.0008,5.9988,5.9604,5.8781,5.7607,5.684,5.6513,5.5974,5.5703,5.5684,5.5182,5.5201,5.5665,5.4624,5.4259,0.0,0.0,0.0,0.0,5.1029,5.0702,5.0702,5.0702,5.0702,5.0702,5.0702,5.0491,5.0144,4.9586,4.976,4.9971,4.8528,4.8232,4.8115,4.6289,4.4934,4.4213,4.5535,4.6122,4.6581,4.759,4.8086,4.8306,4.8306,4.8306,4.8306,4.8306,4.8306,4.8159,4.7664,4.7572,4.7241,4.6232,4.5553,4.4984,4.447,4.3883,4.3497,4.3497,4.2828,4.2221,4.1853,4.1059,4.0449,4.0121,4.007,4.007,4.007,4.007,4.007,4.007,4.007,4.007,4.007,4.007,4.007,4.007,4.007,4.007,4.007,3.8797,3.7965,0.0,4.9757,0.0,0.0,0.0,0.0,0.0,0.0,0.0,4.5586,4.6294,4.6892,4.6916,4.8259,4.9428,0.0,0.0,0.0,0.0,0.0,0.0,0.0,0.0,0.0,0.0,0.0,0.0,0.0,0.0,0.0,6.08,6.08,6.0377,5.9435,5.7912,5.6681,5.5799,5.5722,5.5703,5.5703,5.5703,5.5703,5.5703,5.5645,5.5168,0.0,0.0,0.0,0.0,5.101,5.0702,5.0702,5.0702,5.0702,5.0702,5.0702,5.0202,4.949,4.949,4.949,4.9433,4.9022,4.8352,4.762,4.6898,4.579,4.4966,4.5755,4.6526,4.7131,4.7186,4.7755,4.8306,4.8306,4.8306,4.8306,4.8306,4.8306,4.8306,4.8306,4.8306,4.8288,4.8233,4.6929,4.5883,4.581,4.4488,4.3497,4.3497,4.2523,4.181,4.181,4.0767,4.007,4.007,4.007,4.007,4.007,4.007,4.007,4.007,4.007,4.007,4.007,4.007,4.007,4.007,4.007,4.007,4.007,3.9262,3.8854,4.6374,0.0,4.7643,4.6968,4.6487,4.618,0.0,0.0,0.0,0.0,0.0,4.6891,4.6912,4.8274,4.9621,0.0,0.0,0.0,0.0,0.0,0.0,0.0,0.0,0.0,0.0,0.0,0.0,0.0,0.0,6.08,6.08,6.08,6.0127,5.8623,5.82,5.7585,5.6701,5.603,5.5703,5.5703,5.5703,5.5703,5.5684,5.5047,5.4316,0.0,0.0,0.0,5.0972,5.0779,5.0702,5.0702,5.0702,5.0702,5.0702,5.0702,5.0567,5.0394,5.0394,5.0394,5.0336,4.992,4.9034,4.8179,4.8287,4.7067,4.5792,4.6599,4.6966,4.726,4.7865,4.8159,4.8306,4.8306,4.8306,4.8306,4.8306,4.8306,4.8306,4.8306,4.8306,4.8104,4.7498,4.6562,4.5681,4.5076,4.414,4.3497,4.3497,4.2523,4.181,4.181,4.0767,4.007,4.007,4.007,4.007,4.007,4.007,4.007,4.007,4.007,4.007,4.007,4.007,4.007,4.007,4.007,4.007,4.007,3.9262,3.858,4.5586,4.5951,4.6183,4.572,4.5586,4.5586,0.0,0.0,0.0,0.0,0.0,0.0,4.6313,0.0,0.0,0.0,0.0,0.0,0.0,0.0,0.0,0.0,0.0,0.0,0.0,0.0,0.0,0.0,0.0,6.08,6.08,6.08,6.005,5.835,5.8293,5.77,5.6412,5.5953,5.5703,5.5703,5.5703,5.5703,5.5684,5.5261,5.4605,0.0,0.0,0.0,5.1819,5.1414,5.1241,5.1203,5.0856,5.0702,5.0702,5.0702,5.0702,5.0702,5.0702,5.0702,5.0643,5.0217,4.9535,4.8861,4.888,4.8011,4.7095,4.7535,4.7664,4.7755,4.8196,4.8306,4.8306,4.8306,4.8306,4.8306,4.8306,4.8306,4.8306,4.8306,4.8306,4.8159,4.7737,4.6985,4.6195,4.5369,4.4874,4.4323,4.3589,4.2829,4.22,4.1846,4.0767,4.007,4.007,4.007,4.007,4.007,4.007,4.007,4.007,4.007,4.007,4.007,4.007,4.007,4.007,4.007,4.007,4.007,3.9262,3.8525,4.5586,4.5699,4.5776,4.5624,4.5586,4.5586,4.5586,0.0,0.0,0.0,0.0,0.0,0.0,0.0,0.0,0.0,0.0,0.0,0.0,0.0,0.0,0.0,0.0,0.0,0.0,0.0,0.0,0.0,0.0,6.08,6.08,6.0666,5.9892,5.8346,5.8154,5.7313,5.5722,5.5703,5.5703,5.5703,5.5703,5.5703,5.5703,5.5703,5.5261,5.4509,0.0,0.0,5.3147,5.2396,5.203,5.1838,5.1145,5.0818,5.0702,5.0702,5.0702,5.0702,5.0702,5.0663,5.0542,5.0144,4.9749,4.9326,4.893,4.8568,4.8306,4.8306,4.8306,4.8306,4.8306,4.8306,4.8306,4.8306,4.8306,4.8306,4.8306,4.8306,4.8306,4.8306,4.8306,4.8306,4.8306,4.7645,4.6874,4.6195,4.5865,4.5223,4.3846,4.3268,4.2665,4.1864,4.0844,4.0204,4.0121,4.007,4.007,4.007,4.007,4.007,4.007,4.007,4.007,4.007,4.007,4.007,4.007,4.007,4.007,4.007,3.9262,3.8525,4.5586,4.6142,4.6525,4.5776,4.5586,4.5586,4.5586,0.0,0.0,0.0,0.0,0.0,0.0,0.0,0.0,0.0,0.0,0.0,0.0,0.0,0.0,0.0,0.0,0.0,0.0,0.0,0.0,0.0,0.0,6.08,6.08,6.0104,5.9273,5.8327,5.7588,5.6725,5.5703,5.5703,5.5703,5.5703,5.5703,5.5703,5.5703,5.5703,5.5261,5.4487,0.0,5.4009,5.32,5.3044,5.2567,5.1896,5.1761,5.1299,5.0702,5.0702,5.0702,5.0702,5.0702,5.0498,5.0139,4.9714,4.9305,4.893,4.8513,4.8326,4.8306,4.8306,4.8306,4.8306,4.8306,4.8306,4.8306,4.8306,4.8306,4.8306,4.8306,4.8306,4.8306,4.8306,4.8306,4.8306,4.8306,4.7645,4.7076,4.6948,4.5773,4.48,4.4562,4.3503,4.2508,4.1871,4.1178,4.0577,4.0121,4.007,4.007,4.007,4.007,4.007,4.007,4.007,4.007,4.007,4.007,4.007,4.007,4.007,4.007,4.007,3.9262,3.8525,4.5586,4.5892,4.6086,4.5705,4.5953,4.618,4.5719,0.0,0.0,0.0,0.0,0.0,0.0,0.0,0.0,0.0,0.0,0.0,0.0,0.0,0.0,0.0,0.0,0.0,0.0,0.0,0.0,0.0,0.0,0.0,6.08,6.0435,5.9627,5.8341,5.7901,5.7054,5.5703,5.5703,5.5703,5.5703,5.5703,5.5703,5.5703,5.5703,5.5511,5.5143,0.0,5.4912,5.4507,5.4084,5.3395,5.255,5.2069,5.1395,5.0702,5.0702,5.0702,5.0664,5.0452,5.0235,4.9992,4.9382,4.9048,4.8803,4.844,4.8306,4.8306,4.8306,4.8306,4.8306,4.8306,4.8306,4.8306,4.8306,4.8306,4.8196,4.7755,4.7994,4.8177,4.7755,4.8012,4.8306,4.8306,4.7994,4.7609,4.7186,4.6856,4.6177,4.4874,4.4305,4.3454,4.1941,4.1268,4.0703,4.0171,4.007,4.007,4.007,4.007,4.007,4.007,4.007,4.007,4.007,4.007,4.007,4.007,4.007,4.007,4.007,3.9262,3.8525,4.5586,4.5757,4.5855,4.5649,0.0,4.6467,4.6007,0.0,0.0,0.0,0.0,0.0,0.0,0.0,0.0,0.0,0.0,0.0,0.0,0.0,0.0,0.0,0.0,0.0,0.0,0.0,0.0,0.0,0.0,0.0,6.0512,6.0339,5.9531,5.8055,5.7786,5.7054,5.5703,5.5703,5.5703,5.5703,5.5703,5.5703,5.5703,5.5703,5.5703,5.5703,5.5703,5.5703,5.5645,5.5028,5.4164,5.3128,5.2472,5.1607,5.0702,5.0702,5.0656,5.0522,5.0217,4.9983,4.9714,4.908,4.8844,4.8683,4.8402,4.8306,4.8306,4.8306,4.8306,4.8306,4.8306,4.8306,4.8306,4.8306,4.8159,4.7865,4.7241,4.759,4.7847,4.7241,4.7755,4.8306,4.8306,4.8306,4.8104,4.748,4.7755,4.7297,4.5241,4.502,4.4169,4.2037,4.1402,4.0844,4.0171,4.007,4.007,4.007,4.007,4.007,4.007,4.007,4.007,4.007,4.007,4.007,4.007,4.007,4.002,3.9782,3.9032,3.8246,4.5586,4.618,4.6602,4.5797,4.5643,0.0,4.6641,0.0,0.0,0.0,0.0,0.0,0.0,0.0,0.0,0.0,0.0,0.0,0.0,0.0,0.0,0.0,0.0,0.0,0.0,0.0,0.0,0.0,0.0,0.0,5.9642,5.8908,5.8058,5.7132,5.6316,5.5818,5.5703,5.5703,5.5703,5.5703,5.5703,5.5703,5.5703,5.5703,5.5703,5.5703,5.5703,5.5703,5.5703,5.5645,5.4662,5.3198,5.314,5.2123,5.0702,5.0702,5.0464,5.0121,5.0102,4.9621,4.8993,4.8917,4.8658,4.8326,4.8306,4.8306,4.8306,4.8306,4.8306,4.8306,4.8306,4.8306,4.8306,4.8306,4.7737,4.7186,4.7131,4.713,4.7186,4.7131,4.7755,4.8306,4.8306,4.8306,4.8288,4.8233,4.7645,4.6856,4.5938,4.5187,4.3996,4.2026,4.175,4.1286,4.0204,4.007,4.007,4.007,4.007,4.007,4.007,4.007,4.007,4.007,4.007,4.007,4.007,4.007,3.9731,3.8978,3.8189,3.744,4.4934,4.5432,4.6007,4.568,0.0,0.0,0.0,0.0,0.0,0.0,0.0,0.0,0.0,0.0,0.0,0.0,0.0,0.0,0.0,0.0,0.0,0.0,0.0,0.0,0.0,0.0,0.0,0.0,0.0,0.0,5.9504,5.8742,5.7918,5.7027,5.6686,5.6244,5.5703,5.5703,5.5703,5.5703,5.5703,5.5703,5.5703,5.5703,5.5703,5.5703,5.5703,5.5703,5.5665,5.5143,5.4257,5.3102,5.2046,5.1259,5.0661,5.044,5.0235,5.0024,4.9544,4.9136,4.8879,4.862,4.8416,4.8306,4.8306,4.8306,4.8306,4.8306,4.8306,4.8306,4.8306,4.8306,4.8306,4.8306,4.77,4.6966,4.6471,4.6361,4.6361,4.6361,4.7003,4.7719,4.8214,4.8306,4.8306,4.8306,4.8049,4.7572,4.6764,4.6397,4.5253,4.2814,4.1475,4.0563,4.0121,4.007,4.007,4.007,4.007,4.007,4.007,4.007,4.007,4.007,4.007,4.007,4.007,4.007,3.9679,3.8854,3.8133,3.7397,4.4816,4.5163,4.5586,0.0,0.0,0.0,0.0,0.0,0.0,0.0,0.0,0.0,0.0,0.0,0.0,0.0,0.0,0.0,0.0,0.0,0.0,0.0,0.0,0.0,0.0,0.0,0.0,0.0,0.0,0.0,0.0,5.8344,5.7499,5.6609,5.659,5.6302,5.5703,5.5703,5.5703,5.5703,5.5703,5.5703,5.5703,5.5703,5.5703,5.5684,5.5434,5.5318,5.5261,5.443,5.3584,5.2642,5.126,5.0606,5.0485,5.0191,4.995,4.9654,4.9081,4.8803,4.8675,4.8379,4.8306,4.8306,4.8306,4.8306,4.8306,4.8306,4.8306,4.8306,4.8306,4.8306,4.8251,4.7994,4.7315,4.6507,4.57,4.5516,4.5608,4.5847,4.6562,4.737,4.8159,4.8306,4.8306,4.8306,4.8306,4.8012,4.7223,4.7113,4.6036,4.3276,4.1695,4.0595,4.0121,4.029,4.0341,4.0087,4.007,4.007,4.007,4.007,4.007,4.007,4.007,4.007,4.007,3.985,3.9315,3.8525,3.779,3.698,4.537,4.5586,0.0,0.0,0.0,0.0,0.0,0.0,0.0,0.0,0.0,0.0,0.0,0.0,0.0,0.0,0.0,0.0,0.0,0.0,0.0,0.0,0.0,0.0,0.0,0.0,0.0,0.0,0.0,0.0,0.0,5.7461,5.659,5.5722,5.5703,5.5703,5.5703,5.5703,5.5703,5.5703,5.5703,5.5703,5.5703,5.5703,5.5703,5.5645,5.4855,5.4487,5.441,5.3543,5.2682,5.1819,5.101,5.0452,5.0099,5.0098,4.9599,4.8915,4.8915,4.8638,4.8306,4.8306,4.8306,4.8306,4.8306,4.8306,4.8306,4.8306,4.8306,4.8306,4.8306,4.8306,4.8104,4.7297,4.6489,4.5681,4.4874,4.4709,4.4947,4.5736,4.6544,4.737,4.8159,4.8306,4.8306,4.8306,4.8306,4.8012,4.7223,4.7075,4.6054,4.3312,4.261,4.1694,4.0256,4.0764,4.0882,4.0121,4.007,4.007,4.007,4.007,4.007,4.007,4.007,4.007,4.007,3.9315,3.8525,3.7764,3.6964,3.6228,4.478,0.0,0.0,0.0,0.0,0.0,0.0,0.0,0.0,0.0,0.0,0.0,0.0,0.0,0.0,0.0,0.0,0.0,0.0,0.0,0.0,0.0,0.0,0.0,0.0,0.0,0.0,0.0,0.0,0.0,0.0,5.6549,5.5974,5.5703,5.5703,5.5703,5.5703,5.5703,5.5703,5.5703,5.5703,5.5703,5.5703,5.5703,5.5395,5.4836,5.4605,5.4145,5.3512,5.2646,5.1799,5.1029,5.0779,5.0452,5.0061,4.9784,4.9358,4.8879,4.8583,4.8398,4.8306,4.8306,4.8306,4.8306,4.8306,4.8306,4.8306,4.8306,4.8306,4.8306,4.8306,4.7884,4.7407,4.7186,4.6489,4.5681,4.4874,4.4268,4.425,4.5626,4.6085,4.6691,4.8067,4.8306,4.8306,4.8306,4.8306,4.8214,4.7976,4.7117,4.6214,4.542,4.3483,4.2046,4.1598,4.0864,4.0307,4.0087,4.007,4.007,4.007,4.007,4.007,4.007,4.007,4.007,4.007,3.9315,3.8525,3.7764,3.6964,3.6228,4.4876,0.0,0.0,0.0,0.0,0.0,0.0,0.0,0.0,0.0,0.0,0.0,0.0,0.0,0.0,0.0,0.0,0.0,0.0,0.0,0.0,0.0,0.0,0.0,0.0,0.0,0.0,0.0,0.0,0.0,0.0,5.6184,5.5703,5.5703,5.5703,5.5703,5.5703,5.5703,5.5703,5.5703,5.5395,5.5201,5.5201,5.5201,5.4778,5.3968,5.3624,5.2992,5.2184,5.1645,5.1145,5.0683,5.051,5.0221,4.9812,4.9415,4.9007,4.8638,4.8379,4.8306,4.8306,4.8306,4.8306,4.8306,4.8306,4.8306,4.8306,4.8306,4.8306,4.8306,4.8306,4.7719,4.704,4.6709,4.6012,4.5204,4.4397,4.4085,4.436,4.5645,4.6159,4.6801,4.8086,4.8306,4.8306,4.8306,4.8306,4.8306,4.8306,4.7397,4.6615,4.6308,4.4839,4.3423,4.2298,4.1705,4.1033,4.0155,4.007,4.007,4.007,4.007,4.007,4.007,4.007,4.007,4.007,3.8995,3.8246,3.7764,3.6692,3.5943,0.0,0.0,0.0,0.0,0.0,0.0,0.0,0.0,0.0,0.0,0.0,0.0,0.0,0.0,0.0,0.0,0.0,0.0,0.0,0.0,0.0,0.0,0.0,0.0,0.0,0.0,0.0,0.0,0.0,0.0,0.0,5.6126,5.5703,5.5703,5.5703,5.5703,5.5703,5.5703,5.5665,5.5588,5.4855,5.441,5.4276,5.4353,5.3911,5.3025,5.2184,5.1376,5.0702,5.0702,5.0702,5.0664,5.026,4.9854,4.9449,4.9033,4.8656,4.8306,4.8306,4.8306,4.8306,4.8306,4.8306,4.8306,4.8306,4.8306,4.8306,4.8306,4.8251,4.8214,4.8288,4.7609,4.6728,4.6067,4.5351,4.4599,4.3773,4.4232,4.5057,4.5847,4.6544,4.7278,4.8159,4.8251,4.8233,4.8306,4.8306,4.8306,4.8306,4.7797,4.7217,4.6553,4.6427,4.5335,4.2688,4.2923,4.2322,4.0307,4.0121,4.007,4.007,4.007,4.007,4.007,4.007,4.007,4.0087,3.8541,3.7822,3.7748,3.6196,3.5504,0.0,0.0,0.0,0.0,0.0,0.0,0.0,0.0,0.0,0.0,0.0,0.0,0.0,0.0,0.0,0.0,0.0,0.0,0.0,0.0,0.0,0.0,0.0,0.0,0.0,0.0,0.0,0.0,0.0,0.0,5.5972,5.5799,5.5703,5.5703,5.5703,5.5703,5.5703,5.5703,5.5395,0.0,5.4586,5.3774,5.2464,5.3157,5.2988,5.2126,5.1318,5.0875,5.0702,5.0702,5.0702,5.0664,5.026,4.9848,4.9461,4.9048,4.8656,4.8306,4.8306,4.8306,4.8306,4.8306,4.8306,4.8306,4.8306,4.8306,4.8306,4.8306,4.7865,4.7517,4.8141,4.6783,4.5333,4.5792,4.5773,4.5424,4.4617,4.5076,4.5883,4.6709,4.6471,4.6617,4.8049,4.7792,4.759,4.8214,4.8306,4.8306,4.8306,4.8172,4.8059,4.7895,4.692,4.5845,4.4728,4.3249,4.2012,4.1035,4.0409,4.007,4.007,4.007,4.007,4.007,4.007,4.007,4.0087,3.8541,3.7822,3.7748,3.6196,3.5504,0.0,0.0,0.0,0.0,0.0,0.0,0.0,0.0,0.0,0.0,0.0,0.0,0.0,0.0,0.0,0.0,0.0,0.0,0.0,0.0,0.0,0.0,0.0,0.0,0.0,0.0,0.0,0.0,0.0,5.5703,5.5703,5.5703,5.5703,5.5703,5.5703,5.5703,5.5703,5.5318,5.4912,5.4487,5.3664,5.2567,5.1334,5.1797,5.1759,5.1299,5.0895,5.0702,5.0702,5.0702,5.0702,5.0644,5.0048,4.9662,4.9413,4.8822,4.8471,4.8306,4.8306,4.8306,4.8306,4.8306,4.8306,4.8306,4.8306,4.8306,4.8306,4.8306,4.8012,4.7774,4.8196,4.6801,4.5388,4.5792,4.5314,4.4727,4.4727,4.5039,4.5571,4.6379,4.6507,4.6746,4.759,4.7388,4.7166,4.7317,4.7004,4.6652,4.6372,4.6657,4.6993,4.7292,4.6747,4.5909,4.4857,4.3518,4.2115,4.0764,4.029,4.007,4.007,4.007,4.007,4.007,4.007,3.9901,3.9542,3.8374,3.7573,3.7219,3.6022,3.5504,0.0,0.0,0.0,0.0,0.0,0.0,0.0,0.0,0.0,0.0,0.0,0.0,0.0,0.0,0.0,0.0,0.0,0.0,0.0,0.0,0.0,0.0,0.0,0.0,0.0,0.0,0.0,0.0,0.0,5.5626,5.5491,5.5491,5.5415,5.5261,5.5261,5.528,5.528,5.4624,5.4199,5.4028,5.2453,5.1337,5.0702,5.0702,5.0702,5.0702,5.0702,5.0702,5.0702,5.0702,5.0664,5.051,4.9798,4.9454,4.9321,4.8583,4.8306,4.8306,4.8306,4.8306,4.8306,4.8306,4.8306,4.8306,4.8306,4.8306,4.8306,4.8306,4.8104,4.7957,4.8233,4.6893,4.5553,4.5828,4.4672,4.3718,4.4544,4.4819,4.5112,4.5773,4.6562,4.702,4.6798,4.6852,4.6825,4.6392,4.5534,4.4809,4.4441,4.4794,4.5339,4.5888,4.5989,4.5464,4.4145,4.3488,4.2287,4.0392,4.0155,4.007,4.007,4.007,4.007,4.007,4.007,3.9714,3.8908,3.8133,3.7397,3.6615,3.5831,3.5504,0.0,0.0,0.0,0.0,0.0,0.0,0.0,0.0,0.0,0.0,0.0,0.0,0.0,0.0,0.0,0.0,0.0,0.0,0.0,0.0,0.0,0.0,0.0,0.0,0.0,0.0,0.0,0.0,5.5703,5.5395,5.4705,5.4666,5.432,5.3568,5.353,5.3528,5.3524,5.3428,5.2988,5.2242,5.1299,5.0818,5.0702,5.0702,5.0702,5.0702,5.0702,5.0702,5.0702,5.0702,5.0491,5.0125,4.9683,4.9303,4.8934,4.8453,4.8306,4.8306,4.8306,4.8306,4.8306,4.8306,4.8306,4.8306,4.8306,4.8306,4.8306,4.8306,4.7297,4.6544,4.7939,4.6067,4.4158,4.5571,4.4672,4.3718,4.4544,4.5259,4.5773,4.5883,4.6562,4.6724,4.5472,4.5902,4.6404,4.6415,4.5231,4.4538,4.506,4.4653,4.4361,4.4449,4.4512,4.4205,4.3485,4.2749,4.196,4.112,4.0443,4.007,4.007,4.007,4.007,4.007,4.007,3.9714,3.8908,3.8133,3.7397,3.6615,3.5831,3.5504,0.0,0.0,0.0,0.0,0.0,0.0,0.0,0.0,0.0,0.0,0.0,0.0,0.0,0.0,0.0,0.0,0.0,0.0,0.0,0.0,0.0,0.0,0.0,0.0,0.0,0.0,0.0,0.0,5.43,5.4147,5.3799,5.3781,5.3609,5.3205,5.3205,5.3205,5.3204,5.2722,5.2049,5.1222,5.0875,5.0702,5.0702,5.0702,5.0702,5.0702,5.0702,5.0702,5.0702,5.0702,5.0452,5.0046,4.9662,4.9262,4.8822,4.8434,4.8306,4.8306,4.8306,4.8306,4.8306,4.8306,4.8306,4.8306,4.8306,4.8306,4.8214,4.7755,4.7443,4.7205,4.7003,4.5902,4.4911,4.5168,4.4342,4.3589,4.3956,4.4305,4.4819,4.5718,4.5935,4.6085,4.6308,4.5616,4.5134,4.5242,4.434,4.3602,4.3608,4.3696,4.3742,4.3693,4.3736,4.3469,4.2736,4.2049,4.1358,4.0646,4.0257,4.007,4.007,4.007,4.007,4.007,4.007,3.9506,3.8302,3.7978,3.7175,3.6006,3.5668,3.5504,0.0,0.0,0.0,0.0,0.0,0.0,0.0,0.0,0.0,0.0,0.0,0.0,0.0,0.0,0.0,0.0,0.0,0.0,0.0,0.0,0.0,0.0,0.0,0.0,0.0,0.0,0.0,0.0,5.3204,5.3107,5.2874,5.2856,5.2781,5.257,5.255,5.255,5.255,5.1915,5.1279,5.0702,5.0702,5.0567,5.0375,5.0587,5.0567,5.0375,5.0587,5.0702,5.0683,5.0587,5.0317,4.9909,4.9486,4.9099,4.8712,4.8398,4.8159,4.8032,4.8233,4.8031,4.7737,4.8177,4.8159,4.8031,4.8251,4.8306,4.8141,4.7352,4.7388,4.7462,4.6471,4.5755,4.5241,4.5057,4.4232,4.3497,4.3497,4.3521,4.3944,4.515,4.5218,4.5419,4.6427,4.5123,4.3933,4.4095,4.3321,4.2603,4.2306,4.2777,4.3042,4.2804,4.2807,4.2515,4.1719,4.1205,4.0679,4.0104,4.007,4.007,4.007,4.007,4.007,4.007,4.007,3.9454,3.8092,3.7863,3.7115,3.5782,3.5554,3.5504,0.0,0.0,0.0,0.0,0.0,0.0,0.0,0.0,0.0,0.0,0.0,0.0,0.0,0.0,0.0,0.0,0.0,0.0,0.0,0.0,0.0,0.0,0.0,0.0,0.0,0.0,0.0,0.0,5.3204,5.2837,5.201,5.1972,5.1625,5.0856,5.0837,5.0837,5.0837,5.0779,5.0741,5.0702,5.0702,5.0279,4.949,5.0317,5.026,4.9509,5.0337,5.0702,5.0664,5.0298,4.9894,4.9486,4.9079,4.8693,4.8324,4.8324,4.7812,4.7261,4.805,4.7297,4.6268,4.7792,4.7792,4.7315,4.8086,4.8306,4.8141,4.7352,4.6581,4.6177,4.6874,4.5351,4.3993,4.548,4.4635,4.3497,4.3497,4.3632,4.383,4.3902,4.4614,4.5041,4.457,4.3828,4.337,4.3447,4.2238,4.156,4.2202,4.232,4.2066,4.1391,4.1288,4.1001,4.0239,4.0189,4.0121,4.007,4.007,4.007,4.007,4.007,4.007,4.007,4.007,3.9679,3.8854,3.8133,3.7397,3.6554,3.5846,3.5504,0.0,0.0,0.0,0.0,0.0,0.0,0.0,0.0,0.0,0.0,0.0,0.0,0.0,0.0,0.0,0.0,0.0,0.0,0.0,0.0,0.0,0.0,0.0,0.0,0.0,0.0,0.0,0.0,0.0,5.1221,5.0337,5.0298,4.9913,4.9067,4.9567,4.9875,4.9875,4.9317,4.9029,4.9029,4.9029,4.8856,4.8606,4.947,4.9393,4.8606,4.949,5.0048,5.0221,4.901,4.8724,4.907,4.8384,4.8214,4.8233,4.7739,4.7353,4.7089,4.6836,4.6378,4.5975,4.6561,4.6544,4.6397,4.6691,4.6765,4.6709,4.6416,4.6507,4.6636,4.6397,4.6085,4.5755,4.5397,4.4883,4.4331,4.3894,4.4623,4.5222,4.4803,4.4706,4.4631,4.4418,4.3408,4.2841,4.3301,4.2963,4.2895,4.3656,4.3758,4.3284,4.2033,4.1914,4.1407,4.0172,4.007,4.007,4.007,4.007,4.007,4.007,4.007,4.007,4.007,4.007,3.9714,3.8908,3.8133,3.7397,3.6615,3.5831,3.5504,0.0,0.0,0.0,0.0,0.0,0.0,0.0,0.0,0.0,0.0,0.0,0.0,0.0,0.0,0.0,0.0,0.0,0.0,0.0,0.0,0.0,0.0,0.0,0.0,0.0,0.0,0.0,0.0,0.0,0.0,4.9452,4.9394,4.899,4.8125,4.8663,4.8952,4.8952,4.8394,4.8106,4.8106,4.8106,4.7971,4.7722,4.8582,4.8488,4.7703,4.818,4.87,4.9164,4.7905,4.7665,4.8034,4.7349,4.7274,4.7441,4.6875,4.6523,4.6258,4.5987,4.555,4.5185,4.5714,4.5733,4.5551,4.5827,4.6085,4.625,4.5975,4.6489,4.7003,4.6452,4.6541,4.6512,4.5301,4.5036,4.49,4.4243,4.488,4.5435,4.5,4.4659,4.4475,4.4475,4.3454,4.2844,4.3352,4.342,4.3606,4.413,4.4418,4.3995,4.2455,4.2286,4.1694,4.0206,4.007,4.007,4.007,4.007,4.007,4.007,4.007,4.007,4.007,4.007,3.9833,3.9315,3.8318,3.7515,3.698,3.5958,3.5504,0.0,0.0,0.0,0.0,0.0,0.0,0.0,0.0,0.0,0.0,0.0,0.0,0.0,0.0,0.0,0.0,0.0,0.0,0.0,0.0,0.0,0.0,0.0,0.0,0.0,0.0,0.0,0.0,5.0125,5.024,4.9375,4.9298,4.8913,4.8086,4.8048,4.8048,4.8067,4.8047,4.8046,4.8026,4.8025,4.7619,4.6889,4.7696,4.7622,4.6839,4.6445,4.6752,4.7473,4.7076,4.6728,4.6461,4.6029,4.5897,4.5897,4.5865,4.5368,4.4812,4.5571,4.48,4.3754,4.5314,4.5296,4.4819,4.559,4.6379,4.6856,4.6104,4.6471,4.7095,4.7094,4.671,4.6008,4.5233,4.5088,4.5029,4.4453,4.4318,4.425,4.4267,4.4465,4.457,4.4553,4.3927,4.342,4.342,4.342,4.342,4.3453,4.4113,4.3995,4.2472,4.2303,4.1694,4.024,4.0087,4.007,4.007,4.007,4.007,4.007,4.007,4.007,4.007,4.007,4.007,4.0087,3.8541,3.7822,3.7748,3.6196,3.5504,4.3984,0.0,0.0,0.0,0.0,0.0,0.0,0.0,0.0,0.0,0.0,0.0,0.0,0.0,0.0,0.0,0.0,0.0,0.0,0.0,0.0,0.0,0.0,0.0,0.0,0.0,0.0,0.0,4.8356,4.8452,4.7645,4.6991,4.6836,4.7221,4.6624,4.6586,4.724,4.6605,4.6296,4.6296,4.6277,4.618,4.5988,4.6833,4.6627,4.5618,4.6098,4.581,4.4995,4.4878,4.5328,4.6002,4.5311,4.5386,4.5843,4.5237,4.4904,4.4646,4.4285,4.3864,4.3552,4.4011,4.4011,4.3864,4.4085,4.4305,4.469,4.5645,4.6067,4.6507,4.7682,4.7529,4.6902,4.6167,4.5293,4.4607,4.4517,4.4065,4.3827,4.4388,4.4584,4.4401,4.3842,4.3555,4.342,4.342,4.342,4.3623,4.4181,4.4451,4.4198,4.32,4.2155,4.1343,4.0915,3.9859,3.9489,4.007,4.007,3.9833,3.9262,3.9782,3.985,3.9246,3.9782,4.007,4.007,3.9102,3.8302,3.7748,3.6196,3.5504,0.0,0.0,0.0,0.0,0.0,0.0,4.6467,4.6795,0.0,0.0,0.0,0.0,0.0,0.0,0.0,0.0,0.0,0.0,0.0,0.0,0.0,0.0,0.0,0.0,0.0,4.7334,4.7412,4.6951,4.7663,4.7741,4.6934,4.6086,4.5817,4.6336,4.5855,4.5836,4.6355,4.5855,4.5586,4.5586,4.5586,4.5586,4.5605,4.6123,4.5898,4.5109,4.5456,4.4992,4.3985,4.3873,4.4244,4.4865,4.4373,4.4499,4.4847,4.4354,4.4207,4.4118,4.366,4.3497,4.3497,4.3497,4.3497,4.3497,4.3497,4.3718,4.4268,4.5535,4.6379,4.7075,4.774,4.747,4.6819,4.6209,4.5267,4.4504,4.458,4.4215,4.4045,4.4485,4.4587,4.4434,4.3978,4.391,4.391,4.391,4.391,4.4062,4.4519,4.4299,4.3681,4.2613,4.1455,4.0486,3.983,3.8952,3.8652,3.9119,3.9119,3.8941,3.8469,3.8887,3.8941,3.8469,3.8887,3.9119,3.9119,3.8978,3.8342,3.7279,3.6085,3.5504,0.0,0.0,0.0,0.0,0.0,0.0,4.5851,4.5806,4.5776,0.0,0.0,0.0,0.0,0.0,0.0,0.0,0.0,0.0,0.0,0.0,0.0,0.0,0.0,0.0,4.6928,4.6795,4.6756,4.6756,4.7409,4.7505,4.6797,4.6009,4.5586,4.5586,4.5586,4.5586,4.5586,4.5586,4.5586,4.5586,4.5586,4.5586,4.5586,4.5568,4.5362,4.503,4.4682,4.4308,4.3924,4.3612,4.3497,4.3497,4.3497,4.3497,4.3497,4.3497,4.3497,4.3497,4.3497,4.3497,4.3497,4.3497,4.3497,4.3497,4.3497,4.4066,4.4892,4.5773,4.7131,4.8172,4.7572,4.691,4.624,4.5648,4.4984,4.4468,4.4553,4.4502,4.4468,4.4553,4.4587,4.4587,4.4587,4.4587,4.4587,4.4587,4.4587,4.4587,4.4587,4.3905,4.2881,4.1559,4.059,3.9512,3.8168,3.7849,3.777,3.7822,3.7822,3.7748,3.769,3.7748,3.7764,3.769,3.7748,3.7822,3.7822,3.8358,3.793,3.6615,3.5831,3.5504,0.0,0.0,0.0,0.0,0.0,0.0,4.5909,4.5831,4.5796,0.0,0.0,0.0,0.0,0.0,0.0,0.0,0.0,0.0,0.0,0.0,0.0,0.0,0.0,0.0,4.6949,4.6275,4.5853,4.5853,4.6007,4.6026,4.5855,4.5682,4.5586,4.5586,4.5586,4.5586,4.5586,4.5586,4.5586,4.5586,4.5586,4.5586,4.5586,4.5322,4.5011,4.4682,4.429,4.3912,4.3597,4.3513,4.3497,4.3497,4.3497,4.3497,4.3497,4.3497,4.3497,4.3497,4.3497,4.3497,4.3497,4.3497,4.3497,4.3497,4.3497,4.4066,4.5002,4.6471,4.7572,4.8172,4.7572,4.691,4.624,4.5648,4.4555,4.3809,4.4451,4.4079,4.3826,4.4451,4.4587,4.4587,4.4587,4.4587,4.4587,4.4587,4.4587,4.4587,4.4587,4.3872,4.3221,4.2894,4.102,3.9677,3.9473,3.8353,3.7681,3.7796,3.7822,3.7515,3.6843,3.7456,3.7515,3.6843,3.7456,3.7822,3.7822,3.7306,3.6888,3.6615,3.5831,3.5504,0.0,0.0,0.0,4.5664,0.0,0.0,0.0,4.5928,4.5841,4.5803,0.0,0.0,0.0,0.0,0.0,0.0,0.0,0.0,0.0,0.0,0.0,0.0,0.0,0.0,4.7544,4.6737,4.6065,4.5624,4.5586,4.5586,4.5586,4.5586,4.5586,4.5586,4.5586,4.5586,4.5586,4.5586,4.5586,4.5586,4.5419,4.5342,4.5342,4.4988,4.4657,4.429,4.4106,4.3804,4.3497,4.3497,4.3497,4.3497,4.3497,4.3497,4.3497,4.3497,4.3497,4.3497,4.3497,4.3497,4.3497,4.3497,4.3497,4.3497,4.3497,4.4342,4.548,4.6385,4.7237,4.7614,4.6682,4.6209,4.5783,4.5178,4.4507,4.4096,4.4485,4.4265,4.4113,4.4502,4.4587,4.4587,4.4587,4.4587,4.4587,4.4587,4.4587,4.444,4.4006,4.323,4.243,4.1596,4.0083,3.8908,3.8227,3.7487,3.71,3.7126,3.6847,3.6631,3.6542,3.6599,3.6477,3.6054,3.6415,3.6662,3.6662,3.6243,3.6228,3.6615,3.5831,3.5504,0.0,0.0,0.0,0.0,0.0,4.6269,0.0,0.0,0.0,4.5838,0.0,0.0,0.0,0.0,0.0,0.0,0.0,0.0,0.0,0.0,0.0,0.0,0.0,0.0,4.7873,4.7122,4.6371,4.5643,4.5586,4.5586,4.5586,4.5586,4.5586,4.5586,4.5586,4.5586,4.5586,4.5586,4.5586,4.5586,4.5265,4.5096,4.5095,4.4676,4.4299,4.4016,4.3924,4.3758,4.3497,4.3497,4.3497,4.3497,4.3497,4.3497,4.3497,4.3497,4.3497,4.3497,4.3497,4.3497,4.3497,4.3497,4.3497,4.3552,4.3864,4.4784,4.5843,4.6318,4.6812,4.6955,4.5783,4.5511,4.5372,4.472,4.4587,4.4587,4.4587,4.4587,4.4587,4.4587,4.4587,4.4587,4.4587,4.4587,4.4587,4.4587,4.4587,4.427,4.3426,4.266,4.1585,4.0068,3.9205,3.8193,3.6798,3.6776,3.6746,3.6507,3.6103,3.6058,3.6477,3.5848,3.5504,3.5504,3.5504,3.5504,3.5504,3.5504,3.5782,3.6384,3.5782,3.5504,0.0,0.0,0.0,0.0,4.6308,0.0,0.0,0.0,4.6049,4.5916,0.0,0.0,0.0,0.0,0.0,0.0,0.0,0.0,0.0,0.0,0.0,0.0,0.0,0.0,0.0,4.6242,4.5719,4.5605,4.5586,4.5586,4.5586,4.5586,4.5586,4.5586,4.5586,4.5586,4.5586,4.5586,4.5586,4.5586,4.5262,4.5099,4.5087,4.4374,4.4034,4.3967,4.3712,4.3548,4.3497,4.3497,4.3497,4.3497,4.3497,4.3497,4.3497,4.3497,4.3497,4.3497,4.3497,4.3497,4.3497,4.3497,4.3497,4.3754,4.5186,4.5364,4.5409,4.6886,4.6883,4.6336,4.5699,4.5511,4.5372,4.472,4.4587,4.4587,4.4587,4.4587,4.4587,4.4587,4.4587,4.4587,4.4587,4.4587,4.4587,4.4587,4.4587,4.427,4.3426,4.258,4.1677,4.0702,3.9808,3.8747,3.7404,3.7838,3.7689,3.6552,3.6926,3.6985,3.6507,3.5848,3.5504,3.5504,3.5504,3.5504,3.5504,3.5504,3.5554,3.5619,3.5569,3.5504,0.0,0.0,0.0,0.0,0.0,0.0,4.6308,0.0,4.6069,0.0,0.0,0.0,0.0,0.0,0.0,0.0,4.5566,0.0,0.0,0.0,0.0,0.0,0.0,0.0,0.0,0.0,0.0,0.0,4.5586,4.5586,4.5586,4.5586,4.5586,4.5586,4.5586,4.5586,4.5586,4.5586,4.549,4.5316,4.4972,4.4683,4.4438,4.3918,4.3703,4.3693,4.3563,4.3497,4.3497,4.3497,4.3497,4.3497,4.3497,4.3497,4.3497,4.3497,4.3497,4.3497,4.3497,4.3497,4.3497,4.3497,4.3269,4.3338,4.4922,4.4656,4.4064,4.5333,4.5444,4.5102,4.4456,4.4602,4.4906,4.4682,4.4587,4.4587,4.4587,4.4587,4.4587,4.4587,4.4587,4.4587,4.4587,4.4587,4.4587,4.4587,4.4196,4.3545,4.2645,4.1454,4.0442,4.0015,3.9249,3.8586,3.8018,3.8227,3.8167,3.7629,3.7479,3.6956,3.5953,3.5654,3.5504,3.5504,3.5504,3.5504,3.5504,3.5504,3.5504,3.5504,3.5504,3.5504,4.6289,0.0,0.0,0.0,0.0,0.0,0.0,0.0,0.0,0.0,0.0,0.0,0.0,0.0,0.0,0.0,0.0,4.5586,0.0,0.0,0.0,0.0,0.0,0.0,0.0,0.0,0.0,4.5586,4.5586,4.5586,4.5586,4.5586,4.5586,4.5586,4.5586,4.5586,4.5586,4.5509,4.5336,4.5087,4.4647,4.4283,4.3989,4.3652,4.3497,4.3497,4.3497,4.3497,4.3497,4.3497,4.3497,4.3497,4.3497,4.3497,4.3497,4.3497,4.3497,4.3497,4.3497,4.3497,4.3497,4.3497,4.3268,4.323,4.4579,4.4232,4.3546,4.4431,4.4578,4.4354,4.3888,4.4147,4.4587,4.4587,4.4587,4.4587,4.4587,4.4587,4.4587,4.4587,4.4587,4.4587,4.4587,4.4384,4.4253,4.4253,4.3486,4.2645,4.1739,4.0642,3.9825,3.9421,3.8975,3.8601,3.8407,3.8556,3.8676,3.8676,3.8048,3.727,3.6327,3.6133,3.5953,3.5774,3.5774,3.5684,3.5504,3.5213,3.5067,3.5067,3.5359,3.5504,0.0,0.0,0.0,4.6308,0.0,0.0,0.0,0.0,4.5208,0.0,0.0,0.0,0.0,0.0,0.0,0.0,0.0,0.0,0.0,0.0,0.0,0.0,0.0,0.0,0.0,0.0,4.5586,4.5586,4.5586,4.5586,4.5586,4.5586,4.5586,4.5586,4.5586,4.5586,4.5586,4.5278,4.5124,4.5087,4.4364,4.4021,4.3986,4.3642,4.3497,4.3497,4.3497,4.3497,4.3497,4.3497,4.3497,4.3497,4.3497,4.3497,4.3497,4.3497,4.3497,4.3497,4.3497,4.3497,4.3497,4.3497,4.3612,4.3942,4.4759,4.467,4.4454,4.5251,4.5054,4.4592,4.4536,4.4553,4.4587,4.4587,4.4587,4.4587,4.4587,4.4587,4.4587,4.4587,4.4587,4.4587,4.4587,4.3873,4.3366,4.3366,4.2583,4.1739,4.0878,4.0659,4.0347,3.9481,3.9394,3.911,3.8452,3.9005,3.9394,3.9394,3.8736,3.8347,3.8302,3.7689,3.706,3.6462,3.6447,3.6148,3.5504,3.4543,3.4027,3.4095,3.5052,3.5504,0.0,0.0,4.6308,4.6308,0.0,0.0,0.0,0.0,0.0,0.0,0.0,0.0,0.0,0.0,0.0,0.0,0.0,0.0,0.0,0.0,0.0,0.0,0.0,0.0,0.0,0.0,0.0,4.5586,4.5586,4.5586,4.5586,4.5586,4.5586,4.5586,4.5586,4.549,4.5278,4.5163,4.4853,4.4383,4.411,4.3897,4.3679,4.3534,4.3497,4.3497,4.3497,4.3497,4.3497,4.3497,4.3497,4.3497,4.3497,4.3497,4.3497,4.3497,4.3497,4.3497,4.3497,4.3497,4.3444,4.3105,4.3077,4.3258,4.3687,4.3398,4.3149,4.3917,4.3939,4.3809,4.3809,4.4198,4.4587,4.4587,4.4587,4.4587,4.4587,4.4587,4.4587,4.4587,4.4587,4.4587,4.4587,4.341,4.2645,4.3229,4.2062,4.1013,4.0758,3.9841,3.9224,3.9364,3.9005,3.8826,3.905,3.929,3.923,3.8766,3.8527,3.8197,3.7764,3.7524,3.712,3.6492,3.6492,3.5852,3.4543,3.4177,3.3671,3.3101,3.3394,3.3616,4.6249,4.6308,0.0,4.6308,4.6074,0.0,4.623,0.0,0.0,0.0,0.0,0.0,0.0,0.0,0.0,0.0,0.0,0.0,0.0,4.5586,0.0,0.0,0.0,0.0,0.0,0.0,4.5586,4.5586,4.5586,4.5586,0.0,4.5586,4.5586,4.5586,4.547,4.5316,4.5105,4.4832,4.4484,4.4007,4.3897,4.3716,4.3497,4.3497,4.3497,4.3497,4.3497,4.3497,4.3497,4.3497,4.3497,4.3497,4.3497,4.3497,4.3497,4.3497,4.3497,4.3497,4.3497,4.3375,4.3178,4.2826,4.2843,4.3023,4.3155,4.3151,4.3267,4.4012,4.4045,4.3893,4.4164,4.4401,4.4587,4.4587,4.4587,4.4587,4.4587,4.4587,4.4587,4.4587,4.4327,4.4138,4.4138,4.2691,4.1869,4.2724,4.1346,4.0255,4.0255,3.9345,3.8931,3.9364,3.902,3.8931,3.9379,3.9424,3.923,3.8781,3.8751,3.8415,3.76,3.7514,3.7166,3.6401,3.5936,3.5192,3.4129,3.3382,3.2678,3.2105,3.1756,3.1623]},{"header":{"parameterUnit":"m.s-1","parameterCategory":1,"la1":30.6,"la2":29.2853,"lo1":-89.7004,"lo2":-87.6739,"dy":0.0162,"dx":0.0183,"nx":112,"ny":82,"refTime":"2023-09-16T18:00:00:Z","depth":0,"parameterNumber":3,"parameterNumberName":"V-component_of_WINDS"},"data":[0.0,0.0,0.0,0.0,0.0,0.0,0.0,0.0,0.0,0.0,0.0,0.0,0.0,0.0,0.0,0.0,0.0,0.0,0.0,0.0,0.0,0.0,0.0,0.0,0.0,0.0,0.0,0.0,0.0,0.0,0.0,0.0,0.0,0.0,0.0,0.0,0.0,0.0,0.0,0.0,0.0,0.0,0.0,0.0,0.0,0.0,0.0,0.0,0.0,0.0,0.0,0.0,0.0,0.0,0.0,0.0,0.0,0.0,0.0,0.0,0.0,0.0,0.0,0.0,0.0,0.0,0.0,0.0,0.0,0.0,0.0,0.0,0.0,0.0,0.0,0.0,0.0,0.0,0.0,0.0,0.0,0.0,0.0,0.0,0.0,0.0,0.0,0.0,0.0,0.0,-0.9296,-0.8657,-1.0134,-1.1163,-1.0981,-1.2634,-1.3327,-1.2555,0.0,0.0,0.0,0.0,0.0,0.0,0.0,0.0,0.0,0.0,0.0,0.0,0.0,0.0,0.0,0.0,0.0,0.0,0.0,0.0,0.0,0.0,0.0,0.0,0.0,0.0,0.0,0.0,0.0,0.0,0.0,0.0,0.0,0.0,0.0,0.0,0.0,0.0,0.0,0.0,0.0,0.0,0.0,0.0,0.0,0.0,0.0,0.0,0.0,0.0,0.0,0.0,0.0,0.0,0.0,0.0,0.0,0.0,0.0,0.0,0.0,0.0,0.0,0.0,0.0,0.0,0.0,0.0,0.0,0.0,0.0,0.0,0.0,0.0,0.0,0.0,0.0,0.0,0.0,0.0,0.0,0.0,0.0,0.0,0.0,0.0,0.0,0.0,0.0,0.0,0.0,0.0,0.0,0.0,0.0,0.0,0.0,0.0,0.0,0.0,0.0,0.0,0.0,0.0,-0.9809,-0.9385,-0.9582,-1.0113,-1.079,-1.2586,-1.3113,-1.1662,0.0,0.0,0.0,0.0,0.0,0.0,0.0,0.0,0.0,0.0,0.0,0.0,0.0,0.0,0.0,0.0,0.0,0.0,0.0,0.0,0.0,0.0,0.0,0.0,0.0,0.0,0.0,0.0,0.0,0.0,0.0,0.0,0.0,0.0,0.0,0.0,0.0,0.0,0.0,0.0,0.0,0.0,0.0,0.0,0.0,0.0,0.0,0.0,0.0,0.0,0.0,0.0,0.0,0.0,0.0,0.0,0.0,0.0,0.0,0.0,0.0,0.0,0.0,0.0,0.0,0.0,0.0,0.0,0.0,0.0,0.0,0.0,0.0,0.0,0.0,0.0,0.0,0.0,0.0,0.0,0.0,0.0,0.0,0.0,0.0,0.0,0.0,0.0,0.0,0.0,0.0,0.0,0.0,0.0,0.0,0.0,0.0,0.0,0.0,0.0,0.0,0.0,0.0,-0.856,-0.8744,-0.8091,-0.8899,-0.9647,-1.0083,-1.2271,-1.3329,-1.2381,-1.2836,0.0,0.0,0.0,0.0,0.0,0.0,0.0,0.0,0.0,0.0,0.0,0.0,0.0,0.0,0.0,0.0,0.0,0.0,0.0,0.0,0.0,0.0,0.0,0.0,0.0,0.0,0.0,0.0,0.0,0.0,0.0,0.0,0.0,0.0,0.0,0.0,0.0,0.0,0.0,0.0,0.0,0.0,0.0,0.0,0.0,0.0,0.0,0.0,0.0,0.0,0.0,0.0,0.0,0.0,0.0,0.0,0.0,0.0,0.0,0.0,0.0,0.0,0.0,0.0,0.0,0.0,0.0,0.0,0.0,0.0,0.0,0.0,0.0,0.0,0.0,0.0,0.0,0.0,0.0,0.0,0.0,0.0,0.0,0.0,0.0,0.0,0.0,0.0,0.0,0.0,0.0,0.0,0.0,0.0,0.0,0.0,0.0,0.0,0.0,0.0,0.0,0.0,-0.8649,-0.7769,-0.6767,-0.8395,-0.9511,-0.9461,-1.1806,-1.3171,-1.2861,-1.2771,0.0,0.0,0.0,0.0,0.0,0.0,0.0,0.0,0.0,0.0,0.0,0.0,0.0,0.0,0.0,0.0,0.0,0.0,0.0,0.0,0.0,0.0,0.0,0.0,0.0,0.0,0.0,0.0,0.0,0.0,0.0,0.0,0.0,0.0,0.0,0.0,0.0,0.0,0.0,0.0,0.0,0.0,0.0,0.0,0.0,0.0,0.0,0.0,0.0,0.0,0.0,0.0,0.0,0.0,0.0,0.0,0.0,0.0,0.0,0.0,0.0,0.0,0.0,0.0,0.0,0.0,0.0,0.0,0.0,0.0,0.0,0.0,0.0,0.0,0.0,0.0,0.0,0.0,0.0,0.0,0.0,0.0,0.0,0.0,0.0,0.0,0.0,0.0,0.0,0.0,0.0,0.0,0.0,0.0,0.0,0.0,0.0,0.0,0.0,0.0,0.0,0.0,-0.8205,-0.7902,-0.6781,-0.8395,-0.9456,-0.9337,-1.0961,-1.2033,-1.2013,-1.1492,0.0,0.0,0.0,0.0,0.0,0.0,0.0,0.0,0.0,0.0,0.0,0.0,0.0,0.0,0.0,0.0,0.0,0.0,0.0,0.0,0.0,0.0,0.0,0.0,0.0,0.0,0.0,0.0,0.0,0.0,0.0,0.0,0.0,0.0,0.0,0.0,0.0,0.0,0.0,0.0,0.0,0.0,0.0,0.0,0.0,0.0,0.0,0.0,0.0,0.0,0.0,0.0,0.0,0.0,0.0,0.0,0.0,0.0,0.0,0.0,0.0,0.0,0.0,0.0,0.0,0.0,0.0,0.0,0.0,0.0,0.0,0.0,0.0,0.0,0.0,0.0,0.0,0.0,0.0,0.0,0.0,0.0,0.0,0.0,0.0,0.0,0.0,0.0,0.0,0.0,0.0,0.0,0.0,0.0,0.0,0.0,0.0,0.0,0.0,0.0,0.0,0.0,-0.8949,-0.8654,0.0,-0.8696,-0.9382,-0.9306,-1.1083,-1.2138,-1.2138,0.0,0.0,0.0,0.0,0.0,0.0,0.0,0.0,0.0,0.0,0.0,0.0,0.0,0.0,0.0,0.0,0.0,0.0,0.0,0.0,0.0,0.0,0.0,0.0,0.0,0.0,0.0,0.0,0.0,0.0,0.0,0.0,0.0,0.0,0.0,0.0,0.0,0.0,0.0,0.0,0.0,0.0,0.0,0.0,0.0,0.0,0.0,0.0,0.0,0.0,0.0,0.0,0.0,0.0,0.0,0.0,0.0,0.0,0.0,0.0,0.0,0.0,0.0,0.0,0.0,0.0,0.0,0.0,0.0,0.0,0.0,0.0,0.0,0.0,0.0,0.0,0.0,0.0,0.0,0.0,0.0,0.0,0.0,0.0,0.0,0.0,0.0,0.0,0.0,0.0,0.0,0.0,0.0,0.0,0.0,0.0,0.0,0.0,0.0,0.0,0.0,0.0,-0.8838,-0.9208,-0.9096,0.0,-0.87,-0.9296,-0.9296,-1.0948,-1.2104,-1.2291,0.0,0.0,0.0,0.0,0.0,0.0,0.0,0.0,0.0,0.0,0.0,0.0,0.0,0.0,0.0,0.0,0.0,0.0,0.0,0.0,0.0,0.0,0.0,0.0,0.0,0.0,0.0,0.0,0.0,0.0,0.0,0.0,0.0,0.0,0.0,0.0,0.0,0.0,0.0,0.0,0.0,0.0,0.0,0.0,0.0,0.0,0.0,0.0,0.0,0.0,0.0,0.0,0.0,0.0,0.0,0.0,0.0,0.0,0.0,0.0,0.0,0.0,0.0,0.0,0.0,0.0,0.0,0.0,0.0,0.0,0.0,0.0,0.0,0.0,0.0,0.0,0.0,0.0,0.0,0.0,0.0,0.0,0.0,0.0,0.0,0.0,0.0,0.0,0.0,0.0,0.0,0.0,0.0,0.0,0.0,0.0,0.0,0.0,0.0,0.0,0.0,0.0,-0.7022,-0.8733,-0.9304,-0.6943,-0.8234,-0.9296,-0.9296,-1.0616,-1.1683,0.0,0.0,0.0,0.0,0.0,0.0,0.0,0.0,0.0,0.0,0.0,0.0,0.0,0.0,0.0,0.0,0.0,0.0,0.0,0.0,0.0,0.0,0.0,0.0,0.0,0.0,0.0,0.0,0.0,0.0,0.0,0.0,0.0,0.0,0.0,0.0,0.0,0.0,0.0,0.0,0.0,0.0,0.0,0.0,0.0,0.0,0.0,0.0,0.0,0.0,0.0,0.0,0.0,0.0,0.0,0.0,0.0,0.0,0.0,0.0,0.0,0.0,0.0,0.0,0.0,0.0,0.0,0.0,0.0,0.0,0.0,0.0,0.0,0.0,0.0,0.0,0.0,0.0,0.0,0.0,0.0,0.0,0.0,0.0,0.0,0.0,0.0,0.0,0.0,0.0,0.0,0.0,0.0,0.0,0.0,0.0,0.0,0.0,0.0,0.0,0.0,0.0,0.0,-0.7805,-0.8181,-0.8308,-0.7805,-0.8695,-0.9296,-0.9296,-1.0785,-1.1897,-1.2278,0.0,0.0,0.0,0.0,0.0,0.0,0.0,0.0,0.0,0.0,0.0,0.0,0.0,0.0,0.0,0.0,0.0,0.0,0.0,0.0,0.0,0.0,0.0,0.0,0.0,0.0,0.0,0.0,0.0,0.0,0.0,0.0,0.0,0.0,0.0,0.0,0.0,0.0,0.0,0.0,0.0,0.0,0.0,0.0,0.0,0.0,0.0,0.0,0.0,0.0,0.0,0.0,0.0,0.0,0.0,0.0,0.0,0.0,0.0,0.0,0.0,0.0,0.0,0.0,0.0,0.0,0.0,0.0,0.0,0.0,0.0,0.0,0.0,0.0,0.0,0.0,0.0,0.0,0.0,0.0,0.0,0.0,0.0,0.0,0.0,0.0,0.0,0.0,0.0,0.0,0.0,0.0,0.0,0.0,0.0,0.0,0.0,0.0,0.0,0.0,0.0,0.0,-0.7565,-0.7803,-0.8008,-0.8119,-0.8812,-0.9448,-0.9895,-1.0978,-1.1817,-1.2111,0.0,0.0,0.0,0.0,0.0,0.0,0.0,0.0,0.0,0.0,0.0,0.0,0.0,0.0,0.0,0.0,0.0,0.0,0.0,0.0,0.0,0.0,0.0,0.0,0.0,0.0,0.0,0.0,0.0,0.0,0.0,0.0,0.0,0.0,0.0,0.0,0.0,0.0,0.0,0.0,0.0,0.0,0.0,0.0,0.0,0.0,0.0,0.0,0.0,0.0,0.0,0.0,0.0,0.0,0.0,0.0,0.0,0.0,0.0,0.0,0.0,0.0,0.0,0.0,0.0,0.0,0.0,0.0,0.0,0.0,0.0,0.0,0.0,0.0,0.0,0.0,0.0,0.0,0.0,0.0,0.0,0.0,0.0,0.0,0.0,0.0,0.0,0.0,0.0,0.0,0.0,0.0,0.0,0.0,0.0,0.0,0.0,0.0,0.0,0.0,0.0,0.0,-0.661,-0.7402,-0.7949,-0.7865,-0.8721,-0.9669,-1.0559,-1.1114,-1.155,-1.185,0.0,0.0,0.0,0.0,0.0,0.0,0.0,0.0,0.0,0.0,0.0,0.0,0.0,0.0,0.0,0.0,0.0,0.0,0.0,0.0,0.0,0.0,0.0,0.0,0.0,0.0,0.0,0.0,0.0,0.0,0.0,0.0,0.0,0.0,0.0,0.0,0.0,0.0,0.0,0.0,0.0,0.0,0.0,0.0,0.0,0.0,0.0,0.0,0.0,0.0,0.0,0.0,0.0,0.0,0.0,0.0,0.0,0.0,0.0,0.0,-0.718,0.0,0.0,0.0,0.0,0.0,0.0,0.0,0.0,0.0,0.0,0.0,0.0,0.0,0.0,0.0,0.0,0.0,0.0,0.0,0.0,0.0,0.0,0.0,0.0,0.0,0.0,0.0,0.0,0.0,0.0,0.0,0.0,0.0,0.0,0.0,0.0,0.0,0.0,0.0,0.0,0.0,-0.6383,-0.6539,-0.6691,-0.6691,-0.8264,-0.9372,-0.9593,-1.0682,-1.155,-1.185,-1.2523,0.0,0.0,0.0,0.0,0.0,0.0,0.0,0.0,0.0,0.0,0.0,0.0,0.0,0.0,0.0,0.0,0.0,0.0,0.0,0.0,0.0,0.0,0.0,0.0,0.0,0.0,0.0,0.0,0.0,0.0,0.0,0.0,0.0,0.0,0.0,0.0,0.0,0.0,0.0,0.0,0.0,0.0,0.0,0.0,0.0,0.0,0.0,0.0,0.0,0.0,0.0,0.0,0.0,0.0,0.0,0.0,0.0,0.0,0.0,0.0,-0.7251,0.0,0.0,0.0,0.0,0.0,0.0,0.0,0.0,0.0,0.0,0.0,0.0,0.0,0.0,0.0,0.0,0.0,0.0,0.0,0.0,0.0,0.0,0.0,0.0,0.0,0.0,0.0,0.0,0.0,0.0,0.0,0.0,0.0,0.0,0.0,0.0,0.0,0.0,0.0,0.0,-0.6363,-0.6363,-0.6595,-0.7058,-0.8444,-0.9523,-0.9965,-1.1019,-1.1643,-1.1657,-1.2856,0.0,0.0,0.0,0.0,0.0,0.0,0.0,0.0,0.0,0.0,0.0,0.0,0.0,0.0,0.0,0.0,0.0,0.0,0.0,0.0,0.0,0.0,0.0,0.0,0.0,0.0,0.0,0.0,0.0,0.0,0.0,0.0,0.0,0.0,0.0,0.0,0.0,0.0,0.0,0.0,0.0,0.0,0.0,0.0,0.0,0.0,0.0,0.0,0.0,0.0,0.0,0.0,0.0,-0.7651,-0.7662,-0.7638,-0.7638,-0.7651,-0.7668,-0.7512,-0.7434,-0.7407,-0.765,0.0,0.0,0.0,0.0,0.0,0.0,0.0,0.0,0.0,0.0,0.0,0.0,0.0,0.0,0.0,0.0,0.0,0.0,0.0,0.0,0.0,0.0,0.0,0.0,-1.3017,-1.3737,-1.3717,0.0,0.0,0.0,0.0,0.0,0.0,0.0,0.0,0.0,0.0,0.0,-0.6474,-0.6471,-0.6788,-0.7652,-0.8658,-0.9669,-1.049,-1.1367,-1.1764,-1.1516,-1.3124,-1.3851,0.0,0.0,0.0,0.0,0.0,0.0,0.0,0.0,0.0,0.0,0.0,0.0,0.0,0.0,0.0,0.0,0.0,0.0,0.0,0.0,0.0,0.0,0.0,0.0,0.0,0.0,0.0,0.0,0.0,0.0,0.0,0.0,-0.6571,-0.7024,0.0,0.0,0.0,0.0,0.0,0.0,0.0,0.0,0.0,0.0,0.0,0.0,0.0,-0.757,-0.757,-0.7712,-0.7723,-0.7604,-0.7858,-0.7913,-0.7784,-0.7784,-0.7855,-0.7974,-0.7821,0.0,-0.7653,-0.8504,0.0,0.0,0.0,0.0,0.0,0.0,0.0,0.0,0.0,0.0,0.0,0.0,0.0,0.0,0.0,0.0,0.0,0.0,0.0,0.0,0.0,0.0,-1.2283,-1.2293,-1.5982,-1.9486,0.0,-1.578,-1.2654,-1.3708,-1.279,0.0,0.0,0.0,0.0,0.0,0.0,0.0,-0.6488,-0.6471,-0.6551,-0.6708,-0.8271,-0.9372,-0.9523,-1.1004,-1.185,-1.1817,-1.3255,-1.4181,-1.4463,-1.6224,0.0,0.0,0.0,0.0,0.0,0.0,0.0,0.0,0.0,0.0,0.0,0.0,0.0,0.0,0.0,0.0,0.0,0.0,0.0,0.0,0.0,0.0,0.0,0.0,0.0,0.0,0.0,0.0,0.0,-0.6672,-0.6933,-0.7581,-0.732,-0.7125,0.0,0.0,0.0,0.0,0.0,0.0,0.0,0.0,0.0,-0.7597,-0.7678,-0.7719,-0.7719,-0.7865,-0.7909,-0.7848,-0.7977,-0.8004,-0.794,-0.794,-0.7977,-0.8035,-0.797,-0.8391,-0.9284,-0.946,-0.9643,-0.9881,0.0,0.0,0.0,0.0,-1.1303,-1.1385,-1.0791,-1.0352,-1.0232,-1.071,0.0,0.0,0.0,0.0,0.0,0.0,0.0,0.0,0.0,0.0,-1.318,-1.2443,-1.4676,-1.7603,-2.0036,-1.8724,-1.6858,0.0,-1.4424,-1.2447,-1.1235,0.0,0.0,0.0,0.0,-0.6678,-0.6639,-0.6729,-0.6695,-0.661,-0.8273,-0.9351,-0.9306,-1.107,-1.2044,-1.1877,-1.3454,-1.4362,-1.4388,-1.6298,-1.7383,0.0,0.0,0.0,0.0,0.0,0.0,0.0,0.0,0.0,0.0,0.0,0.0,0.0,0.0,0.0,0.0,0.0,0.0,0.0,0.0,0.0,0.0,0.0,0.0,0.0,0.0,0.0,0.0,-0.684,-0.7365,-0.7914,-0.7465,-0.7126,0.0,0.0,0.0,0.0,0.0,0.0,-0.7645,-0.7655,-0.7672,-0.7709,-0.7814,-0.7868,-0.7868,-0.7984,-0.8038,-0.8038,-0.8038,-0.8038,-0.8038,-0.8038,-0.8038,-0.8038,-0.8038,-0.8715,-0.9955,-1.0468,-1.1085,-1.1621,-1.2145,-1.2264,-1.2194,-1.2439,-1.2822,-1.3316,-1.3582,-1.3317,-1.2483,-1.0135,-1.2042,-1.5354,-1.5404,0.0,0.0,0.0,0.0,-1.1739,-1.1717,-1.2921,-1.386,-1.2942,-1.3432,-1.4961,-1.8207,-1.9771,-2.0246,0.0,-1.6729,-1.4631,-1.3039,0.0,0.0,0.0,0.0,-0.6703,-0.6823,-0.6843,-0.6885,-0.677,-0.8426,-0.9491,-0.9473,-1.1313,-1.2325,-1.2104,-1.3775,-1.4665,-1.4379,-1.6409,-1.7539,-1.7539,0.0,0.0,0.0,0.0,0.0,0.0,0.0,0.0,0.0,0.0,0.0,0.0,0.0,0.0,0.0,0.0,0.0,0.0,0.0,0.0,0.0,0.0,0.0,0.0,0.0,0.0,0.0,0.0,0.0,-0.7882,-0.7426,0.0,0.0,0.0,0.0,-0.7587,-0.7587,-0.7651,-0.7794,-0.7801,-0.7868,-0.8014,-0.8024,-0.8028,-0.8028,-0.8035,-0.8038,-0.8038,-0.8038,-0.8038,-0.8038,-0.8038,-0.8038,-0.8038,-0.8038,-0.8076,-0.8362,-1.1702,-1.2554,-1.2068,-1.4062,-1.4352,-1.3874,-1.4526,-1.514,-1.5569,-1.523,-1.5284,-1.5618,-1.5465,-1.486,-1.4228,-1.4222,-1.4116,0.0,0.0,-1.262,-1.1988,-1.4167,-1.4436,-1.4123,-1.4008,-1.4054,-1.4162,-1.4364,-1.7677,-2.0545,0.0,-2.0325,-1.8872,-1.4699,0.0,-1.3607,-1.2385,-0.924,-0.7021,-0.685,-0.6843,-0.6926,-0.6919,-0.8427,-0.9612,-0.9807,-1.169,-1.2795,-1.2782,-1.4544,-1.5404,-1.5122,-1.6973,-1.7978,-1.7978,-1.8736,0.0,0.0,0.0,0.0,0.0,0.0,0.0,0.0,0.0,0.0,0.0,0.0,0.0,0.0,0.0,0.0,0.0,0.0,0.0,0.0,0.0,0.0,0.0,0.0,0.0,0.0,0.0,0.0,-0.793,-0.7851,0.0,-0.7633,-0.7664,-0.7638,-0.7729,-0.7736,-0.7801,-0.795,-0.796,-0.7984,-0.8038,-0.8032,-0.8036,-0.8041,-0.8036,-0.8036,-0.8038,-0.8038,-0.8038,-0.8038,-0.8038,-0.8038,-0.8038,-0.8038,-0.7974,-0.8362,-1.3,-1.4731,-1.4447,-1.5217,-1.5356,-1.5121,-1.5404,-1.5651,-1.5818,-1.5657,-1.5637,-1.5833,-1.5759,-1.5518,-1.5153,-1.517,-1.5174,-1.5161,-1.5197,-1.4239,-1.3493,-1.5067,-1.5312,-1.516,-1.5186,-1.517,-1.4953,-1.4262,-1.7513,-2.0619,-2.0608,-2.0611,-2.0098,-1.8575,-1.5963,-1.2964,-0.9432,-0.8045,-0.7306,-0.7061,-0.7149,-0.7143,-0.6949,-0.8739,-0.9932,-0.9943,-1.1721,-1.2822,-1.2822,-1.439,-1.5295,-1.5163,-1.701,-1.8008,-1.8008,-1.8557,-1.8837,0.0,0.0,0.0,0.0,0.0,0.0,0.0,0.0,0.0,0.0,0.0,0.0,0.0,0.0,0.0,0.0,0.0,0.0,0.0,0.0,0.0,0.0,0.0,0.0,0.0,0.0,-0.7578,-0.7977,-0.8,-0.7931,-0.7784,-0.7815,-0.7787,-0.7882,-0.7889,-0.7933,-0.8035,-0.8038,-0.7962,-0.8012,-0.8008,-0.8011,-0.8119,-0.8054,-0.7952,-0.8016,-0.7958,-0.7981,-0.7978,-0.8036,-0.8016,-0.8016,-0.8016,-0.8048,-0.8445,-1.3633,-1.5765,-1.5761,-1.581,-1.5763,-1.5832,-1.5777,-1.5763,-1.5832,-1.5832,-1.5832,-1.5798,-1.5819,-1.5758,-1.5824,-1.5831,-1.5776,-1.581,-1.5803,-1.5232,-1.4852,-1.5569,-1.5832,-1.5785,-1.5798,-1.5837,-1.5562,-1.4652,-1.6829,-1.9146,-1.9715,-1.9044,-1.8523,-1.8941,-1.6293,-1.3118,-1.0236,-0.8911,-0.8285,-0.8097,-0.7667,-0.7275,-0.7027,-0.8896,-1.0168,-1.0171,-1.2073,-1.3113,-1.2913,-1.4666,-1.5543,-1.518,-1.7139,-1.8223,-1.8223,-1.8882,-1.9683,-2.0579,0.0,0.0,0.0,0.0,0.0,0.0,0.0,0.0,0.0,0.0,0.0,0.0,0.0,0.0,0.0,0.0,0.0,0.0,0.0,0.0,0.0,0.0,0.0,-0.8011,-0.8021,-0.8025,-0.8025,-0.8058,-0.7991,-0.8039,-0.7957,-0.8038,-0.8038,-0.8038,-0.8038,-0.8038,-0.8045,-0.8012,-0.7948,-0.7962,-0.8173,-0.8487,-0.8203,-0.7988,-0.8067,-0.7988,-0.8049,-0.8043,-0.802,-0.8061,-0.7955,-0.7958,-0.7991,-0.8399,-1.3705,-1.5865,-1.5823,-1.5763,-1.5728,-1.5629,-1.5747,-1.5823,-1.5832,-1.5832,-1.5832,-1.5832,-1.5832,-1.5832,-1.5832,-1.5832,-1.5832,-1.5832,-1.5832,-1.5832,-1.5832,-1.5832,-1.5832,-1.5832,-1.5832,-1.5819,-1.5661,-1.5164,-1.5397,-1.6235,-1.7794,-1.5922,-1.4455,-1.5626,-1.4846,-1.4318,-1.49,-1.2013,0.0,-1.0002,-0.8461,-0.7316,-0.7163,-0.8983,-1.0304,-1.06,-1.2778,-1.3828,-1.3247,-1.523,-1.61,-1.5204,-1.738,-1.8613,-1.8684,-1.9841,-2.1279,-2.3078,0.0,0.0,0.0,0.0,0.0,0.0,0.0,0.0,0.0,0.0,0.0,0.0,0.0,0.0,0.0,0.0,0.0,0.0,0.0,0.0,0.0,0.0,-0.8547,-0.8028,-0.8411,-0.856,-0.8355,-0.8285,-0.8191,-0.8251,-0.8082,-0.8038,-0.8038,-0.8038,-0.8038,-0.8038,-0.8042,-0.8014,-0.7952,-0.8046,-0.821,-0.8748,-0.8246,-0.8242,-0.864,-0.8678,-0.8696,-0.8696,-0.8657,-0.8367,-0.7958,-0.7953,-0.821,-0.9078,-1.4767,-1.71,-1.698,-1.6149,-1.3482,-1.0645,-1.438,-1.5757,-1.5832,-1.5832,-1.5832,-1.5832,-1.5832,-1.5832,-1.5832,-1.5832,-1.5832,-1.5845,-1.583,-1.5797,-1.575,-1.583,-1.579,-1.5832,-1.5832,-1.5819,-1.5756,-1.5598,-1.5735,-1.5817,-1.5878,-1.5357,-1.4933,-1.5154,-1.5294,-1.4892,-1.3652,-1.1566,0.0,-0.9543,-0.8272,-0.7356,-0.7312,-0.9478,-1.0787,-1.076,-1.2541,-1.3607,-1.3233,-1.466,-1.5468,-1.518,-1.7121,-1.8768,-2.0008,-2.0399,-2.1416,0.0,0.0,0.0,0.0,0.0,0.0,0.0,0.0,0.0,0.0,0.0,0.0,0.0,0.0,0.0,0.0,0.0,0.0,0.0,0.0,0.0,0.0,-0.8652,-0.8751,-0.8407,-0.8561,-0.8706,-0.8553,-0.8397,-0.836,-0.836,-0.8275,-0.8225,-0.8225,-0.8225,-0.8225,-0.8119,-0.8097,-0.7962,-0.802,-0.8243,-0.851,-0.8906,-0.8563,-0.8563,-0.8906,-0.8862,-0.8894,-0.8894,-0.8934,-0.8748,-0.8351,-0.8107,-0.8381,-0.9198,-1.2587,-1.5089,0.0,0.0,0.0,0.0,0.0,-1.5832,-1.5832,-1.5832,-1.5832,-1.5832,-1.5832,-1.5832,-1.5832,-1.5832,-1.5832,-1.5838,-1.581,-1.5248,-1.4886,-1.5599,-1.5783,-1.5832,-1.5832,-1.5806,-1.5832,-1.5798,-1.579,-1.5679,-1.5204,-1.5288,0.0,-1.5197,-1.537,-1.5143,-1.4228,-1.2657,-1.1303,-1.0386,-0.9096,-0.8044,-0.7379,-0.9482,-1.0803,-1.072,-1.2741,0.0,0.0,0.0,-1.5993,-1.6625,-1.7688,0.0,0.0,0.0,-2.1435,-2.258,0.0,0.0,0.0,-2.2653,-2.1837,0.0,0.0,0.0,0.0,0.0,0.0,0.0,0.0,0.0,0.0,0.0,0.0,0.0,0.0,0.0,0.0,-0.8523,-0.8909,-0.8969,-0.8762,-0.8683,-0.8588,-0.8591,-0.8509,-0.8509,-0.8492,-0.8482,-0.8482,-0.8482,-0.8479,-0.8266,0.0,0.0,0.0,0.0,-0.8906,-0.9012,-0.893,-0.893,-0.89,-0.8906,-0.8853,-0.8846,-0.8917,-0.8949,-0.8824,-0.8285,-0.836,-0.8941,-0.8874,-1.1638,-1.5815,-1.5797,-1.5817,-1.5832,-1.5832,-1.5832,-1.5832,-1.5832,0.0,0.0,-1.5832,-1.5832,-1.5832,-1.5832,-1.5832,-1.5832,-1.5845,-1.4671,-1.3826,-1.5419,-1.5838,-1.5832,-1.5832,-1.5832,-1.5832,-1.5832,-1.5832,-1.5745,-1.5451,-1.5631,-1.5732,-1.5444,-1.5211,-1.5237,-1.5752,-1.4421,-1.3031,-1.1886,-1.0546,-0.9213,-0.7749,0.0,0.0,-1.0824,-1.3101,-1.4122,-1.3313,-1.5245,-1.7097,-1.8521,-1.8562,-1.9014,-1.9829,-2.0697,-2.1407,-2.1877,-2.2689,-2.3713,-2.4945,-2.3748,-2.3018,0.0,0.0,0.0,0.0,0.0,0.0,0.0,0.0,0.0,0.0,0.0,0.0,0.0,0.0,0.0,-0.8197,-0.8664,-0.8942,-0.9099,-0.8927,-0.8818,-0.8831,-0.8686,-0.8665,-0.8665,-0.8554,-0.8482,-0.8482,-0.8482,-0.8479,-0.8266,-0.8378,-0.8291,-0.7987,-0.8575,-0.9154,-0.9606,-0.9188,-0.8951,-0.8895,0.0,0.0,-0.8874,-0.885,-0.8937,-0.8939,-0.8729,-0.8818,-0.8901,-0.8892,-1.1601,-1.5789,-1.5776,-1.575,-1.5832,-1.5832,-1.5832,-1.5832,-1.5832,-1.5832,-1.5832,-1.5832,-1.5832,-1.5832,-1.5832,-1.5832,0.0,-1.5836,-1.5586,-1.5324,-1.5734,-1.5797,-1.5832,-1.5832,-1.5832,-1.5832,-1.5832,-1.5832,-1.5745,-1.5451,-1.5631,-1.5732,-1.5444,-1.5545,-1.5698,-1.5812,-1.4528,-1.3584,-1.3345,-1.2031,-1.0963,-1.0524,-1.1786,-1.2612,-1.2224,-1.3391,-1.3995,-1.3587,-1.5225,-1.6963,-1.8511,-1.8562,-1.8874,-1.9446,-2.027,-2.114,-2.1877,-2.2689,-2.3248,-2.3517,-2.3878,-2.4288,0.0,0.0,0.0,0.0,0.0,0.0,0.0,0.0,0.0,0.0,0.0,-0.763,0.0,0.0,-0.815,-0.8554,-0.8726,-0.8816,-0.9108,-0.9205,-0.9103,-0.9061,-0.8869,-0.8825,-0.8825,-0.8757,-0.874,-0.8699,-0.875,-0.8665,-0.8582,-0.8702,-0.8657,-0.8455,-0.9066,-0.9501,-0.9743,-0.9459,-0.9335,-0.9378,-0.9343,-0.9154,-0.8914,-0.889,-0.8896,-0.8941,-0.8906,-0.8896,-0.9145,-1.2051,-1.4591,-1.668,-1.6715,-1.6296,-1.5813,-1.5783,-1.5832,-1.5832,-1.5832,-1.5832,-1.5832,-1.5832,-1.5832,-1.5832,-1.5832,-1.5832,-1.5838,-1.5797,-1.5777,-1.5838,-1.5803,-1.5777,-1.5832,-1.5832,-1.5832,-1.5832,-1.5832,-1.5832,-1.5745,-1.5451,-1.5631,-1.5732,-1.5444,-1.5638,-1.5832,-1.5832,-1.5227,-1.4515,-1.3812,-1.302,-1.233,-1.1472,-1.2361,-1.2957,-1.2733,-1.3417,-1.4193,-1.5065,-1.5817,-1.7055,-1.8893,-1.875,-1.8735,-1.892,-1.9836,-2.0565,-2.1239,-2.2579,-2.3517,-2.4167,-2.4537,-2.4635,0.0,0.0,0.0,0.0,0.0,0.0,0.0,0.0,-0.764,-0.7667,-0.7664,-0.7783,-0.8143,-0.8087,-0.8309,-0.8692,-0.8778,-0.8888,-0.9149,-0.9278,-0.9344,-0.9367,-0.911,-0.891,-0.891,-0.891,-0.8953,-0.895,-0.8974,-0.9014,-0.8891,-0.8909,-0.8912,-0.9062,-0.9544,-0.9808,-0.9828,-0.9832,-0.9832,-0.9828,-0.9792,-0.946,-0.8954,-0.893,-0.8866,-0.8866,-0.8866,-0.895,-0.9336,-1.5232,-1.7556,-1.7587,-1.7559,-1.7018,-1.6155,-1.5903,-1.5777,-1.5832,-1.5832,-1.5832,-1.5832,-1.5832,-1.5832,-1.5832,-1.5832,-1.5832,-1.5832,-1.5832,-1.5832,-1.5832,-1.5832,-1.5832,-1.5832,-1.5832,-1.5832,-1.5832,-1.5832,-1.5832,-1.5758,-1.5524,-1.5671,-1.5752,-1.5518,-1.5671,-1.5832,-1.5832,-1.5832,-1.536,-1.4272,-1.4154,-1.3665,-1.2378,-1.2901,-1.3276,-1.3173,-1.3561,-1.4664,-1.6651,-1.6522,-1.7334,-1.9331,-1.9072,-1.8848,-1.8769,-1.9573,-2.0325,-2.0871,-2.2376,-2.3858,-2.5101,-2.4844,-2.4516,-0.7787,-0.7909,0.0,-0.861,-0.8411,-0.8048,0.0,0.0,-0.7916,-0.793,-0.7965,-0.8131,-0.8714,-0.8649,-0.8468,-0.852,-0.9007,-0.9272,-0.9318,-0.9104,-0.9182,-0.9665,-0.9185,-0.8858,-0.8858,-0.8858,-0.8865,-0.8878,-0.9218,-0.9225,-0.89,-0.8887,-0.9182,-0.9703,-0.9724,-0.9786,-0.9771,-0.9791,-0.9791,-0.9771,-0.9751,-0.9486,-0.8875,-0.8847,-0.8897,-0.8897,-0.8897,-0.887,-0.9309,-1.5229,-1.7622,-1.7551,-1.7618,-1.7489,-1.7309,-1.6168,-1.5833,-1.5832,-1.5832,-1.5832,-1.5832,-1.5832,-1.5832,-1.5832,-1.5832,-1.5832,-1.5832,-1.5832,-1.5832,-1.5832,-1.5832,-1.5832,-1.5832,-1.5832,-1.5832,-1.5832,-1.5832,-1.5832,-1.5818,-1.5785,-1.5805,-1.5818,-1.5785,-1.5805,-1.5832,-1.5832,-1.5832,-1.5724,-1.5596,-1.5589,-1.5376,-1.4995,-1.5035,-1.4896,-1.4381,-1.4369,-1.5227,-1.7131,-1.7235,-1.8022,-1.9778,-1.9795,-1.96,-1.9219,-2.0114,-2.0979,-2.1868,-2.2352,-2.3337,-2.481,-2.3813,-2.3949,-0.8794,0.0,0.0,0.0,-0.8431,-0.8533,-0.856,-0.8524,-0.8565,-0.8514,-0.8477,-0.8553,-0.8843,-0.9093,-0.9242,0.0,-0.9108,-0.9202,-0.9587,-0.9553,-0.9536,-0.9727,-0.9553,-0.9446,-0.9398,-0.9381,-0.9298,-0.8902,-0.9312,-0.9576,-0.9384,-0.9436,-0.9581,-0.9851,-0.9854,-0.9764,-0.9822,-0.9822,-0.9822,-0.9819,-0.9799,-0.9696,-0.9389,-0.9112,-0.9118,-0.9387,-0.9034,-0.89,-0.9341,-1.5238,-1.7609,-1.7576,-1.679,-1.4737,-1.2287,-1.482,-1.582,-1.5817,-1.5757,-1.5832,-1.5832,-1.5832,-1.5832,-1.5832,-1.5832,-1.5832,-1.5832,-1.5832,-1.5832,-1.5832,-1.5832,-1.5832,-1.5832,-1.5832,-1.5832,-1.5832,-1.5832,-1.5832,-1.5832,-1.5832,-1.5832,-1.5832,-1.5832,-1.5832,-1.5832,-1.5832,-1.5832,-1.5832,-1.5832,-1.5832,-1.5718,-1.5431,-1.5398,-1.5157,-1.4569,-1.4676,-1.559,-1.7598,-1.7656,-1.849,-2.0527,-2.0185,-1.9824,-1.9658,-2.0008,-2.0514,-2.1215,-2.2486,-2.3384,-2.3899,-2.4064,-2.4406,-0.9076,0.0,0.0,-0.8233,-0.8692,-0.9123,-0.9167,-0.9178,-0.9178,-0.9178,-0.9144,-0.9111,-0.9151,-0.9521,-0.9794,-0.9583,-0.9271,-0.9329,-0.9681,-0.9784,-0.9761,-0.9761,-0.9846,-0.9858,-0.9766,-0.9745,-0.9669,-0.9168,-0.9564,-0.9839,-0.9812,-0.9847,-0.9837,-0.9819,-0.9822,-0.9822,-0.9822,-0.9822,-0.9822,-0.9819,-0.984,-0.9772,-0.9731,-0.9332,-0.9415,-0.9738,-0.915,-0.8917,-0.9268,-1.3448,-1.5903,-1.6912,-1.452,-1.1304,-0.8485,-1.2262,-1.4545,-1.578,-1.577,-1.5832,-1.5832,-1.5832,-1.5832,-1.5832,-1.5832,-1.5832,-1.5832,-1.5832,-1.5832,-1.5832,-1.5832,-1.5832,-1.5832,-1.5832,-1.5832,-1.5832,-1.5832,-1.5832,-1.5832,-1.5832,-1.5832,-1.5832,-1.5832,-1.5832,-1.5832,-1.5832,-1.5832,-1.5832,-1.5832,-1.5832,-1.5752,-1.5538,-1.5518,-1.5311,-1.4803,-1.4963,-1.5999,-1.7968,-1.8036,-1.8958,-2.1335,-2.0801,-2.04,-2.0283,-2.0273,-2.0502,-2.0979,-2.2237,-2.3165,-2.3783,-2.4188,-2.4698,0.0,0.0,-0.8114,-0.8736,-0.9381,-0.977,-0.9809,-0.9726,-0.9726,-0.9726,-0.9729,-0.9778,-0.9811,-0.9834,-0.9856,-0.9757,-0.9774,-0.9738,-0.9745,-0.9751,-0.9787,-0.9787,-0.9784,-0.9819,0.0,-0.9808,-0.9812,-0.9812,-0.9812,-0.9812,-0.9822,-0.9819,-0.9815,-0.9822,-0.9822,-0.9822,-0.9822,-0.9822,-0.9822,-0.9822,-0.9819,-0.9744,-0.9849,-0.9813,-0.977,-0.9738,-0.915,-0.8917,-0.8934,-0.9108,-1.1768,-1.5378,-1.0205,-0.8163,-0.8032,-0.814,-1.1463,-1.578,-1.577,-1.5832,-1.5832,-1.5832,-1.5832,-1.5832,-1.5832,-1.5832,-1.5832,-1.5832,-1.5832,-1.5832,-1.5832,-1.5832,-1.5832,-1.5832,-1.5832,-1.5832,-1.5832,-1.5832,-1.5832,-1.5832,-1.5832,-1.5832,-1.5832,-1.5832,-1.5832,-1.5832,-1.5832,-1.5832,-1.5832,-1.5832,-1.5825,-1.5818,-1.5812,-1.5698,-1.5398,-1.5378,-1.623,-1.8251,-1.8399,-1.9434,-2.1783,-2.1836,-2.1631,-2.1201,-2.1191,-2.142,-2.1985,-2.1491,-2.2528,-2.4933,-2.3831,-2.4456,-0.8001,0.0,-0.8719,-0.9377,-0.9627,-0.9856,-0.9765,-0.9796,-0.9796,-0.9796,-0.9759,-0.9757,-0.981,-0.9742,-0.9947,-1.0353,-1.0348,-1.0388,-1.0388,-1.043,-1.0256,-0.9798,-0.9814,0.0,0.0,0.0,0.0,-0.9822,-0.9822,-0.9822,-0.9822,-0.9822,-0.9822,-0.9822,-0.9822,-0.9822,-0.9822,-0.9822,-0.9822,-0.9822,-0.9822,-0.9747,-0.9853,-0.9801,-0.963,-0.9154,-0.9034,-0.894,-0.8882,-0.8913,-0.953,-1.0439,-0.8646,-0.8045,-0.8065,-0.8427,-1.1619,-1.5803,-1.5803,-1.5832,-1.5832,-1.5832,-1.5832,-1.5832,-1.5832,-1.5832,-1.5832,-1.5832,-1.5832,-1.5832,-1.5832,-1.5832,-1.5832,-1.5832,-1.5832,-1.5832,-1.5832,-1.5832,-1.5832,-1.5832,-1.5832,-1.5832,-1.5832,-1.5832,-1.5832,-1.5832,-1.5832,-1.5832,-1.5832,-1.5832,-1.5832,-1.5832,-1.5658,-1.5504,-1.5404,-1.5398,-1.6428,-1.8699,-1.877,-1.9739,-2.2211,-2.2031,-2.1816,-2.167,-2.1387,-2.1312,-2.146,-2.1669,-2.2179,-2.2977,-2.2913,-2.3828,-0.8253,-0.8605,-0.9052,-0.9667,-0.9824,-0.983,-0.9802,-0.9822,-0.9822,-0.9822,-0.9832,-0.962,-0.9262,-0.9142,-0.9412,-1.0241,-1.0528,-1.0649,-1.076,-1.051,-1.0357,-1.0191,-0.9925,-0.9757,0.0,0.0,0.0,-0.9825,-0.9822,-0.9822,-0.9822,-0.9822,-0.9822,-0.9822,-0.9822,-0.9822,-0.9822,-0.9822,-0.9798,-0.9747,-0.9747,-0.9792,-0.9769,-0.959,-0.9221,-0.8914,-0.8868,-0.888,-0.8948,-0.8874,-0.8525,-0.7953,-0.7992,-0.8038,-0.8002,-0.8459,-1.1609,-1.5784,-1.5754,-1.5832,-1.5832,-1.5832,-1.5832,-1.5832,-1.5832,-1.5832,-1.5832,-1.5832,-1.5832,-1.5832,-1.5832,-1.5832,-1.5832,-1.5832,-1.5832,-1.5832,-1.5832,-1.5832,-1.5832,-1.5832,-1.5832,-1.5832,-1.5832,-1.5832,-1.5832,-1.5832,-1.5832,-1.5832,-1.5832,-1.5832,-1.5832,-1.5832,-1.5665,-1.5551,-1.5551,-1.5551,-1.6636,-1.906,-1.9142,-2.013,-2.2648,-2.248,-2.2266,-2.2119,-2.1836,-2.1543,-2.123,-2.1547,-2.1834,-2.2027,-2.2315,-2.3368,-0.8745,-0.8923,-0.9071,-0.9697,-0.9842,-0.9812,-0.9819,-0.9815,-0.9808,-0.9802,-0.9801,-0.9466,0.0,0.0,-0.8411,-0.9511,-1.0263,-1.0584,-1.064,-1.0173,-1.0022,0.0,0.0,0.0,0.0,0.0,0.0,-0.9842,0.0,-0.9832,-0.9832,-0.9832,-0.9829,-0.9822,-0.9822,-0.9822,-0.9822,-0.9822,-0.9754,-0.9744,-0.9744,-0.978,-0.9736,-0.9114,-0.8921,-0.8901,-0.8883,-0.8855,-0.8918,-0.8871,-0.8505,-0.8041,-0.7999,-0.8026,-0.8021,-0.8028,-1.1104,-1.5457,-1.5711,-1.5832,-1.5832,-1.5832,-1.5832,-1.5832,-1.5832,-1.5832,-1.5838,-1.5832,-1.5832,-1.5838,-1.5832,-1.5832,-1.5832,-1.5832,-1.5832,-1.5832,-1.5832,-1.5832,-1.5832,-1.5832,-1.5832,-1.5832,-1.5832,-1.5832,-1.5832,-1.5832,-1.5832,-1.5832,-1.5832,-1.5832,-1.5832,-1.5832,-1.5812,-1.5812,-1.5832,-1.5812,-1.6821,-1.9306,-1.9497,-2.0584,-2.296,-2.3135,-2.2949,-2.2549,-2.2519,-2.2109,-2.1299,-2.126,-2.146,-2.1993,-2.1973,-2.2999,-0.8911,-0.8923,-0.9071,-0.9697,-0.9766,-0.9813,-0.9798,-0.9741,-0.9755,-0.9759,-0.9756,-0.9449,0.0,0.0,0.0,-0.9013,-0.9265,0.0,-0.9352,-0.9938,0.0,-1.0082,0.0,-1.0437,-1.0447,-1.0074,0.0,0.0,-0.9741,-0.9741,-0.9741,-0.9741,-0.9811,-0.9825,-0.9822,-0.9822,-0.9822,-0.9822,-0.9805,-0.9768,-0.9392,-0.9139,-0.9139,-0.8984,-0.8853,-0.8876,-0.8954,-0.8855,-0.8918,-0.8434,-0.8183,-0.8041,-0.7999,-0.7962,-0.7982,-0.7991,-0.8882,-1.0524,-1.4467,-1.5803,-1.5832,-1.5832,-1.5832,-1.5832,-1.5832,-1.579,-1.5836,-1.5757,-1.579,-1.583,-1.575,-1.5832,-1.5832,-1.5832,-1.5832,-1.5832,-1.5832,-1.5832,-1.5832,-1.5832,-1.5832,-1.5832,-1.5832,-1.5832,-1.5832,-1.5832,-1.5832,-1.5832,-1.5832,-1.5832,-1.5832,-1.5832,-1.5631,-1.5591,-1.5812,-1.5631,-1.6686,-1.9289,-1.9497,-2.0584,-2.296,-2.3135,-2.3086,-2.2978,-2.2676,-2.2402,-2.2187,-2.1553,-2.1252,-2.1431,-2.1093,-2.1593,-0.8907,-0.891,-0.9036,-0.9357,-0.9662,-0.9813,-0.9765,-0.9811,-0.969,-0.9467,-0.9161,0.0,0.0,0.0,0.0,0.0,0.0,0.0,-0.9707,-1.0283,-1.0572,0.0,-1.0493,0.0,-1.0376,-0.9982,-0.9827,0.0,-0.9999,-1.018,-1.018,-0.9921,-0.9851,-0.9825,-0.9822,-0.9822,-0.9822,-0.9822,-0.9791,-0.9851,-0.9417,-0.9265,-0.9279,-0.898,-0.8864,-0.894,0.0,-0.8855,-0.881,-0.822,-0.8004,-0.802,-0.8022,-0.7979,-0.8026,-0.8028,-0.7977,-0.8448,-1.1336,-1.3919,-1.5797,-1.5845,-1.5832,-1.5838,-1.579,-1.5843,-1.5358,-1.303,-1.4076,-1.5787,-1.5823,-1.577,-1.5832,-1.5832,-1.5925,-1.5985,-1.5858,-1.5932,-1.5985,-1.5852,-1.5832,-1.5832,-1.5832,-1.5832,-1.5832,-1.5832,-1.5832,-1.5832,-1.5832,-1.5832,-1.5832,-1.5832,-1.6147,-1.6479,-1.6655,-1.6957,-1.8102,-2.0198,-2.0305,-2.1123,-2.3047,-2.3135,-2.3135,-2.3135,-2.2725,-2.251,-2.251,-2.165,-2.123,-2.1221,-2.0771,-2.1078,-0.885,-0.895,-0.8907,-0.9046,-0.9466,-0.982,-0.9799,-0.9708,-0.9356,-0.8937,0.0,-0.8062,-0.8151,-0.8468,-0.9079,-0.9842,0.0,-1.0729,-1.0686,-1.0745,-1.0679,-1.0677,-1.0743,-1.0486,-0.9812,-0.9835,-0.9944,-0.9945,-1.0386,-1.0753,-1.0753,-1.0073,-0.9851,-0.9825,-0.9822,-0.9822,-0.9822,-0.9822,-0.9761,-0.9761,-0.9745,-0.9708,-0.9646,-0.9167,-0.8863,-0.894,-0.894,-0.8855,-0.8814,-0.8348,-0.8056,-0.7998,-0.8066,-0.8036,-0.8014,-0.7985,-0.8007,-0.7963,-0.7957,-1.1444,-1.5807,-1.579,-1.5838,-1.5845,-1.5843,-1.5358,-1.3811,-0.9231,-1.1245,-1.4954,-1.5575,-1.5836,-1.5885,-1.5838,-1.6052,-1.6192,-1.5892,-1.6032,-1.6139,-1.5879,-1.5832,-1.5832,-1.5832,-1.5832,-1.5832,-1.5832,-1.5832,-1.5832,-1.5832,-1.5832,-1.5832,-1.5832,-1.6756,-1.7505,-1.7692,-1.868,-1.9852,-2.1203,-2.1293,-2.1845,-2.3047,-2.3135,-2.3135,-2.3135,-2.2783,-2.2568,-2.251,-2.1709,-2.1289,-2.1221,-2.0771,-2.1011,-0.8941,-0.8868,-0.9049,-0.9537,-0.9756,-0.9806,-0.9754,-0.9074,0.0,0.0,-0.8122,-0.8127,-0.8632,-0.8458,0.0,-1.0259,0.0,0.0,0.0,0.0,-1.0636,0.0,0.0,0.0,0.0,0.0,0.0,0.0,0.0,-1.0684,-1.0684,-1.0181,-0.9851,-0.9825,-0.9822,-0.9822,-0.9822,-0.9822,-0.9808,-0.9785,-0.9758,-0.9483,-0.9099,-0.8958,-0.8937,-0.894,-0.894,0.0,-0.8928,-0.8793,-0.8421,-0.8087,-0.8565,-0.848,-0.7975,-0.8048,-0.8031,-0.8018,-0.797,-1.1389,-1.5835,-1.5813,-1.581,-1.5832,-1.5757,-1.2822,-0.9131,-0.8225,-0.8668,-1.0343,-1.4638,-1.6142,-1.6456,-1.5892,-1.6052,-1.6192,-1.5892,-1.5872,-1.5892,-1.5838,-1.5832,-1.5832,-1.5832,-1.5832,-1.5832,-1.5832,-1.5832,-1.5832,-1.5832,-1.5832,-1.5832,-1.5832,-1.6015,-1.6574,-1.7598,-1.787,-1.8948,-2.1203,-2.1293,-2.1845,-2.3047,-2.3135,-2.3135,-2.3135,-2.3066,-2.2861,-2.251,-2.2012,-2.1592,-2.1221,-2.0771,-2.0722,-0.9381,-0.9319,-0.9399,-0.9713,-0.9801,-0.9683,-0.9439,0.0,0.0,0.0,-0.8047,-0.8139,-0.8376,0.0,0.0,0.0,0.0,0.0,0.0,0.0,0.0,0.0,0.0,0.0,0.0,0.0,0.0,0.0,0.0,-1.0592,-1.0253,-0.9965,-0.9771,-0.9822,-0.9822,-0.9822,-0.9822,-0.9822,-0.9822,-0.9819,-0.9789,-0.9641,-0.9374,-0.8987,-0.8845,-0.894,-0.894,0.0,-0.8934,-0.8858,-0.8738,-0.8482,-0.8436,-0.8225,-0.8046,-0.7969,-0.7989,-0.8049,-0.8022,-1.0545,-1.3506,-1.2216,-1.3585,-1.5838,-1.5803,-1.4082,-1.1448,-0.8775,-0.9996,-1.2807,-1.5932,-1.6759,-1.6613,-1.6501,-1.6498,-1.646,-1.6313,-1.6166,-1.6012,-1.5858,-1.5832,-1.5832,-1.5832,-1.5832,-1.5832,-1.5832,-1.5832,-1.5832,-1.5832,-1.5832,-1.5832,-1.5832,-1.6929,-1.794,-1.8588,-1.9778,-2.1042,-2.2129,-2.2217,-2.2492,-2.3047,-2.3135,-2.3135,-2.3135,-2.292,-2.2822,-2.2832,-2.1973,-2.1553,-2.1553,-2.0879,-2.0566,-0.9838,-0.9808,-0.9779,-0.9779,-0.9853,-0.969,-0.9035,-0.8458,0.0,0.0,-0.8032,-0.7975,-0.7962,0.0,0.0,0.0,0.0,0.0,0.0,0.0,0.0,0.0,0.0,0.0,0.0,0.0,0.0,0.0,0.0,0.0,-0.9891,-0.9794,-0.9777,-0.9747,-0.9839,-0.9822,-0.9822,-0.9822,-0.9822,-0.9819,-0.9829,-0.9686,-0.9613,-0.914,-0.8886,-0.894,-0.894,0.0,0.0,-0.892,-0.8855,-0.88,-0.8239,-0.8024,-0.7984,-0.7971,-0.8001,-0.7994,-0.8173,-0.9548,-1.1107,-0.9971,-1.2433,-1.575,-1.5767,-1.58,-1.4954,-1.084,-1.2667,-1.6072,-1.7127,-1.7064,-1.6776,-1.6961,-1.6867,-1.6707,-1.6707,-1.648,-1.6206,-1.5972,-1.5872,-1.5832,-1.5832,-1.5832,-1.5832,-1.5832,-1.5832,-1.5832,-1.5832,-1.5832,-1.592,-1.6204,-1.7948,-1.9314,-1.9852,-2.1587,-2.2862,-2.3047,-2.3135,-2.3135,-2.3135,-2.3135,-2.3135,-2.3135,-2.2812,-2.2764,-2.2998,-2.2002,-2.1641,-2.1865,-2.1172,-2.0801,-0.9781,-0.9791,-0.9802,-0.9802,-0.9846,-0.9676,-0.9011,0.0,0.0,-0.8002,-0.8048,-0.7955,-0.8041,0.0,0.0,0.0,0.0,0.0,0.0,0.0,0.0,0.0,0.0,0.0,0.0,0.0,0.0,0.0,0.0,0.0,-0.9891,-0.9859,-0.9787,-0.9781,-0.9767,-0.9822,-0.9822,-0.9822,-0.9822,-0.9822,-0.9795,-0.9516,-0.902,-0.8878,-0.8843,-0.894,-0.894,0.0,0.0,-0.8923,-0.8948,-0.8817,-0.8239,-0.8037,-0.8027,-0.8014,-0.8017,-0.8122,-0.8632,-0.9022,-0.9813,-1.3756,-1.5428,-1.575,-1.5767,-1.58,-1.5671,-1.5248,-1.5402,-1.5949,-1.6579,-1.6922,-1.6975,-1.715,-1.6901,-1.6707,-1.6707,-1.648,-1.6266,-1.6239,-1.6012,-1.5832,-1.5832,-1.5832,-1.5832,-1.5832,-1.5832,-1.5832,-1.5832,-1.5832,-1.6197,-1.7412,-1.7684,-1.8772,-2.0935,-2.1302,-2.1933,-2.3047,-2.3135,-2.3135,-2.3135,-2.3135,-2.3135,-2.3135,-2.3096,-2.291,-2.2568,-2.2451,-2.2217,-2.1885,-2.1797,-2.1553,-0.9822,-0.9828,-0.9817,-0.9854,-0.9792,-0.9683,-0.9,0.0,-0.7978,-0.7982,-0.8038,-0.7965,-0.7955,0.0,0.0,0.0,0.0,0.0,0.0,0.0,0.0,0.0,0.0,0.0,0.0,0.0,0.0,0.0,0.0,0.0,-1.0412,-1.0369,-1.0201,-0.9791,-0.9852,-0.9822,-0.9822,-0.9822,-0.9822,-0.9819,-0.9765,-0.9665,-0.9392,-0.9089,-0.8876,-0.885,-0.8874,0.0,0.0,-0.8863,-0.8852,-0.8824,-0.8602,-0.8508,-0.8587,-0.8587,-0.854,-0.8488,-0.8448,-0.8508,-0.9113,-1.1807,-1.3594,-1.488,-1.5543,-1.5797,-1.579,-1.5838,-1.6095,-1.6441,-1.6803,-1.711,-1.7378,-1.7388,-1.7321,-1.7188,-1.7014,-1.6881,-1.6693,-1.6339,-1.6179,-1.6039,-1.5858,-1.5832,-1.5832,-1.5832,-1.5832,-1.5832,-1.5832,-1.5832,-1.6567,-1.8588,-1.8772,-1.9497,-2.1203,-2.1943,-2.2589,-2.3047,-2.3135,-2.3135,-2.3135,-2.3135,-2.3135,-2.3135,-2.3135,-2.3057,-2.2891,-2.2637,-2.2432,-2.2256,-2.2002,-2.165,-0.9995,-0.9947,-0.986,-1.0012,-1.0017,-0.9864,0.0,0.0,-0.8014,-0.7969,-0.7975,-0.8036,-0.8037,-0.8102,0.0,0.0,0.0,0.0,0.0,0.0,0.0,0.0,0.0,0.0,0.0,0.0,0.0,0.0,0.0,0.0,-1.0637,-1.0558,-1.035,-0.9771,-0.9842,-0.9822,-0.9822,-0.9822,-0.9822,-0.9819,-0.9853,-0.9669,-0.9483,-0.9265,-0.9201,-0.9132,-0.9218,0.0,0.0,-0.8883,-0.8876,-0.8889,-0.8889,-0.8935,-0.8945,-0.8945,-0.8766,-0.8578,-0.821,-0.8295,-0.8832,-1.0884,-1.2589,-1.4225,-1.5525,-1.5899,-1.5832,-1.5832,-1.6216,-1.6776,-1.688,-1.7257,-1.7582,-1.7582,-1.7582,-1.7522,-1.7321,-1.7215,-1.7027,-1.6613,-1.646,-1.6333,-1.6126,-1.6019,-1.5959,-1.5959,-1.5885,-1.5832,-1.5832,-1.6109,-1.721,-1.9306,-1.9852,-2.0486,-2.1756,-2.2589,-2.3135,-2.3135,-2.3135,-2.3135,-2.3135,-2.3135,-2.3135,-2.3135,-2.3135,-2.3135,-2.3135,-2.2842,-2.2705,-2.2685,-2.2393,-2.2188,-1.055,-1.0215,-0.995,-1.0576,-1.0699,-1.0168,0.0,0.0,-0.8014,-0.7969,-0.7955,-0.7952,-0.7955,-0.8509,-0.8928,0.0,0.0,0.0,0.0,0.0,0.0,0.0,0.0,0.0,0.0,0.0,0.0,0.0,0.0,0.0,-1.0637,-1.0487,-1.0091,-0.98,-0.9774,-0.9822,-0.9822,-0.9822,-0.9822,-0.9822,-0.9819,-0.9496,-0.8878,-0.9486,-0.9766,-0.9849,0.0,0.0,0.0,-0.8883,-0.8937,-0.8937,-0.8937,-0.8937,-0.8933,-0.8933,-0.85,-0.8028,-0.8424,-0.8445,-0.9109,-1.2597,-1.3612,-1.3831,-1.5758,-1.6059,-1.5832,-1.5832,-1.6246,-1.67,-1.6707,-1.7141,-1.7582,-1.7582,-1.7582,-1.7582,-1.7582,-1.7355,-1.7148,-1.7141,-1.6901,-1.67,-1.67,-1.646,-1.6266,-1.6266,-1.6019,-1.5832,-1.5832,-1.6943,-1.8141,-1.9405,-2.0576,-2.1756,-2.296,-2.3047,-2.3135,-2.3135,-2.3135,-2.3135,-2.3135,-2.3135,-2.3135,-2.3135,-2.3135,-2.3135,-2.3135,-2.3135,-2.3135,-2.3135,-2.3125,-2.3398,-0.9401,-0.9362,-0.938,-0.9898,-1.004,-0.9742,-0.8346,0.0,-0.7995,-0.8048,-0.7955,-0.8163,-0.8586,-0.873,-0.8858,0.0,0.0,0.0,0.0,0.0,0.0,0.0,0.0,0.0,0.0,0.0,0.0,0.0,0.0,0.0,-1.0637,-1.0627,-1.0405,-1.0212,-0.9928,-0.9851,-0.9851,-0.9751,-0.9822,-0.9819,-0.9844,-0.9703,-0.9499,-0.9669,-0.9845,0.0,0.0,0.0,0.0,-0.8883,-0.894,-0.894,-0.894,-0.894,-0.894,-0.894,-0.8796,-0.862,-0.8582,-0.8693,-0.905,-1.0884,-1.1484,-1.194,-1.4173,-1.5274,-1.5912,-1.6313,-1.656,-1.6794,-1.7201,-1.7442,-1.7582,-1.7582,-1.7582,-1.7582,-1.7582,-1.7508,-1.7388,-1.7188,-1.7074,-1.6881,-1.648,-1.6333,-1.6206,-1.5999,-1.5885,-1.5832,-1.5832,-1.6943,-1.8141,-1.9405,-2.0576,-2.1756,-2.296,-2.3135,-2.3135,-2.3135,-2.3135,-2.3135,-2.3135,-2.3135,-2.3135,-2.3135,-2.3135,-2.3135,-2.3135,-2.3135,-2.3135,-2.3125,-2.3659,-2.4335,0.0,-0.87,-0.8602,-0.9004,-0.9074,0.0,0.0,0.0,-0.8038,-0.8038,-0.7955,-0.8166,-0.8798,-0.8727,-0.8632,0.0,0.0,0.0,0.0,0.0,0.0,0.0,0.0,0.0,0.0,0.0,0.0,0.0,0.0,0.0,-1.0716,-1.0713,-1.0644,-1.0365,-1.0158,-0.9895,-0.9838,-0.9744,-0.9822,-0.9819,-0.9854,-0.9858,-0.9815,-0.9755,-0.9689,0.0,0.0,0.0,0.0,-0.8883,-0.894,-0.894,-0.894,-0.894,-0.894,-0.894,-0.8903,-0.8842,-0.8743,-0.8774,-0.9036,-1.0204,-1.1357,-1.2556,-1.3931,-1.5035,-1.6092,-1.6573,-1.6787,-1.6954,-1.7321,-1.7502,-1.7582,-1.7582,-1.7582,-1.7582,-1.7582,-1.7582,-1.7528,-1.7348,-1.7315,-1.7194,-1.6827,-1.658,-1.6373,-1.6186,-1.5972,-1.5832,-1.5832,-1.7304,-1.8688,-1.9405,-2.1033,-2.2306,-2.3047,-2.3135,-2.3135,-2.3135,-2.3135,-2.3135,-2.3135,-2.3135,-2.3135,-2.3135,-2.3135,-2.3135,-2.3135,-2.3135,-2.3135,-2.3135,-2.4008,-2.4772,0.0,-0.8327,0.0,0.0,0.0,0.0,0.0,0.0,0.0,-0.8038,-0.7955,-0.8163,-0.8695,-0.8401,-0.8161,0.0,0.0,0.0,0.0,0.0,0.0,0.0,0.0,0.0,0.0,0.0,0.0,0.0,0.0,0.0,-1.0721,-1.0721,-1.0646,-1.048,-1.0342,-1.0122,-0.9839,-0.9825,-0.9822,-0.9822,-0.9822,-0.9822,-0.9822,-0.9812,-0.948,0.0,0.0,0.0,0.0,-0.888,-0.894,-0.894,-0.894,-0.894,-0.894,-0.894,-0.8852,-0.8949,-0.8949,-0.8838,-0.8939,-1.042,-1.273,-1.4787,-1.4675,-1.5432,-1.6366,-1.6653,-1.6934,-1.7154,-1.7174,-1.7382,-1.7582,-1.7582,-1.7582,-1.7582,-1.7582,-1.7582,-1.7582,-1.7582,-1.7582,-1.7575,-1.7555,-1.7081,-1.67,-1.6673,-1.6192,-1.5832,-1.5832,-1.794,-1.9497,-1.9497,-2.1676,-2.3135,-2.3135,-2.3135,-2.3135,-2.3135,-2.3135,-2.3135,-2.3135,-2.3135,-2.3135,-2.3135,-2.3135,-2.3135,-2.3135,-2.3135,-2.3135,-2.3135,-2.4296,-2.4872,-0.8177,0.0,-0.8294,-0.8071,-0.7988,-0.8039,0.0,0.0,0.0,0.0,0.0,-0.8057,-0.8166,-0.8078,-0.8192,0.0,0.0,0.0,0.0,0.0,0.0,0.0,0.0,0.0,0.0,0.0,0.0,0.0,0.0,-1.0721,-1.0721,-1.0721,-1.0602,-1.0469,-1.0393,-1.0283,-1.0125,-0.988,-0.9822,-0.9822,-0.9822,-0.9822,-0.9819,-0.983,-0.97,0.0,0.0,0.0,-0.8873,-0.8954,-0.894,-0.894,-0.894,-0.894,-0.894,-0.894,-0.8916,-0.8886,-0.8886,-0.8886,-0.9102,-1.0611,-1.2112,-1.3588,-1.4878,-1.5863,-1.6667,-1.6961,-1.7094,-1.7201,-1.7422,-1.7528,-1.7582,-1.7582,-1.7582,-1.7582,-1.7582,-1.7582,-1.7582,-1.7582,-1.7582,-1.7508,-1.7288,-1.6947,-1.6627,-1.6406,-1.6066,-1.5832,-1.5832,-1.794,-1.9497,-1.9497,-2.1676,-2.3135,-2.3135,-2.3135,-2.3135,-2.3135,-2.3135,-2.3135,-2.3135,-2.3135,-2.3135,-2.3135,-2.3135,-2.3135,-2.3135,-2.3135,-2.3135,-2.3135,-2.4296,-2.5294,-0.8038,-0.8102,-0.8247,-0.8062,-0.8038,-0.8038,0.0,0.0,0.0,0.0,0.0,0.0,-0.7958,0.0,0.0,0.0,0.0,0.0,0.0,0.0,0.0,0.0,0.0,0.0,0.0,0.0,0.0,0.0,0.0,-1.0721,-1.0721,-1.0721,-1.0588,-1.0551,-1.0541,-1.0304,-1.0074,-0.9866,-0.9822,-0.9822,-0.9822,-0.9822,-0.9819,-0.9744,-0.9751,0.0,0.0,0.0,-0.8904,-0.895,-0.892,-0.8913,-0.8853,-0.894,-0.894,-0.894,-0.894,-0.894,-0.894,-0.894,-0.9158,-1.0903,-1.2121,-1.3321,-1.4944,-1.6181,-1.7141,-1.7301,-1.7348,-1.7382,-1.7542,-1.7582,-1.7582,-1.7582,-1.7582,-1.7582,-1.7582,-1.7582,-1.7582,-1.7582,-1.7582,-1.7528,-1.7375,-1.7101,-1.6814,-1.6513,-1.6333,-1.6132,-1.5865,-1.8069,-1.9678,-1.9513,-2.1676,-2.3135,-2.3135,-2.3135,-2.3135,-2.3135,-2.3135,-2.3135,-2.3135,-2.3135,-2.3135,-2.3135,-2.3135,-2.3135,-2.3135,-2.3135,-2.3135,-2.3135,-2.4296,-2.5378,-0.8038,-0.7955,-0.7969,-0.8045,-0.8038,-0.8038,-0.8038,0.0,0.0,0.0,0.0,0.0,0.0,0.0,0.0,0.0,0.0,0.0,0.0,0.0,0.0,0.0,0.0,0.0,0.0,0.0,0.0,0.0,0.0,-1.0721,-1.0721,-1.0697,-1.0695,-1.0682,-1.0647,-1.0364,-0.9825,-0.9822,-0.9822,-0.9822,-0.9822,-0.9822,-0.9822,-0.9822,-0.9744,-0.9734,0.0,0.0,-0.9013,-0.9003,-0.894,-0.8907,-0.8903,-0.8846,-0.894,-0.894,-0.894,-0.894,-0.894,-0.9047,-0.9596,-1.1232,-1.2635,-1.3911,-1.531,-1.6605,-1.7582,-1.7582,-1.7582,-1.7582,-1.7582,-1.7582,-1.7582,-1.7582,-1.7582,-1.7582,-1.7582,-1.7582,-1.7582,-1.7582,-1.7582,-1.7582,-1.7582,-1.7341,-1.7061,-1.6814,-1.6693,-1.646,-1.5959,-1.8033,-1.9556,-1.9521,-2.1489,-2.2862,-2.3047,-2.3135,-2.3135,-2.3135,-2.3135,-2.3135,-2.3135,-2.3135,-2.3135,-2.3135,-2.3135,-2.3135,-2.3135,-2.3135,-2.3135,-2.3135,-2.4296,-2.5378,-0.8038,-0.8032,-0.7994,-0.7969,-0.8038,-0.8038,-0.8038,0.0,0.0,0.0,0.0,0.0,0.0,0.0,0.0,0.0,0.0,0.0,0.0,0.0,0.0,0.0,0.0,0.0,0.0,0.0,0.0,0.0,0.0,-1.0721,-1.0721,-1.0733,-1.0718,-1.0679,-1.0154,-0.9875,-0.9822,-0.9822,-0.9822,-0.9822,-0.9822,-0.9822,-0.9822,-0.9822,-0.9744,-0.9853,0.0,-0.9645,-0.962,-0.9711,-0.9387,-0.8917,-0.8894,-0.893,-0.894,-0.894,-0.894,-0.894,-0.894,-0.993,-1.1345,-1.1706,-1.3327,-1.531,-1.6823,-1.747,-1.7582,-1.7582,-1.7582,-1.7582,-1.7582,-1.7582,-1.7582,-1.7582,-1.7582,-1.7582,-1.7582,-1.7582,-1.7582,-1.7582,-1.7582,-1.7582,-1.7582,-1.7341,-1.7134,-1.7088,-1.666,-1.6306,-1.6219,-1.7246,-1.8373,-1.9413,-2.0755,-2.2031,-2.3047,-2.3135,-2.3135,-2.3135,-2.3135,-2.3135,-2.3135,-2.3135,-2.3135,-2.3135,-2.3135,-2.3135,-2.3135,-2.3135,-2.3135,-2.3135,-2.4296,-2.5378,-0.8038,-0.7989,-0.8126,-0.8368,-0.8206,-0.8039,-0.7959,0.0,0.0,0.0,0.0,0.0,0.0,0.0,0.0,0.0,0.0,0.0,0.0,0.0,0.0,0.0,0.0,0.0,0.0,0.0,0.0,0.0,0.0,0.0,-1.0721,-1.0656,-1.0514,-1.0156,-0.9949,-0.9804,-0.9822,-0.9822,-0.9822,-0.9822,-0.9822,-0.9822,-0.9822,-0.9822,-0.9788,-0.9847,0.0,-0.9806,-0.9856,-0.978,-0.9415,-0.8912,-0.8947,-0.8947,-0.894,-0.894,-0.894,-0.8933,-0.8896,-0.9537,-1.074,-1.3927,-1.4995,-1.5388,-1.7035,-1.7582,-1.7582,-1.7582,-1.7582,-1.7582,-1.7582,-1.7582,-1.7582,-1.7582,-1.7582,-1.7542,-1.7382,-1.7468,-1.7535,-1.7382,-1.7475,-1.7582,-1.7582,-1.7468,-1.7328,-1.7174,-1.7054,-1.6807,-1.6333,-1.7341,-1.8445,-1.9446,-2.0576,-2.1756,-2.296,-2.3135,-2.3135,-2.3135,-2.3135,-2.3135,-2.3135,-2.3135,-2.3135,-2.3135,-2.3135,-2.3135,-2.3135,-2.3135,-2.3135,-2.3135,-2.4296,-2.5378,-0.8038,-0.7965,-0.8085,-0.8564,0.0,-0.7985,-0.8009,0.0,0.0,0.0,0.0,0.0,0.0,0.0,0.0,0.0,0.0,0.0,0.0,0.0,0.0,0.0,0.0,0.0,0.0,0.0,0.0,0.0,0.0,0.0,-1.067,-1.0639,-1.0497,-0.9976,-0.9929,-0.9804,-0.9822,-0.9822,-0.9822,-0.9822,-0.9822,-0.9822,-0.9822,-0.9822,-0.9822,-0.9822,-0.9822,-0.9822,-0.9812,-0.9827,-0.9551,-0.9129,-0.9134,-0.8984,-0.894,-0.894,-0.9732,-1.0969,-1.0903,-1.0967,-1.1706,-1.6184,-1.658,-1.5701,-1.714,-1.7582,-1.7582,-1.7582,-1.7582,-1.7582,-1.7582,-1.7582,-1.7582,-1.7582,-1.7528,-1.7422,-1.7194,-1.7321,-1.7415,-1.7194,-1.7382,-1.7582,-1.7582,-1.7582,-1.7508,-1.7281,-1.7382,-1.7215,-1.6466,-1.7281,-1.8408,-1.9379,-2.0305,-2.1489,-2.296,-2.3135,-2.3135,-2.3135,-2.3135,-2.3135,-2.3135,-2.3135,-2.3135,-2.3135,-2.3135,-2.3135,-2.3135,-2.3135,-2.3222,-2.3551,-2.4628,-2.5797,-0.8038,-0.8039,-0.8008,-0.8075,-0.8048,0.0,-0.8014,0.0,0.0,0.0,0.0,0.0,0.0,0.0,0.0,0.0,0.0,0.0,0.0,0.0,0.0,0.0,0.0,0.0,0.0,0.0,0.0,0.0,0.0,0.0,-1.0651,-1.0652,-1.063,-1.0589,-1.0057,-0.9842,-0.9822,-0.9822,-0.9822,-0.9822,-0.9822,-0.9822,-0.9822,-0.9822,-0.9822,-0.9822,-0.9822,-0.9822,-0.9822,-0.9812,-0.9761,-0.974,-0.9729,-0.9425,-0.894,-0.894,-1.2348,-1.7014,-1.7007,-1.6965,-1.6989,-1.7443,-1.747,-1.747,-1.7582,-1.7582,-1.7582,-1.7582,-1.7582,-1.7582,-1.7582,-1.7582,-1.7582,-1.7582,-1.7375,-1.7174,-1.7154,-1.7271,-1.7174,-1.7154,-1.7382,-1.7582,-1.7582,-1.7582,-1.7575,-1.7555,-1.7341,-1.7054,-1.672,-1.6558,-1.722,-1.9263,-1.9579,-2.0584,-2.2862,-2.3135,-2.3135,-2.3135,-2.3135,-2.3135,-2.3135,-2.3135,-2.3135,-2.3135,-2.3135,-2.3135,-2.3135,-2.3135,-2.3637,-2.4713,-2.588,-2.6953,-0.8024,-0.8011,-0.8009,-0.7952,0.0,0.0,0.0,0.0,0.0,0.0,0.0,0.0,0.0,0.0,0.0,0.0,0.0,0.0,0.0,0.0,0.0,0.0,0.0,0.0,0.0,0.0,0.0,0.0,0.0,0.0,-1.076,-1.0358,-1.0082,-1.0184,-0.9868,-0.9791,-0.9822,-0.9822,-0.9822,-0.9822,-0.9822,-0.9822,-0.9822,-0.9822,-0.9822,-0.9822,-0.9822,-0.9822,-0.9815,-0.9847,-0.9811,-0.9722,-0.9412,-0.9154,-0.9389,-1.2927,-1.5719,-1.7592,-1.7544,-1.7642,-1.7549,-1.7576,-1.7622,-1.7582,-1.7582,-1.7582,-1.7582,-1.7582,-1.7582,-1.7582,-1.7582,-1.7582,-1.7582,-1.7582,-1.7361,-1.7094,-1.6914,-1.6874,-1.6874,-1.6874,-1.7108,-1.7368,-1.7549,-1.7582,-1.7582,-1.7582,-1.7488,-1.7315,-1.7021,-1.6887,-1.7598,-1.9512,-2.0905,-2.2138,-2.3047,-2.3135,-2.3135,-2.3135,-2.3135,-2.3135,-2.3135,-2.3135,-2.3135,-2.3135,-2.3135,-2.3135,-2.3135,-2.3135,-2.3724,-2.4872,-2.5964,-2.7046,-0.7902,-0.7963,-0.8038,0.0,0.0,0.0,0.0,0.0,0.0,0.0,0.0,0.0,0.0,0.0,0.0,0.0,0.0,0.0,0.0,0.0,0.0,0.0,0.0,0.0,0.0,0.0,0.0,0.0,0.0,0.0,0.0,-1.0025,-0.9751,-0.9854,-0.9851,-0.9801,-0.9822,-0.9822,-0.9822,-0.9822,-0.9822,-0.9822,-0.9822,-0.9822,-0.9822,-0.9819,-0.9774,-0.9754,-0.9744,-0.9842,-0.969,-0.9519,-0.9039,-0.8923,-0.9585,-1.5465,-1.7566,-1.7583,-1.7622,-1.7643,-1.7596,-1.7609,-1.7582,-1.7582,-1.7582,-1.7582,-1.7582,-1.7582,-1.7582,-1.7582,-1.7582,-1.7582,-1.7562,-1.7468,-1.7221,-1.6927,-1.6633,-1.6567,-1.66,-1.6687,-1.6947,-1.7241,-1.7528,-1.7582,-1.7582,-1.7582,-1.7582,-1.7475,-1.7188,-1.7148,-1.7902,-1.9722,-2.2053,-2.3437,-2.3164,-2.3262,-2.3291,-2.3144,-2.3135,-2.3135,-2.3135,-2.3135,-2.3135,-2.3135,-2.3135,-2.3135,-2.3135,-2.3474,-2.4211,-2.5378,-2.6461,-2.7614,-0.7796,-0.8038,0.0,0.0,0.0,0.0,0.0,0.0,0.0,0.0,0.0,0.0,0.0,0.0,0.0,0.0,0.0,0.0,0.0,0.0,0.0,0.0,0.0,0.0,0.0,0.0,0.0,0.0,0.0,0.0,0.0,-0.9745,-0.9851,-0.9825,-0.9822,-0.9822,-0.9822,-0.9822,-0.9822,-0.9822,-0.9822,-0.9822,-0.9822,-0.9822,-0.9822,-0.9812,-0.9796,-0.9853,-0.9839,-0.9803,-0.9408,-0.8904,-0.888,-0.8896,-0.9625,-1.5436,-1.7564,-1.7562,-1.7562,-1.7583,-1.7582,-1.7582,-1.7582,-1.7582,-1.7582,-1.7582,-1.7582,-1.7582,-1.7582,-1.7582,-1.7582,-1.7582,-1.7508,-1.7215,-1.6921,-1.6627,-1.6333,-1.6273,-1.6359,-1.6647,-1.6941,-1.7241,-1.7528,-1.7582,-1.7582,-1.7582,-1.7582,-1.7475,-1.7188,-1.725,-1.7909,-1.9738,-2.2537,-2.4072,-2.3125,-2.3535,-2.3603,-2.3164,-2.3135,-2.3135,-2.3135,-2.3135,-2.3135,-2.3135,-2.3135,-2.3135,-2.3135,-2.4211,-2.5378,-2.6565,-2.7602,-2.8688,-0.7997,0.0,0.0,0.0,0.0,0.0,0.0,0.0,0.0,0.0,0.0,0.0,0.0,0.0,0.0,0.0,0.0,0.0,0.0,0.0,0.0,0.0,0.0,0.0,0.0,0.0,0.0,0.0,0.0,0.0,0.0,-0.9971,-0.9744,-0.9822,-0.9822,-0.9822,-0.9822,-0.9822,-0.9822,-0.9822,-0.9822,-0.9822,-0.9822,-0.9822,-0.9768,-0.9792,-0.9751,-0.9547,-0.9195,-0.9164,-0.9017,-0.8883,-0.8954,-0.8896,-0.9618,-1.5458,-1.76,-1.7549,-1.7563,-1.7615,-1.7582,-1.7582,-1.7582,-1.7582,-1.7582,-1.7582,-1.7582,-1.7582,-1.7582,-1.7582,-1.7582,-1.7428,-1.7255,-1.7174,-1.6921,-1.6627,-1.6333,-1.6112,-1.6106,-1.6607,-1.6774,-1.6994,-1.7495,-1.7582,-1.7582,-1.7582,-1.7582,-1.7549,-1.7462,-1.8086,-1.8672,-1.9163,-2.1208,-2.2474,-2.2235,-2.2885,-2.3271,-2.3144,-2.3135,-2.3135,-2.3135,-2.3135,-2.3135,-2.3135,-2.3135,-2.3135,-2.3135,-2.4211,-2.5378,-2.6565,-2.7602,-2.8688,-0.8014,0.0,0.0,0.0,0.0,0.0,0.0,0.0,0.0,0.0,0.0,0.0,0.0,0.0,0.0,0.0,0.0,0.0,0.0,0.0,0.0,0.0,0.0,0.0,0.0,0.0,0.0,0.0,0.0,0.0,0.0,-0.9907,-0.9822,-0.9822,-0.9822,-0.9822,-0.9822,-0.9822,-0.9822,-0.9822,-0.9768,-0.9858,-0.9858,-0.9858,-0.9782,-0.9759,-0.9576,-0.9225,-0.885,-0.8874,-0.8903,-0.8937,-0.8906,-0.8855,-0.957,-1.5462,-1.7595,-1.7583,-1.7609,-1.7582,-1.7582,-1.7582,-1.7582,-1.7582,-1.7582,-1.7582,-1.7582,-1.7582,-1.7582,-1.7582,-1.7582,-1.7368,-1.7121,-1.7001,-1.6747,-1.6453,-1.6159,-1.6046,-1.6146,-1.6613,-1.68,-1.7034,-1.7502,-1.7582,-1.7582,-1.7582,-1.7582,-1.7582,-1.7582,-1.8551,-1.9189,-1.9063,-2.0671,-2.1768,-2.1785,-2.2409,-2.2862,-2.3067,-2.3135,-2.3135,-2.3135,-2.3135,-2.3135,-2.3135,-2.3135,-2.3135,-2.3135,-2.4723,-2.5797,-2.6565,-2.8028,-2.9106,0.0,0.0,0.0,0.0,0.0,0.0,0.0,0.0,0.0,0.0,0.0,0.0,0.0,0.0,0.0,0.0,0.0,0.0,0.0,0.0,0.0,0.0,0.0,0.0,0.0,0.0,0.0,0.0,0.0,0.0,0.0,-0.9897,-0.9822,-0.9822,-0.9822,-0.9822,-0.9822,-0.9822,-0.9815,-0.9802,-0.9796,-0.9839,-0.9815,-0.9829,-0.9749,-0.9708,-0.9084,-0.8943,-0.894,-0.894,-0.894,-0.8933,-0.8862,-0.924,-1.0285,-1.5696,-1.7589,-1.7582,-1.7582,-1.7582,-1.7582,-1.7582,-1.7582,-1.7582,-1.7582,-1.7582,-1.7582,-1.7582,-1.7562,-1.7549,-1.7575,-1.7328,-1.7007,-1.6767,-1.6506,-1.6233,-1.5932,-1.6099,-1.64,-1.6687,-1.6941,-1.7208,-1.7528,-1.7562,-1.7555,-1.7582,-1.7582,-1.7582,-1.7582,-1.8708,-1.9317,-1.8927,-2.0428,-2.1502,-2.1751,-2.2107,-2.2621,-2.3154,-2.3164,-2.3135,-2.3135,-2.3135,-2.3135,-2.3135,-2.3135,-2.3135,-2.3144,-2.5389,-2.6483,-2.6554,-2.8791,-2.9792,0.0,0.0,0.0,0.0,0.0,0.0,0.0,0.0,0.0,0.0,0.0,0.0,0.0,0.0,0.0,0.0,0.0,0.0,0.0,0.0,0.0,0.0,0.0,0.0,0.0,0.0,0.0,0.0,0.0,0.0,-0.9869,-0.9839,-0.9822,-0.9822,-0.9822,-0.9822,-0.9822,-0.9822,-0.9768,0.0,-0.9748,-0.9845,-0.9842,-0.9852,-0.9582,-0.9074,-0.8933,-0.8856,-0.894,-0.894,-0.894,-0.8933,-0.8862,-1.1738,-1.5833,-1.7128,-1.7589,-1.7582,-1.7582,-1.7582,-1.7582,-1.7582,-1.7582,-1.7582,-1.7582,-1.7582,-1.7582,-1.7582,-1.7422,-1.7295,-1.7522,-1.7027,-1.65,-1.6667,-1.666,-1.6533,-1.6239,-1.6406,-1.67,-1.7001,-1.6914,-1.6967,-1.7488,-1.7395,-1.7321,-1.7549,-1.7582,-1.7582,-1.7582,-1.7891,-1.7969,-1.7907,-1.8957,-2.0053,-2.1095,-2.1681,-2.2456,-2.3573,-2.333,-2.3135,-2.3135,-2.3135,-2.3135,-2.3135,-2.3135,-2.3135,-2.3144,-2.5389,-2.6483,-2.6554,-2.8791,-2.9792,0.0,0.0,0.0,0.0,0.0,0.0,0.0,0.0,0.0,0.0,0.0,0.0,0.0,0.0,0.0,0.0,0.0,0.0,0.0,0.0,0.0,0.0,0.0,0.0,0.0,0.0,0.0,0.0,0.0,-0.9822,-0.9822,-0.9822,-0.9822,-0.9822,-0.9822,-0.9822,-0.9822,-0.9754,-0.9806,-0.9853,-0.9462,-0.9387,-0.9398,-0.9366,-0.9243,-0.893,-0.886,-0.894,-0.894,-0.894,-0.894,-0.893,-0.8937,-1.2497,-1.762,-1.7649,-1.7642,-1.7582,-1.7582,-1.7582,-1.7582,-1.7582,-1.7582,-1.7582,-1.7582,-1.7582,-1.7582,-1.7582,-1.7475,-1.7388,-1.7542,-1.7034,-1.652,-1.6667,-1.6493,-1.6279,-1.6279,-1.6393,-1.6587,-1.6881,-1.6927,-1.7014,-1.7321,-1.7248,-1.74,-1.8163,-1.8161,-1.8259,-1.8853,-1.9088,-1.8986,-1.8391,-1.9483,-2.044,-2.0679,-2.1579,-2.2511,-2.3417,-2.3262,-2.3135,-2.3135,-2.3135,-2.3135,-2.3135,-2.3135,-2.3387,-2.3877,-2.5641,-2.6801,-2.729,-2.904,-2.9792,0.0,0.0,0.0,0.0,0.0,0.0,0.0,0.0,0.0,0.0,0.0,0.0,0.0,0.0,0.0,0.0,0.0,0.0,0.0,0.0,0.0,0.0,0.0,0.0,0.0,0.0,0.0,0.0,0.0,-0.9808,-0.9785,-0.9785,-0.9771,-0.9744,-0.9744,-0.9747,-0.9747,-0.9755,-0.9801,-0.9648,-0.9131,-0.8937,-0.894,-0.894,-0.894,-0.894,-0.894,-0.894,-0.894,-0.894,-0.8933,-0.8906,-0.8893,-1.2445,-1.7587,-1.7563,-1.7582,-1.7582,-1.7582,-1.7582,-1.7582,-1.7582,-1.7582,-1.7582,-1.7582,-1.7582,-1.7582,-1.7582,-1.7508,-1.7455,-1.7555,-1.7068,-1.658,-1.668,-1.6259,-1.5912,-1.6213,-1.6313,-1.642,-1.666,-1.6947,-1.723,-1.7381,-1.7517,-1.7974,-1.9216,-1.9094,-1.9251,-2.037,-2.0769,-2.0424,-1.936,-2.0596,-2.1321,-2.082,-2.1682,-2.2603,-2.3203,-2.3184,-2.3135,-2.3135,-2.3135,-2.3135,-2.3135,-2.3135,-2.3627,-2.4787,-2.5964,-2.7046,-2.8096,-2.9275,-2.9792,0.0,0.0,0.0,0.0,0.0,0.0,0.0,0.0,0.0,0.0,0.0,0.0,0.0,0.0,0.0,0.0,0.0,0.0,0.0,0.0,0.0,0.0,0.0,0.0,0.0,0.0,0.0,0.0,-0.9822,-0.9768,-0.9523,-0.9516,-0.9456,-0.9445,-0.9439,-0.9559,-0.9799,-0.9782,-0.9582,-0.8977,-0.893,-0.8846,-0.894,-0.894,-0.894,-0.894,-0.894,-0.894,-0.894,-0.894,-0.8903,-0.8951,-0.8872,-1.2407,-1.7569,-1.7635,-1.7582,-1.7582,-1.7582,-1.7582,-1.7582,-1.7582,-1.7582,-1.7582,-1.7582,-1.7582,-1.7582,-1.7582,-1.7215,-1.6941,-1.7448,-1.6767,-1.6072,-1.6587,-1.6259,-1.5912,-1.6213,-1.6473,-1.666,-1.67,-1.6947,-1.7469,-1.8372,-1.8662,-1.934,-2.103,-2.0613,-2.0297,-2.0892,-2.0703,-2.0451,-2.0257,-2.0403,-2.0967,-2.2037,-2.2017,-2.2428,-2.3621,-2.335,-2.3135,-2.3135,-2.3135,-2.3135,-2.3135,-2.3135,-2.3627,-2.4787,-2.5964,-2.7046,-2.8096,-2.9275,-2.9792,0.0,0.0,0.0,0.0,0.0,0.0,0.0,0.0,0.0,0.0,0.0,0.0,0.0,0.0,0.0,0.0,0.0,0.0,0.0,0.0,0.0,0.0,0.0,0.0,0.0,0.0,0.0,0.0,-0.9453,-0.9426,-0.9486,-0.9362,-0.9212,-0.9142,-0.9142,-0.9142,-0.9262,-0.9296,-0.9178,-0.8917,-0.8856,-0.894,-0.894,-0.894,-0.894,-0.894,-0.894,-0.894,-0.894,-0.894,-0.8896,-0.9275,-1.2497,-1.5296,-1.7649,-1.7629,-1.7582,-1.7582,-1.7582,-1.7582,-1.7582,-1.7582,-1.7582,-1.7582,-1.7582,-1.7582,-1.7549,-1.7382,-1.7268,-1.7181,-1.7108,-1.6707,-1.6346,-1.644,-1.6139,-1.5865,-1.5999,-1.6126,-1.6313,-1.664,-1.7403,-1.8153,-1.9063,-1.9598,-2.045,-2.2189,-2.1987,-2.1977,-2.2822,-2.299,-2.2649,-2.1666,-2.2405,-2.2749,-2.2128,-2.2594,-2.3043,-2.3349,-2.3242,-2.3135,-2.3135,-2.3135,-2.3135,-2.3135,-2.3135,-2.3973,-2.5714,-2.6224,-2.7383,-2.9028,-2.9534,-2.9792,0.0,0.0,0.0,0.0,0.0,0.0,0.0,0.0,0.0,0.0,0.0,0.0,0.0,0.0,0.0,0.0,0.0,0.0,0.0,0.0,0.0,0.0,0.0,0.0,0.0,0.0,0.0,0.0,-0.9262,-0.9245,-0.9442,-0.932,-0.9069,-0.8915,-0.8912,-0.8912,-0.8912,-0.8921,-0.8927,-0.894,-0.894,-0.8916,-0.8882,-0.892,-0.8916,-0.8882,-0.892,-0.894,-0.8937,-0.892,-0.8872,-0.9476,-1.5366,-1.7628,-1.7609,-1.7615,-1.7528,-1.7364,-1.7555,-1.7482,-1.7375,-1.7535,-1.7528,-1.7482,-1.7562,-1.7582,-1.7522,-1.7235,-1.7248,-1.7275,-1.6914,-1.6653,-1.6466,-1.64,-1.6099,-1.5832,-1.5832,-1.6164,-1.6539,-1.6993,-1.8269,-1.9514,-2.0428,-2.0802,-2.1665,-2.3322,-2.3155,-2.3252,-2.4302,-2.4697,-2.4352,-2.2879,-2.3973,-2.4054,-2.2299,-2.3076,-2.3486,-2.3154,-2.3135,-2.3135,-2.3135,-2.3135,-2.3135,-2.3135,-2.3135,-2.4059,-2.6058,-2.6389,-2.7464,-2.9365,-2.9702,-2.9792,0.0,0.0,0.0,0.0,0.0,0.0,0.0,0.0,0.0,0.0,0.0,0.0,0.0,0.0,0.0,0.0,0.0,0.0,0.0,0.0,0.0,0.0,0.0,0.0,0.0,0.0,0.0,0.0,-0.9262,-0.9317,-0.9171,-0.9164,-0.9103,-0.8853,-0.885,-0.885,-0.885,-0.8954,-0.8947,-0.894,-0.894,-0.8866,-0.8949,-0.8872,-0.8862,-0.8953,-0.8876,-0.894,-0.8933,-0.8869,-0.891,-0.9507,-1.5357,-1.7603,-1.7589,-1.7589,-1.7284,-1.6852,-1.737,-1.7098,-1.6612,-1.7395,-1.7395,-1.7221,-1.7502,-1.7582,-1.7522,-1.7235,-1.6954,-1.6807,-1.7061,-1.6506,-1.6012,-1.6553,-1.6246,-1.5832,-1.5832,-1.7077,-1.8155,-1.8185,-1.9747,-2.1483,-2.2832,-2.2694,-2.2939,-2.4706,-2.4263,-2.3874,-2.4365,-2.4434,-2.4287,-2.3777,-2.3838,-2.3672,-2.3115,-2.3086,-2.3164,-2.3135,-2.3135,-2.3135,-2.3135,-2.3135,-2.3135,-2.3135,-2.3135,-2.3724,-2.4872,-2.5964,-2.7046,-2.8176,-2.9287,-2.9792,0.0,0.0,0.0,0.0,0.0,0.0,0.0,0.0,0.0,0.0,0.0,0.0,0.0,0.0,0.0,0.0,0.0,0.0,0.0,0.0,0.0,0.0,0.0,0.0,0.0,0.0,0.0,0.0,0.0,-0.9032,-0.8876,-0.8869,-0.8801,-0.8652,-0.874,-0.8794,-0.8794,-0.8807,-0.8866,-0.8866,-0.8866,-0.8945,-0.8899,-0.8501,-0.8487,-0.8899,-0.8726,-0.8712,-0.8855,-0.8862,-1.1137,-1.4652,-1.6778,-1.7549,-1.7555,-1.714,-1.6652,-1.6099,-1.6356,-1.6537,-1.662,-1.6488,-1.6596,-1.6658,-1.6764,-1.6905,-1.7001,-1.6894,-1.6927,-1.6974,-1.6887,-1.6774,-1.688,-1.7768,-1.7793,-1.7911,-1.8858,-1.8941,-1.9079,-1.9948,-2.1324,-2.2496,-2.3,-2.3446,-2.3992,-2.5,-2.4805,-2.4766,-2.5205,-2.5264,-2.499,-2.4268,-2.4199,-2.3906,-2.3193,-2.3135,-2.3135,-2.3135,-2.3135,-2.3135,-2.3135,-2.3135,-2.3135,-2.3135,-2.3135,-2.3627,-2.4787,-2.5964,-2.7046,-2.8096,-2.9275,-2.9792,0.0,0.0,0.0,0.0,0.0,0.0,0.0,0.0,0.0,0.0,0.0,0.0,0.0,0.0,0.0,0.0,0.0,0.0,0.0,0.0,0.0,0.0,0.0,0.0,0.0,0.0,0.0,0.0,0.0,0.0,-0.872,-0.871,-0.8638,-0.8486,-0.8581,-0.8632,-0.8632,-0.8642,-0.8699,-0.8699,-0.8591,-0.8567,-0.863,-0.813,-0.8332,-0.8841,-0.9365,-0.9246,-0.8779,-1.095,-1.3893,-1.701,-1.7468,-1.7558,-1.7502,-1.6945,-1.6361,-1.5815,-1.606,-1.6242,-1.6334,-1.6188,-1.6195,-1.6355,-1.6454,-1.666,-1.6834,-1.6734,-1.6921,-1.7108,-1.6907,-1.7401,-1.7971,-1.8533,-1.9117,-1.9873,-2.134,-2.1047,-2.0826,-2.1705,-2.3001,-2.3897,-2.3897,-2.4336,-2.4736,-2.5029,-2.5068,-2.5176,-2.5478,-2.5644,-2.54,-2.4512,-2.4414,-2.4072,-2.3213,-2.3135,-2.3135,-2.3135,-2.3135,-2.3135,-2.3135,-2.3135,-2.3135,-2.3135,-2.3135,-2.3464,-2.4211,-2.5724,-2.6883,-2.7614,-2.9118,-2.9792,0.0,0.0,0.0,0.0,0.0,0.0,0.0,0.0,0.0,0.0,0.0,0.0,0.0,0.0,0.0,0.0,0.0,0.0,0.0,0.0,0.0,0.0,0.0,0.0,0.0,0.0,0.0,0.0,-0.8951,-0.8859,-0.8706,-0.8693,-0.8625,-0.8479,-0.8472,-0.8472,-0.8476,-0.8364,-0.8256,-0.8252,-0.8144,-0.7969,-0.7952,-0.7982,-0.8183,-0.8681,-1.0936,-1.0472,-0.8691,-1.4956,-1.6892,-1.5885,-1.7095,-1.7503,-1.7503,-1.692,-1.6289,-1.5869,-1.6474,-1.6306,-1.5925,-1.6493,-1.6486,-1.6313,-1.6593,-1.6881,-1.7054,-1.678,-1.6914,-1.7141,-1.7257,-1.8164,-1.9175,-1.8852,-2.0075,-2.1599,-2.3018,-2.3317,-2.3405,-2.3414,-2.4648,-2.5732,-2.5723,-2.5361,-2.5068,-2.5068,-2.5068,-2.5068,-2.5088,-2.5469,-2.54,-2.4521,-2.4424,-2.4072,-2.3232,-2.3144,-2.3135,-2.3135,-2.3135,-2.3135,-2.3135,-2.3135,-2.3135,-2.3135,-2.3135,-2.3135,-2.3144,-2.5389,-2.6483,-2.6554,-2.8791,-2.9792,0.0,0.0,0.0,0.0,0.0,0.0,0.0,0.0,0.0,0.0,0.0,0.0,0.0,0.0,0.0,0.0,0.0,0.0,0.0,0.0,0.0,0.0,0.0,0.0,0.0,0.0,0.0,0.0,-0.8744,-0.8871,-0.8616,-0.8392,-0.8258,-0.8326,-0.8221,-0.8214,-0.833,-0.8218,-0.8059,-0.8059,-0.8056,-0.8039,-0.8006,-0.8047,-0.9063,-1.0952,-1.0961,-1.1954,-1.3756,-1.5562,-1.6051,-1.584,-1.6157,-1.6295,-1.6234,-1.6131,-1.5901,-1.581,-1.6009,-1.5965,-1.5852,-1.6019,-1.6019,-1.5965,-1.6046,-1.6126,-1.6266,-1.6613,-1.6767,-1.6927,-1.7355,-1.8483,-1.9668,-2.0676,-2.1725,-2.2974,-2.4676,-2.4804,-2.467,-2.4986,-2.5353,-2.5635,-2.5312,-2.5146,-2.5068,-2.5068,-2.5068,-2.5185,-2.5508,-2.5664,-2.5518,-2.4941,-2.5329,-2.5087,-2.3742,-2.4068,-2.3963,-2.3135,-2.3135,-2.3464,-2.4296,-2.3551,-2.3474,-2.4286,-2.3551,-2.3135,-2.3135,-2.4553,-2.5714,-2.6554,-2.8791,-2.9792,0.0,0.0,0.0,0.0,0.0,0.0,-0.7985,-0.8041,0.0,0.0,0.0,0.0,0.0,0.0,0.0,0.0,0.0,0.0,0.0,0.0,0.0,0.0,0.0,0.0,0.0,-0.8133,-0.8253,-0.8279,-0.8404,-0.8525,-0.8487,-0.8126,-0.8079,-0.817,-0.8085,-0.8082,-0.8174,-0.8085,-0.8038,-0.8038,-0.8038,-0.8038,-0.8041,-0.8029,-0.913,-1.1142,-1.1123,-1.2583,-1.5038,-1.5536,-1.5776,-1.5778,-1.5822,-1.5758,-1.5771,-1.5816,-1.5763,-1.584,-1.5783,-1.5832,-1.5832,-1.5832,-1.5832,-1.5832,-1.5832,-1.5912,-1.6112,-1.6573,-1.6881,-1.725,-1.8206,-1.942,-2.0845,-2.2165,-2.3314,-2.4416,-2.5479,-2.5527,-2.543,-2.5684,-2.5742,-2.5654,-2.5391,-2.5352,-2.5352,-2.5352,-2.5352,-2.5439,-2.5703,-2.5576,-2.5474,-2.5478,-2.5653,-2.5545,-2.501,-2.5296,-2.5221,-2.4563,-2.4563,-2.4808,-2.5462,-2.4893,-2.4808,-2.5462,-2.4893,-2.4563,-2.4563,-2.4713,-2.5619,-2.7209,-2.8961,-2.9792,0.0,0.0,0.0,0.0,0.0,0.0,-0.716,-0.7563,-0.7969,0.0,0.0,0.0,0.0,0.0,0.0,0.0,0.0,0.0,0.0,0.0,0.0,0.0,0.0,0.0,-0.7958,-0.8041,-0.8034,-0.8034,-0.804,-0.8056,-0.8252,-0.8113,-0.8038,-0.8038,-0.8038,-0.8038,-0.8038,-0.8038,-0.8038,-0.8038,-0.8038,-0.8038,-0.8038,-0.8137,-0.892,-1.0293,-1.1556,-1.2915,-1.4166,-1.5337,-1.5832,-1.5832,-1.5832,-1.5832,-1.5832,-1.5832,-1.5832,-1.5832,-1.5832,-1.5832,-1.5832,-1.5832,-1.5832,-1.5832,-1.5832,-1.6039,-1.6339,-1.666,-1.7154,-1.7891,-1.922,-2.0641,-2.2055,-2.3384,-2.4679,-2.5674,-2.5723,-2.5693,-2.5674,-2.5723,-2.5742,-2.5742,-2.5742,-2.5742,-2.5742,-2.5742,-2.5742,-2.5742,-2.5742,-2.5477,-2.5638,-2.6222,-2.6108,-2.6152,-2.6601,-2.6749,-2.6693,-2.6483,-2.6483,-2.6554,-2.6637,-2.6554,-2.6565,-2.6637,-2.6554,-2.6483,-2.6483,-2.563,-2.6191,-2.8096,-2.9275,-2.9792,0.0,0.0,0.0,0.0,0.0,0.0,-0.1603,-0.4918,-0.7972,0.0,0.0,0.0,0.0,0.0,0.0,0.0,0.0,0.0,0.0,0.0,0.0,0.0,0.0,0.0,-0.8067,-0.7951,-0.7982,-0.7982,-0.8009,-0.8012,-0.8085,-0.8055,-0.8038,-0.8038,-0.8038,-0.8038,-0.8038,-0.8038,-0.8038,-0.8038,-0.8038,-0.8038,-0.8038,-0.9118,-1.0288,-1.1556,-1.2909,-1.4268,-1.5439,-1.573,-1.5832,-1.5832,-1.5832,-1.5832,-1.5832,-1.5832,-1.5832,-1.5832,-1.5832,-1.5832,-1.5832,-1.5832,-1.5832,-1.5832,-1.5832,-1.6039,-1.638,-1.6914,-1.7315,-1.7891,-1.922,-2.0641,-2.2055,-2.3384,-2.4444,-2.5293,-2.5664,-2.5449,-2.5303,-2.5664,-2.5742,-2.5742,-2.5742,-2.5742,-2.5742,-2.5742,-2.5742,-2.5742,-2.5742,-2.6491,-2.7139,-2.7327,-2.8589,-2.8959,-2.7768,-2.8122,-2.7882,-2.6588,-2.6483,-2.6883,-2.7763,-2.6964,-2.6883,-2.7763,-2.6964,-2.6483,-2.6483,-2.7105,-2.7671,-2.8096,-2.9275,-2.9792,0.0,0.0,0.0,0.0,0.0,0.0,0.0,-0.2106,-0.4818,-0.7459,0.0,0.0,0.0,0.0,0.0,0.0,0.0,0.0,0.0,0.0,0.0,0.0,0.0,0.0,-0.8063,-0.8031,-0.8019,-0.8045,-0.8038,-0.8038,-0.8038,-0.8038,-0.8038,-0.8038,-0.8038,-0.8038,-0.8038,-0.8038,-0.8038,-0.8038,-0.8726,-0.9019,-0.9019,-1.0386,-1.1653,-1.2909,-1.359,-1.4657,-1.5832,-1.5832,-1.5832,-1.5832,-1.5832,-1.5832,-1.5832,-1.5832,-1.5832,-1.5832,-1.5832,-1.5832,-1.5832,-1.5832,-1.5832,-1.5832,-1.5832,-1.6139,-1.6779,-1.7922,-1.837,-1.9117,-2.1151,-2.2165,-2.3076,-2.4402,-2.5053,-2.5459,-2.5684,-2.5557,-2.5469,-2.5693,-2.5742,-2.5742,-2.5742,-2.5742,-2.5742,-2.5742,-2.5742,-2.5917,-2.6572,-2.7013,-2.7686,-2.8856,-2.966,-2.9855,-2.9332,-2.9552,-2.9379,-2.8617,-2.8274,-2.8491,-2.9328,-2.8595,-2.8371,-2.8937,-2.845,-2.8131,-2.8131,-2.87,-2.8688,-2.8096,-2.9275,-2.9792,0.0,0.0,0.0,0.0,0.0,0.0,0.0,0.0,0.0,-0.6851,0.0,0.0,0.0,0.0,0.0,0.0,0.0,0.0,0.0,0.0,0.0,0.0,0.0,0.0,-0.8226,-0.8097,-0.7968,-0.8048,-0.8038,-0.8038,-0.8038,-0.8038,-0.8038,-0.8038,-0.8038,-0.8038,-0.8038,-0.8038,-0.8038,-0.8038,-0.9106,-0.9998,-1.0618,-1.1658,-1.2807,-1.3878,-1.4166,-1.4854,-1.5832,-1.5832,-1.5832,-1.5832,-1.5832,-1.5832,-1.5832,-1.5832,-1.5832,-1.5832,-1.5832,-1.5832,-1.5832,-1.5832,-1.5832,-1.5852,-1.5965,-1.6522,-1.7369,-1.8831,-1.963,-2.0538,-2.3076,-2.3692,-2.3998,-2.543,-2.5742,-2.5742,-2.5742,-2.5742,-2.5742,-2.5742,-2.5742,-2.5742,-2.5742,-2.5742,-2.5742,-2.5742,-2.5742,-2.6207,-2.74,-2.744,-2.8181,-3.0331,-3.0493,-3.0516,-3.0741,-3.0859,-3.0834,-3.0633,-3.0294,-3.0256,-3.0608,-3.008,-2.9792,-2.9792,-2.9792,-2.9792,-2.9792,-2.9792,-2.9365,-2.8426,-2.9365,-2.9792,0.0,0.0,0.0,0.0,0.0,0.0,0.0,0.0,-0.1508,-0.6862,0.0,0.0,0.0,0.0,0.0,0.0,0.0,0.0,0.0,0.0,0.0,0.0,0.0,0.0,0.0,-0.8362,-0.7959,-0.8041,-0.8038,-0.8038,-0.8038,-0.8038,-0.8038,-0.8038,-0.8038,-0.8038,-0.8038,-0.8038,-0.8038,-0.8038,-0.8185,-0.9895,-1.2822,-1.3039,-1.3358,-1.3968,-1.5051,-1.5635,-1.5832,-1.5832,-1.5832,-1.5832,-1.5832,-1.5832,-1.5832,-1.5832,-1.5832,-1.5832,-1.5832,-1.5832,-1.5832,-1.5832,-1.5832,-1.5925,-1.6446,-1.7527,-1.8577,-1.9301,-2.0507,-2.1853,-2.3285,-2.3692,-2.3998,-2.543,-2.5742,-2.5742,-2.5742,-2.5742,-2.5742,-2.5742,-2.5742,-2.5742,-2.5742,-2.5742,-2.5742,-2.5742,-2.5742,-2.6207,-2.74,-2.8451,-2.9591,-3.095,-3.2092,-3.2369,-3.1386,-3.175,-3.1625,-3.067,-3.0984,-3.1035,-3.0633,-3.008,-2.9792,-2.9792,-2.9792,-2.9792,-2.9792,-2.9792,-2.9702,-2.9624,-2.9714,-2.9792,0.0,0.0,0.0,0.0,0.0,0.0,0.0,0.0,-0.1508,0.0,0.0,0.0,0.0,0.0,0.0,0.0,-0.8035,0.0,0.0,0.0,0.0,0.0,0.0,0.0,0.0,0.0,0.0,0.0,-0.8038,-0.8038,-0.8038,-0.8038,-0.8038,-0.8038,-0.8038,-0.8038,-0.8038,-0.8038,-0.8021,-0.7991,-0.8031,-0.96,-1.2533,-1.4058,-1.4835,-1.5045,-1.5534,-1.5832,-1.5832,-1.5832,-1.5832,-1.5832,-1.5832,-1.5832,-1.5832,-1.5832,-1.5832,-1.5832,-1.5832,-1.5832,-1.5832,-1.5832,-1.6501,-1.729,-1.7695,-1.8611,-1.9734,-2.1139,-2.2042,-2.2733,-2.4137,-2.4723,-2.502,-2.5538,-2.5742,-2.5742,-2.5742,-2.5742,-2.5742,-2.5742,-2.5742,-2.5742,-2.5742,-2.5742,-2.5742,-2.5742,-2.6294,-2.721,-2.8495,-2.9432,-3.0614,-3.2115,-3.2498,-3.2378,-3.1901,-3.2077,-3.2026,-3.1574,-3.1449,-3.1009,-3.0168,-2.9917,-2.9792,-2.9792,-2.9792,-2.9792,-2.9792,-2.9792,-2.9792,-2.9792,-2.9792,-2.9792,0.0,0.0,0.0,0.0,0.0,0.0,0.0,0.0,0.0,0.0,0.0,0.0,0.0,0.0,0.0,0.0,0.0,-0.8038,0.0,0.0,0.0,0.0,0.0,0.0,0.0,0.0,0.0,-0.8038,-0.8038,-0.8038,-0.8038,-0.8038,-0.8038,-0.8038,-0.8038,-0.8038,-0.8038,-0.8024,-0.7994,-0.8052,-0.949,-1.1144,-1.303,-1.4924,-1.5832,-1.5832,-1.5832,-1.5832,-1.5832,-1.5832,-1.5832,-1.5832,-1.5832,-1.5832,-1.5832,-1.5832,-1.5832,-1.5832,-1.5832,-1.5832,-1.5832,-1.5832,-1.7044,-1.8573,-1.8694,-1.9693,-2.1121,-2.2761,-2.3453,-2.3957,-2.4957,-2.5488,-2.5742,-2.5742,-2.5742,-2.5742,-2.5742,-2.5742,-2.5742,-2.5742,-2.5742,-2.5742,-2.5742,-2.6014,-2.6197,-2.6197,-2.7305,-2.8495,-2.9772,-3.0349,-3.1255,-3.2932,-3.2704,-3.239,-3.2227,-3.2353,-3.2453,-3.2453,-3.1926,-3.1273,-3.0482,-3.0319,-3.0168,-3.0018,-3.0018,-2.9942,-2.9792,-3.0075,-3.0216,-3.0216,-2.9934,-2.9792,0.0,0.0,0.0,0.0,0.0,0.0,0.0,0.0,-0.0789,0.0,0.0,0.0,0.0,0.0,0.0,0.0,0.0,0.0,0.0,0.0,0.0,0.0,0.0,0.0,0.0,0.0,-0.8038,-0.8038,-0.8038,-0.8038,-0.8038,-0.8038,-0.8038,-0.8038,-0.8038,-0.8038,-0.8038,-0.7984,-0.7957,-0.8052,-1.3141,-1.5588,-1.5684,-1.5777,-1.5832,-1.5832,-1.5832,-1.5832,-1.5832,-1.5832,-1.5832,-1.5832,-1.5832,-1.5832,-1.5832,-1.5832,-1.5832,-1.5832,-1.5832,-1.5832,-1.5832,-1.5832,-1.7289,-1.8993,-1.8769,-2.0712,-2.3141,-2.3556,-2.459,-2.5616,-2.5713,-2.5723,-2.5742,-2.5742,-2.5742,-2.5742,-2.5742,-2.5742,-2.5742,-2.5742,-2.5742,-2.5742,-2.5742,-2.6754,-2.7494,-2.7494,-2.8588,-2.9772,-3.0944,-3.1199,-3.1665,-3.2982,-3.3056,-3.2817,-3.2265,-3.2729,-3.3056,-3.3056,-3.2503,-3.2177,-3.2139,-3.1625,-3.1097,-3.0595,-3.0583,-3.0331,-2.9792,-3.0696,-3.118,-3.1106,-3.0203,-2.9792,0.0,0.0,0.0,0.0,0.0,0.0,0.0,0.0,0.0,0.0,0.0,0.0,0.0,0.0,0.0,0.0,0.0,0.0,0.0,0.0,0.0,0.0,0.0,0.0,0.0,0.0,0.0,-0.8038,-0.8038,-0.8038,-0.8038,-0.8038,-0.8038,-0.8038,-0.8038,-0.8021,-0.7984,-0.7963,-0.9739,-1.3147,-1.4973,-1.5761,-1.579,-1.5845,-1.5832,-1.5832,-1.5832,-1.5832,-1.5832,-1.5832,-1.5832,-1.5832,-1.5832,-1.5832,-1.5832,-1.5832,-1.5832,-1.5832,-1.5832,-1.5832,-1.592,-1.6763,-1.873,-2.0865,-2.119,-2.2591,-2.4041,-2.4469,-2.4986,-2.5293,-2.5293,-2.5518,-2.5742,-2.5742,-2.5742,-2.5742,-2.5742,-2.5742,-2.5742,-2.5742,-2.5742,-2.5742,-2.5742,-2.7389,-2.8495,-2.7673,-2.9315,-3.0765,-3.1134,-3.1549,-3.219,-3.3031,-3.2729,-3.2579,-3.2767,-3.2968,-3.2918,-3.2528,-3.2328,-3.2051,-3.1687,-3.1486,-3.1148,-3.062,-3.062,-3.062,-3.0696,-3.1044,-3.1536,-3.2105,-3.1829,-3.1623,-0.0303,0.0,0.0,0.0,0.0,0.0,0.0,0.0,0.0,0.0,0.0,0.0,0.0,0.0,0.0,0.0,0.0,0.0,0.0,-0.8038,0.0,0.0,0.0,0.0,0.0,0.0,-0.8038,-0.8038,-0.8038,-0.8038,0.0,-0.8038,-0.8038,-0.8038,-0.8018,-0.7991,-0.7953,-0.9836,-1.2441,-1.58,-1.5761,-1.5803,-1.5832,-1.5832,-1.5832,-1.5832,-1.5832,-1.5832,-1.5832,-1.5832,-1.5832,-1.5832,-1.5832,-1.5832,-1.5832,-1.5832,-1.5832,-1.5832,-1.5832,-1.6109,-1.6574,-1.7412,-1.9638,-2.204,-2.2465,-2.3674,-2.498,-2.541,-2.543,-2.5342,-2.5498,-2.5635,-2.5742,-2.5742,-2.5742,-2.5742,-2.5742,-2.5742,-2.5742,-2.5742,-2.611,-2.639,-2.639,-2.8391,-2.959,-2.8412,-3.0316,-3.1877,-3.1877,-3.229,-3.2667,-3.3031,-3.2742,-3.2667,-3.3043,-3.3081,-3.2918,-3.2541,-3.2516,-3.2521,-3.2542,-3.2611,-3.2594,-3.2632,-3.2215,-3.2106,-3.2388,-3.2236,-3.2536,-3.3101,-3.3463,-3.3616]}]]